GFSSE_850_thetae_000.txt.gz
Theta_e
324 324 325 334 338 337 335 336 334 333 331 327 324 317 324 331 331 330 329 328 327 328 325 323 326 329 331 331 331 331 329 328 327 328 326 315 318 327 327 319 318 328 321
323 324 325 338 338 332 336 336 334 333 327 327 322 320 327 330 329 327 327 327 328 328 325 325 329 330 330 330 330 328 328 327 325 322 318 313 313 324 328 320 323 329 326
322 323 325 338 335 335 336 334 332 331 330 327 321 329 327 327 328 328 326 328 327 327 320 324 326 327 328 329 328 328 325 326 325 320 315 318 325 321 323 321 326 329 329
321 322 333 338 338 337 336 330 329 329 328 326 320 329 330 330 329 328 325 328 323 321 319 316 320 326 327 327 326 327 326 324 318 316 319 324 325 323 315 313 318 327 329
322 322 326 340 335 333 334 333 331 328 326 322 320 327 330 331 330 329 328 327 321 319 318 315 313 320 321 325 323 326 326 325 324 315 322 323 326 326 317 322 320 321 327
323 324 322 333 331 335 335 333 330 329 327 320 317 326 330 331 331 330 328 326 321 319 318 317 314 313 316 317 317 323 325 325 324 324 321 322 320 326 320 315 324 313 322
324 326 323 331 334 333 328 329 328 328 329 326 319 325 327 330 332 331 329 327 325 323 317 318 321 321 317 314 311 312 323 324 322 325 323 320 323 323 317 322 321 323 315
325 326 329 332 335 328 331 333 332 331 331 329 320 322 328 330 333 331 330 328 328 325 321 323 325 325 326 325 322 318 315 322 324 324 324 322 318 313 315 324 320 325 323
325 327 328 335 332 333 335 334 333 333 332 330 327 318 321 329 330 328 329 328 327 326 325 318 324 325 326 325 325 322 320 321 320 323 323 323 320 312 315 324 326 323 326
325 326 329 335 338 338 337 329 332 332 330 326 321 315 316 318 320 321 320 322 319 321 318 314 314 315 318 323 318 316 314 313 316 323 322 322 314 309 312 314 318 325 323
323 326 327 331 337 337 337 335 325 329 324 321 317 313 313 322 323 316 316 315 315 316 316 317 317 318 318 318 319 317 317 317 321 319 317 311 307 307 308 309 312 315 322
324 324 327 328 330 335 331 332 333 333 330 331 322 322 320 322 322 315 315 316 317 318 319 320 321 320 320 324 326 324 324 324 323 322 319 317 313 308 307 308 309 309 310
326 324 324 326 329 329 329 332 334 329 327 323 320 321 321 320 320 320 321 322 323 324 324 325 325 326 325 325 326 326 326 325 324 324 322 322 321 319 314 308 307 309 309
326 327 326 324 325 327 328 326 327 326 324 324 322 321 321 322 323 324 325 327 327 328 329 329 329 329 329 328 328 327 327 327 326 326 324 322 322 323 322 320 315 309 308
327 328 328 327 325 325 326 326 326 326 326 326 326 327 327 328 328 329 330 330 330 331 332 331 331 330 330 330 330 329 329 329 328 328 327 327 325 324 323 323 322 320 316
326 326 326 326 326 326 325 326 326 327 328 327 327 328 328 329 330 331 331 331 331 331 331 331 331 330 330 329 329 329 329 329 329 328 328 328 328 327 326 325 323 323 322
323 322 321 321 322 325 326 326 327 327 328 328 328 329 329 330 330 331 331 331 331 330 330 330 329 328 329 329 329 329 329 329 329 328 329 328 328 327 326 325 326 326 326
320 320 319 320 322 323 326 327 327 328 328 329 329 329 330 330 330 330 330 330 330 329 327 326 326 326 326 326 326 326 327 327 327 327 327 327 327 326 326 326 325 325 325
320 319 320 322 322 325 327 328 328 328 328 329 329 329 329 329 329 328 327 325 322 321 322 320 322 321 320 323 323 322 323 324 325 326 327 326 326 325 325 326 326 325 325
320 319 318 318 321 324 327 328 328 328 328 328 328 328 327 325 321 318 316 315 313 311 311 311 314 315 316 318 318 318 320 320 322 324 325 326 327 327 326 326 325 326 326
319 318 319 320 322 323 325 326 327 327 326 325 324 321 318 314 312 311 311 310 309 308 308 308 309 310 311 312 312 313 313 317 319 318 325 322 319 323 325 325 326 327 326
317 316 316 316 318 320 324 326 326 325 323 320 315 312 312 311 310 308 308 309 309 308 307 306 305 306 308 308 309 309 311 313 313 313 312 314 316 316 320 324 324 325 325
316 315 315 315 315 315 318 320 319 318 315 313 312 311 309 308 309 309 309 308 306 304 302 300 300 301 304 304 306 307 309 309 309 309 310 311 314 314 313 315 318 318 317
315 315 315 314 314 313 314 314 313 313 312 310 308 308 309 310 310 309 307 304 301 298 296 295 295 296 301 302 302 303 304 305 307 308 307 307 308 311 310 311 311 312 312
314 314 314 314 313 313 312 311 310 310 309 308 309 310 310 310 307 305 302 299 297 295 294 294 294 295 298 299 300 301 302 303 303 304 304 303 303 304 304 304 306 309 310
314 315 314 314 313 312 311 310 309 309 309 309 310 310 308 306 305 303 301 297 294 294 294 294 294 294 294 294 296 299 300 300 300 299 299 300 300 300 300 302 304 306 308

GFSSE_850_thetae_003.txt.gz
Theta_e
335 326 324 332 338 335 334 335 334 334 332 326 325 322 326 333 333 331 330 329 328 328 326 326 328 328 328 331 331 331 329 328 327 325 326 326 314 318 330 328 316 330 329
330 331 324 332 335 335 335 337 333 333 331 328 323 322 331 332 329 329 329 327 327 328 324 327 330 330 330 330 330 329 327 326 327 324 321 317 317 317 328 324 319 330 328
334 337 326 338 337 332 335 337 333 331 329 325 321 329 327 328 328 324 326 327 327 327 319 322 327 328 327 328 329 328 326 325 323 321 317 314 325 326 322 323 318 327 328
334 339 342 337 334 336 336 333 329 327 326 324 320 329 328 330 329 328 326 326 325 321 319 316 313 319 326 326 326 327 326 325 323 318 313 325 325 325 324 317 314 325 329
334 336 340 338 339 337 335 332 330 326 324 320 319 327 329 330 331 330 329 328 325 324 319 318 314 310 313 322 324 323 325 325 324 322 324 323 325 327 326 322 322 319 326
336 337 324 340 336 332 332 333 330 327 326 320 316 327 329 331 332 330 330 327 327 325 318 316 317 316 314 313 315 316 323 326 324 325 327 323 320 319 326 322 314 321 318
336 339 323 331 330 332 333 332 329 328 325 325 318 324 328 330 332 332 330 329 327 325 322 318 320 324 325 324 321 317 313 314 321 323 325 326 322 322 320 314 319 320 324
337 337 333 326 330 329 329 333 331 331 330 328 320 318 326 328 330 334 331 330 326 326 325 323 318 323 326 325 325 324 320 316 315 321 320 324 324 317 311 311 314 322 323
337 334 338 328 331 331 336 334 333 333 331 329 324 317 317 328 331 331 328 327 322 323 323 316 313 313 316 319 319 315 314 313 312 313 320 323 323 318 309 310 311 319 323
334 333 338 339 338 336 336 330 330 332 331 326 322 315 313 318 321 320 321 320 316 315 316 317 317 317 317 318 318 318 317 316 316 320 322 319 316 309 307 307 309 311 314
333 334 336 338 340 339 339 338 328 326 326 320 318 315 312 318 329 326 323 314 315 317 318 319 320 320 320 320 321 324 323 322 322 325 323 321 318 314 311 308 307 308 309
336 335 338 337 339 339 337 337 335 336 333 333 332 331 330 328 329 317 318 320 322 323 324 324 324 323 324 324 327 327 326 327 327 326 325 323 322 322 322 319 313 308 308
333 335 333 338 339 339 339 338 337 335 334 333 332 332 331 327 329 329 329 328 326 327 327 330 329 330 330 329 329 328 328 328 328 327 326 325 323 323 323 323 322 320 314
331 332 333 330 330 338 338 335 337 336 334 333 333 332 332 332 332 332 332 332 332 332 332 332 332 332 332 331 331 331 330 330 329 329 329 328 328 327 326 326 325 323 322
331 331 332 333 334 332 334 338 337 336 334 334 334 334 333 334 334 334 334 334 334 334 333 334 333 333 332 332 332 331 331 331 331 331 330 330 330 329 328 328 328 328 326
331 331 331 330 332 335 336 337 337 336 335 335 334 334 332 332 332 332 333 335 333 334 333 331 331 331 331 331 330 331 330 330 330 330 330 330 329 329 328 326 326 326 327
325 323 322 322 326 333 336 337 336 336 334 335 334 333 332 332 332 333 334 333 331 331 330 329 328 327 327 326 326 327 327 328 328 328 328 328 328 328 328 328 327 325 326
322 321 320 320 321 329 334 336 335 334 334 333 332 332 332 331 330 331 332 328 325 325 323 322 320 320 320 321 322 323 323 323 324 324 325 326 327 327 326 326 326 326 326
320 319 320 323 326 330 334 334 333 332 332 332 332 330 327 326 324 322 317 314 315 315 314 313 313 314 314 315 316 317 315 318 320 319 321 325 326 326 327 327 326 324 323
324 321 321 324 329 331 331 332 332 328 324 322 323 321 318 315 311 310 310 309 310 311 312 311 311 312 311 313 313 312 314 312 315 318 321 321 323 324 322 318 324 327 324
325 328 328 329 331 332 333 329 325 321 321 322 320 313 311 310 309 309 311 310 310 309 309 307 307 306 306 308 307 309 307 312 312 315 315 314 313 314 316 316 319 324 323
322 322 323 327 330 328 325 324 321 320 317 313 312 310 308 309 311 311 310 307 305 304 303 301 301 300 303 303 305 305 307 307 308 306 307 309 310 313 316 314 315 316 317
317 316 315 316 318 320 321 320 317 315 314 311 308 309 310 311 310 307 306 303 302 300 298 296 298 299 301 302 302 303 304 305 305 306 305 308 309 306 309 312 310 309 309
315 315 315 314 314 316 317 316 315 312 309 309 309 310 310 309 308 306 304 302 300 296 295 295 296 296 299 300 299 300 301 302 304 303 303 303 303 303 302 304 304 303 303
314 314 314 313 313 312 312 311 311 310 309 310 311 309 308 307 307 305 303 301 297 295 294 294 294 294 297 299 298 298 299 301 301 300 300 300 299 299 301 300 303 301 303
314 314 314 313 313 312 312 311 311 310 310 311 310 310 309 307 305 305 303 298 295 294 294 293 293 293 295 297 296 296 296 298 299 298 298 298 299 299 301 299 300 302 303

GFSSE_850_thetae_006.txt.gz
Theta_e
339 325 324 331 337 336 334 336 335 333 331 327 325 321 327 333 332 332 330 329 328 327 327 328 331 330 328 331 331 330 329 328 327 326 322 321 321 312 318 331 318 330 329
329 324 324 334 335 335 335 336 334 333 331 327 321 320 330 330 329 329 329 326 326 327 320 328 329 330 330 330 330 329 327 327 325 321 320 318 314 325 323 321 318 329 331
332 326 326 337 337 335 334 337 333 331 329 324 321 325 326 328 329 326 325 325 327 326 319 317 328 328 328 327 327 328 327 326 324 318 313 318 323 325 325 323 318 321 327
333 331 328 337 335 335 336 334 329 326 326 323 321 329 328 328 328 328 327 326 324 322 318 316 316 315 319 324 326 327 327 327 324 322 314 322 325 326 326 325 318 316 327
334 339 339 335 336 337 334 333 331 326 324 320 318 328 329 329 330 329 328 327 324 323 319 315 315 312 311 316 321 323 322 324 325 322 322 325 321 324 327 326 323 316 323
335 334 328 333 338 336 335 333 331 327 326 320 316 328 328 329 332 331 329 328 327 323 320 316 316 317 318 317 316 313 312 314 315 316 320 326 325 317 323 326 323 316 314
337 335 326 323 330 331 332 333 330 327 327 325 317 328 327 329 331 333 330 329 329 320 318 317 312 314 319 322 322 320 315 311 310 309 310 318 324 323 315 314 311 313 312
337 334 325 321 323 327 328 330 330 328 330 328 319 321 326 328 329 332 334 330 328 318 315 315 314 313 314 316 315 317 314 313 312 310 310 312 316 320 316 311 310 310 311
337 334 329 325 327 322 326 326 333 333 331 329 322 317 315 325 329 332 330 324 315 314 315 316 317 317 317 317 317 318 317 317 316 316 313 312 312 313 311 308 308 309 310
338 337 336 329 330 326 326 325 326 328 330 326 319 314 313 318 320 318 318 316 315 315 317 318 319 319 319 320 320 320 322 322 321 320 320 320 319 317 315 312 308 308 308
334 338 339 338 339 336 335 337 335 322 320 317 316 316 313 321 326 324 322 316 318 319 320 321 322 322 323 323 324 325 325 324 324 324 323 324 323 322 321 321 320 315 309
334 334 338 339 340 339 339 337 332 328 328 326 326 327 326 328 328 327 321 323 323 324 324 325 326 327 328 327 327 328 327 327 327 327 327 326 325 325 324 323 322 322 322
331 335 336 337 339 339 339 336 337 335 333 334 333 332 331 327 328 328 328 329 327 328 329 329 330 330 331 331 332 331 331 331 330 330 329 329 329 329 329 328 328 327 326
331 334 336 336 336 339 339 337 337 336 335 334 333 332 331 332 332 333 332 331 332 332 332 332 332 332 332 332 331 331 331 331 330 330 330 331 330 330 330 329 329 329 328
330 332 333 333 335 337 339 339 337 336 335 334 333 334 333 333 334 333 333 333 333 332 332 331 330 329 329 329 329 328 327 328 329 329 330 329 330 330 329 328 329 329 328
331 332 332 332 335 336 337 338 338 336 335 334 334 334 334 332 332 333 333 332 331 331 330 328 327 326 325 325 324 324 325 325 325 325 326 326 325 327 328 327 326 325 326
328 329 329 331 332 335 336 337 337 336 335 335 334 334 333 333 332 333 331 330 327 326 324 324 317 316 315 316 317 318 320 321 320 318 320 318 321 324 325 325 326 326 325
324 323 322 321 326 333 336 337 336 335 334 333 332 331 331 330 330 330 326 319 317 315 313 312 312 311 311 310 312 313 313 314 313 313 314 317 319 322 324 325 325 320 323
324 322 322 323 325 333 335 335 334 332 332 331 330 329 326 323 322 315 310 310 311 311 311 310 309 308 307 306 308 307 307 309 310 313 314 317 318 319 320 317 316 316 318
325 324 325 327 331 334 335 333 332 331 330 328 324 321 315 311 309 310 311 311 310 308 308 306 305 304 302 303 301 303 302 309 307 309 312 311 311 308 309 309 312 315 317
329 328 327 329 330 331 332 332 329 324 323 321 316 311 309 310 311 311 310 308 307 305 304 301 300 299 299 298 300 299 301 302 304 305 303 303 303 307 310 313 310 308 308
328 329 331 332 332 332 329 325 322 321 316 312 309 309 310 311 310 309 308 307 305 304 302 299 298 296 297 297 298 298 301 299 301 299 304 301 305 306 304 301 302 304 305
322 322 325 327 326 326 325 323 318 313 311 309 310 310 311 310 309 308 307 305 303 301 299 296 296 295 296 297 296 297 299 300 299 300 297 301 297 298 297 296 298 301 299
318 317 318 319 319 318 317 316 313 311 310 310 311 311 310 310 309 308 307 304 302 299 297 296 296 295 294 294 295 295 294 296 298 298 298 297 296 296 296 298 297 301 301
316 316 315 315 316 317 316 313 311 310 311 311 310 310 309 309 310 308 307 305 303 300 297 295 295 294 294 294 295 294 293 294 293 295 296 296 295 295 296 296 299 295 294
314 314 313 313 313 312 312 311 311 311 311 310 310 310 309 309 308 308 306 304 301 298 295 294 294 293 293 293 293 293 293 294 293 294 295 295 295 295 295 295 294 293 295

GFSSE_850_thetae_009.txt.gz
Theta_e
337 326 326 333 338 337 336 335 334 332 331 328 323 319 326 330 330 330 330 328 328 325 327 329 330 330 329 330 331 329 329 328 326 325 322 317 322 315 315 319 320 326 326
333 324 325 335 338 335 336 335 333 332 329 326 318 321 331 329 329 327 328 327 326 322 317 328 328 329 329 330 329 328 327 326 325 321 316 315 314 320 324 323 316 323 330
328 322 326 335 335 334 335 336 335 331 326 322 319 326 327 328 328 326 325 326 323 320 317 315 326 326 327 328 327 326 327 327 325 317 312 319 323 324 325 325 322 318 322
329 324 327 336 338 335 334 335 329 323 322 320 321 328 327 327 328 327 327 325 322 320 316 314 314 316 315 318 320 321 326 322 318 319 313 317 320 323 325 326 324 317 318
329 330 327 331 333 336 335 333 329 324 322 318 315 327 329 328 329 328 328 327 327 319 316 313 314 313 311 310 312 313 317 317 313 317 317 316 316 323 325 324 323 321 313
329 329 327 330 333 333 332 331 328 324 321 315 314 326 328 329 331 331 328 326 327 321 312 311 311 311 312 315 316 316 315 313 311 310 310 317 319 320 318 321 313 316 316
333 334 327 324 328 333 332 330 328 325 322 318 316 325 327 329 330 331 329 329 328 316 313 313 313 313 313 314 314 315 313 312 312 311 310 311 315 320 321 322 316 311 311
335 334 327 322 325 329 329 328 326 326 327 323 316 321 324 327 330 330 332 330 325 314 315 315 316 316 316 316 317 317 317 317 317 317 316 312 311 315 320 324 317 312 310
336 333 329 324 323 324 323 326 326 329 327 323 320 315 314 323 328 330 330 319 315 315 316 317 318 318 318 319 319 319 320 321 322 322 320 319 319 317 316 326 321 312 308
336 333 333 329 327 324 324 324 324 325 325 323 317 313 313 319 320 316 316 316 316 317 318 320 320 322 323 324 324 324 325 325 325 324 324 324 324 323 322 323 326 323 319
335 333 333 334 334 331 332 334 333 326 321 319 315 316 314 321 325 319 319 320 321 323 324 326 327 328 328 329 329 330 330 329 329 328 328 328 328 327 327 326 325 324 323
331 331 335 336 335 334 335 336 333 325 328 325 323 323 324 324 325 324 325 327 327 328 328 328 329 330 331 331 331 331 331 330 330 330 330 329 330 329 329 329 329 329 328
326 332 331 338 338 337 336 335 332 332 331 330 331 328 329 328 327 328 329 330 331 330 331 331 331 331 330 330 329 329 329 329 329 329 328 329 330 330 330 329 329 329 329
327 330 333 334 339 339 339 337 335 336 333 332 332 330 331 331 332 331 333 333 332 332 330 330 329 328 328 328 327 327 326 327 325 326 326 327 327 327 328 328 327 327 326
327 330 333 334 337 339 339 338 337 336 335 333 333 333 332 332 332 332 332 331 330 330 329 329 328 327 325 322 320 319 321 322 321 321 321 321 322 322 323 324 325 326 326
329 330 332 333 334 337 339 339 337 336 334 333 333 333 333 332 331 332 331 330 329 328 328 326 324 319 313 313 313 313 314 318 318 318 314 317 318 317 320 321 324 327 329
330 331 332 331 332 335 337 338 337 336 334 333 332 331 331 330 331 331 329 329 326 324 322 316 312 312 312 311 310 310 310 310 310 310 311 313 316 317 318 316 317 318 318
329 331 332 332 332 334 336 338 336 334 334 332 332 330 330 330 330 327 327 320 313 311 311 312 311 309 307 306 305 305 305 305 306 310 311 313 314 313 314 311 311 312 314
324 324 324 325 331 333 336 336 334 333 332 330 329 329 328 327 327 320 310 311 311 310 309 308 306 304 303 303 303 303 303 304 309 305 305 308 309 306 305 306 309 310 311
323 323 323 322 329 334 336 334 332 331 329 327 328 325 316 311 310 311 311 310 308 307 306 305 304 303 301 300 301 302 302 302 301 303 301 302 301 302 304 306 308 308 310
325 326 327 328 332 335 335 333 331 330 329 327 319 311 310 311 311 310 309 307 306 305 304 302 302 301 300 299 300 301 300 299 302 298 298 297 298 299 299 302 301 298 297
329 329 330 332 333 334 334 332 331 328 321 314 310 310 311 310 309 308 309 308 307 304 303 301 299 298 298 296 296 297 297 297 299 296 297 296 298 297 295 295 294 295 294
330 331 331 331 331 331 331 327 323 318 312 310 310 311 310 309 309 310 309 309 307 304 301 299 297 296 296 297 295 295 296 295 294 297 294 297 294 294 293 293 293 293 297
330 331 331 331 331 328 324 322 317 313 311 310 311 310 310 310 311 310 309 308 305 302 300 298 296 295 295 295 294 293 294 294 293 295 294 292 293 293 292 292 292 295 295
322 327 325 324 323 320 316 313 311 310 311 311 310 310 310 310 310 309 308 306 304 301 299 297 296 295 294 293 293 293 293 292 291 293 293 292 292 293 291 292 293 291 292
319 319 318 317 317 317 315 312 310 311 311 310 310 310 309 308 308 307 306 304 301 299 297 296 295 294 293 293 293 292 291 291 291 291 291 291 292 292 292 292 291 291 291

GFSSE_850_thetae_012.txt.gz
Theta_e
337 329 330 335 339 338 336 335 332 332 330 325 320 318 325 327 329 329 329 329 327 326 327 330 330 330 332 332 331 330 328 328 327 326 321 318 317 321 314 315 317 319 322
336 324 325 334 339 336 336 335 332 333 329 324 317 329 331 330 328 328 328 327 326 322 316 327 328 327 329 329 330 329 328 326 323 321 314 314 316 316 320 322 321 318 326
327 322 325 333 339 336 336 335 334 332 324 320 316 323 328 328 327 325 326 327 319 316 313 314 322 322 327 327 326 325 325 322 322 317 313 316 319 321 322 324 323 318 319
325 322 326 332 334 334 335 335 334 323 320 319 325 326 327 325 327 327 326 324 322 315 313 312 312 313 313 316 318 320 319 324 321 315 317 314 318 320 323 326 326 322 316
328 324 325 332 336 334 331 331 328 322 319 317 318 328 328 328 328 327 327 324 326 319 313 312 313 313 312 311 312 314 313 316 313 311 314 318 317 319 324 326 326 325 319
330 328 328 329 333 334 334 331 328 321 319 315 316 327 328 329 330 330 327 325 327 322 313 313 312 312 314 316 317 317 317 315 314 312 311 310 317 319 321 326 326 324 316
331 331 327 330 331 330 331 329 328 323 320 314 317 324 326 329 330 331 328 328 328 315 315 315 316 316 316 316 317 318 318 317 317 317 316 314 312 317 319 326 326 326 325
333 334 334 326 328 329 330 330 326 325 325 317 316 322 323 327 330 330 332 331 321 315 316 317 317 318 318 318 318 319 319 320 322 323 323 320 318 315 316 324 327 326 324
335 335 333 325 325 327 329 328 326 327 327 321 319 315 316 322 327 329 329 318 316 317 317 318 319 321 322 325 325 325 324 325 326 326 325 324 324 324 323 322 327 327 326
335 335 332 325 325 323 324 324 326 327 326 321 317 313 313 319 323 318 316 318 319 320 322 325 326 328 328 329 330 330 330 330 330 329 329 329 329 329 328 327 327 328 327
335 334 332 330 327 326 327 329 331 328 322 320 316 315 314 317 320 318 320 322 325 326 327 327 328 328 330 330 331 330 330 329 329 329 329 329 329 329 329 329 329 329 328
330 330 331 331 331 331 332 333 333 329 328 321 318 321 322 322 323 324 325 328 329 329 329 330 330 330 329 329 329 328 328 328 327 327 328 326 327 328 328 329 329 329 329
325 330 332 330 333 333 333 334 332 330 329 329 328 327 327 326 327 328 330 331 331 330 331 331 329 329 328 328 328 327 327 325 326 325 325 325 325 325 326 327 327 327 327
325 327 331 332 333 335 336 336 334 334 332 329 330 329 329 329 331 331 330 331 330 330 330 329 328 328 327 327 326 324 323 320 322 322 323 323 323 324 324 325 324 324 325
324 325 330 333 334 335 337 337 335 335 334 332 332 332 331 331 331 331 331 331 330 330 327 327 328 327 324 317 314 313 313 314 317 318 318 317 313 316 316 319 321 322 324
323 325 331 333 336 338 339 339 337 335 334 333 332 332 331 332 331 331 330 329 328 327 326 326 322 315 312 312 312 311 311 311 313 313 313 311 312 313 315 316 315 316 320
324 324 331 334 335 337 339 339 337 335 333 332 331 331 331 330 330 330 329 327 326 326 321 315 311 311 311 309 307 306 305 305 305 306 307 312 313 313 312 312 312 312 313
326 326 332 334 333 336 338 338 335 334 332 332 331 331 330 329 329 326 326 326 316 311 311 311 309 307 306 305 304 304 303 303 304 308 306 306 307 308 308 307 307 307 309
328 330 331 331 332 334 337 338 334 333 332 331 331 329 328 329 328 327 316 311 310 309 308 306 305 304 303 303 303 302 302 302 304 302 303 300 300 299 302 304 304 305 304
324 327 329 330 332 334 336 336 333 332 332 330 329 327 328 323 312 311 310 308 307 306 305 304 303 301 300 300 301 301 301 302 299 302 297 297 297 298 298 297 296 297 297
322 322 323 323 329 332 336 335 331 331 330 328 327 324 311 310 310 309 308 308 308 307 305 303 301 301 299 299 299 300 298 297 298 300 297 296 296 296 295 295 295 295 295
323 325 325 323 330 334 335 334 331 329 328 327 318 310 310 310 309 309 309 310 308 306 303 301 300 299 297 296 295 296 295 296 298 295 296 295 296 294 295 294 294 294 293
326 328 326 328 331 334 335 333 331 329 326 315 310 310 310 309 310 310 310 309 307 304 302 300 298 297 296 295 294 294 294 294 293 294 293 294 293 293 292 292 292 292 292
328 330 331 332 334 334 334 332 331 327 317 310 310 310 309 310 310 310 309 308 306 302 299 297 295 295 295 294 293 293 293 292 292 292 292 292 292 291 291 291 291 290 290
329 330 331 331 331 331 329 325 322 314 310 311 310 309 309 310 310 309 308 307 303 300 297 295 294 294 293 293 292 293 292 291 291 290 290 291 290 290 290 290 290 290 290
330 330 331 331 330 325 321 316 312 311 311 310 310 310 310 310 309 308 306 304 301 298 296 295 293 292 292 292 292 292 291 290 290 289 290 289 289 289 289 289 289 289 290

GFSSE_850_thetae_015.txt.gz
Theta_e
333 332 343 336 339 338 337 334 331 331 328 322 319 320 321 327 330 329 328 328 327 325 326 330 330 331 333 332 328 327 328 328 327 327 325 317 319 318 319 315 315 319 318
331 325 336 338 339 339 335 334 331 332 330 322 318 327 329 328 327 327 328 327 325 319 316 327 327 326 330 331 330 329 328 325 323 322 317 314 316 316 316 317 321 316 324
328 322 325 340 341 338 336 335 333 333 328 320 318 332 329 328 327 324 327 321 316 315 313 317 322 322 327 327 327 326 323 323 321 318 318 314 317 319 320 321 323 321 320
324 321 325 333 340 339 335 335 334 331 321 318 318 326 326 327 328 327 323 323 322 315 313 313 313 315 315 318 318 318 320 319 318 317 315 315 318 320 320 323 326 325 322
324 323 325 329 336 334 334 334 331 324 320 318 326 327 328 328 327 327 324 324 325 317 312 312 312 313 313 312 313 313 314 313 313 312 311 312 317 319 319 329 327 327 324
326 324 324 329 332 332 332 328 328 323 320 316 319 327 329 329 329 329 328 327 325 316 314 314 314 314 315 315 316 316 316 316 316 316 316 313 311 313 321 322 325 325 325
328 326 325 328 331 329 331 329 328 323 317 314 316 325 328 330 330 332 329 329 327 315 315 316 317 317 317 317 318 319 319 319 321 323 324 322 318 314 314 319 326 326 326
331 329 327 326 329 330 329 330 329 324 320 314 317 322 325 328 330 330 330 331 322 316 317 317 318 320 321 323 323 324 323 325 326 326 326 325 324 324 322 320 322 328 328
334 333 332 328 327 330 329 329 328 324 324 318 316 317 320 324 328 329 329 319 317 317 319 322 323 326 327 327 328 329 329 330 329 329 328 329 328 329 329 328 327 326 327
335 335 334 330 325 327 326 326 326 326 326 320 318 315 314 321 326 321 316 318 320 323 325 326 327 328 329 330 330 330 330 329 329 328 329 329 329 328 328 328 328 328 328
335 335 335 332 325 326 325 325 327 326 325 322 317 315 314 319 318 319 320 324 326 328 328 329 329 330 329 329 328 328 328 328 327 326 327 327 326 327 328 329 328 330 329
333 333 334 332 329 327 326 327 332 331 325 322 318 316 320 322 323 323 325 327 329 328 330 331 330 329 328 327 327 327 327 327 326 326 325 325 324 325 326 327 331 329 329
325 330 331 332 331 331 329 332 334 331 329 325 322 325 325 325 325 327 329 330 329 330 330 329 328 327 327 326 326 326 326 324 323 322 323 322 323 324 324 324 324 324 324
324 326 329 332 333 333 334 334 334 332 330 329 330 329 329 329 330 330 328 329 329 329 328 327 326 326 327 327 326 321 318 316 316 317 320 320 319 317 315 318 318 319 321
325 325 327 331 333 334 336 336 336 334 333 331 331 331 330 330 330 328 329 329 328 327 327 326 325 326 325 318 313 312 312 311 311 312 314 315 314 313 312 314 316 318 320
326 324 324 329 333 335 336 338 337 335 334 333 332 331 330 330 330 329 329 327 327 326 325 326 325 317 312 311 311 309 308 306 306 306 307 308 309 310 311 311 312 312 313
326 325 323 326 333 335 337 338 337 336 334 332 330 330 329 330 329 329 328 328 326 326 325 315 311 311 309 307 306 305 304 304 303 304 305 308 309 310 310 310 309 309 309
324 325 324 327 333 336 338 338 336 335 332 331 330 330 330 329 328 327 327 326 324 312 310 309 308 306 305 304 304 303 303 302 303 305 306 304 303 302 303 304 305 304 304
323 324 324 330 334 337 338 337 336 334 333 331 331 331 329 327 326 325 324 314 310 308 307 306 305 304 303 303 303 302 302 302 302 302 300 298 298 297 298 300 298 297 297
324 326 328 333 336 337 338 338 335 334 332 332 331 329 327 326 326 317 310 309 308 308 307 306 304 302 301 301 301 301 300 300 301 298 300 297 297 296 297 296 296 295 295
323 327 331 335 335 334 336 337 334 333 332 331 329 328 326 319 310 309 309 309 310 309 307 304 302 301 299 299 300 300 299 298 297 298 300 297 296 296 296 295 295 295 295
321 322 326 329 331 333 335 336 333 331 330 329 328 326 311 310 309 309 310 310 310 308 304 302 300 298 297 296 296 296 295 296 297 298 296 296 295 294 295 294 294 294 294
320 321 322 323 325 333 336 335 333 330 328 327 325 312 310 309 309 310 310 310 309 306 302 300 298 296 295 294 293 293 293 293 292 294 294 294 293 294 293 293 293 293 292
322 323 325 324 326 334 335 333 331 330 328 326 315 310 310 309 310 310 310 309 307 304 301 299 297 295 294 293 292 292 292 291 291 291 292 293 292 292 292 292 291 291 291
325 325 327 326 332 335 334 331 330 329 328 319 310 310 309 310 310 310 308 307 306 303 300 297 295 294 293 292 292 292 292 291 290 289 289 290 291 291 290 290 289 289 289
327 328 329 331 333 334 333 332 331 330 322 311 310 309 310 310 309 308 307 306 305 301 298 296 294 292 292 292 292 291 290 289 289 288 288 288 287 288 288 289 289 288 288

GFSSE_850_thetae_018.txt.gz
Theta_e
330 329 343 341 340 340 337 334 330 329 327 322 319 319 325 327 330 330 328 327 325 321 329 330 331 335 335 331 331 327 327 327 327 324 324 322 315 318 319 320 316 315 315
328 326 342 339 340 339 337 334 331 330 331 321 319 326 326 327 326 327 327 326 320 318 316 326 328 330 331 331 329 328 328 326 320 320 317 313 314 316 317 315 317 318 320
325 325 338 340 339 338 335 334 332 332 330 319 331 331 329 328 327 326 325 318 316 314 313 318 322 321 328 328 327 326 322 320 318 320 315 314 316 317 319 322 322 323 319
323 323 328 340 340 338 336 334 333 332 323 317 331 331 328 328 327 326 322 323 320 313 312 313 314 316 317 319 318 316 314 316 314 313 311 315 314 316 317 319 323 327 324
322 323 326 342 341 335 333 334 332 325 320 317 320 328 325 326 325 325 325 325 320 313 312 312 312 312 312 312 313 313 314 313 314 314 313 311 310 314 316 321 328 328 325
322 323 325 330 334 332 331 329 327 323 320 317 322 328 328 329 330 330 328 327 322 314 314 315 315 315 316 316 317 317 317 318 319 321 322 320 317 312 312 317 318 326 327
324 324 324 327 330 331 331 327 326 322 316 314 319 327 329 330 330 329 329 328 325 316 317 317 318 318 319 320 320 320 320 322 324 324 324 323 322 322 318 316 316 326 326
328 326 325 326 329 329 330 329 327 323 318 314 317 324 329 329 330 330 329 329 322 317 318 319 320 323 325 326 326 327 328 328 329 328 328 327 327 327 327 326 325 323 327
333 331 328 326 326 329 330 330 329 325 321 316 318 321 323 328 329 330 329 323 317 319 322 325 327 328 328 329 329 329 329 329 329 328 328 329 329 328 328 328 328 327 326
335 334 333 331 326 326 328 330 329 326 324 320 318 317 318 323 327 327 319 319 322 325 326 328 328 328 328 329 329 328 328 328 327 327 326 327 327 327 328 327 329 328 328
334 335 335 334 330 326 327 327 328 327 326 324 320 316 315 319 321 319 321 325 326 327 328 330 329 329 329 328 327 326 326 326 326 326 326 324 326 325 325 328 329 330 330
331 332 334 335 332 327 328 327 327 328 326 323 319 316 315 319 321 324 325 327 329 328 330 330 329 327 327 327 326 326 326 326 325 324 323 323 323 324 324 324 324 325 326
327 329 331 332 333 330 328 327 328 332 329 325 320 320 322 322 324 326 329 330 329 329 328 328 327 325 325 325 326 326 323 320 317 316 317 319 320 319 319 319 320 321 322
326 327 330 331 333 333 331 329 332 333 329 326 323 326 326 326 329 330 328 327 328 328 327 326 325 325 325 326 324 318 314 312 312 312 312 313 315 316 315 315 317 316 316
325 325 326 328 331 333 333 334 335 334 332 330 330 330 329 330 330 328 327 328 327 325 325 325 325 325 324 317 311 311 310 309 308 307 308 308 309 310 310 311 312 313 315
325 326 326 325 328 333 334 336 336 335 333 331 331 331 329 329 328 327 328 327 325 325 324 325 324 314 311 310 309 307 306 305 304 303 304 305 307 308 309 309 309 310 310
325 325 326 326 324 331 334 337 337 336 334 333 331 330 329 328 328 328 328 326 325 325 324 313 310 309 307 306 304 304 303 303 303 303 303 304 305 305 305 306 307 307 307
325 325 324 325 323 329 335 337 337 335 333 332 330 329 329 329 328 327 326 325 325 315 309 308 307 307 305 304 303 303 302 302 302 302 303 301 300 300 299 299 300 301 300
325 325 324 324 324 330 336 338 337 335 333 332 330 330 331 329 327 326 324 322 310 308 308 308 307 305 304 303 302 302 301 301 301 302 302 299 297 297 296 297 297 296 296
324 324 322 323 325 333 337 338 336 335 334 332 331 331 330 327 325 323 319 309 308 309 309 307 304 303 302 301 301 301 301 300 299 301 300 298 298 297 296 296 296 295 295
322 321 322 323 328 334 337 337 335 335 333 332 332 331 328 325 325 311 309 309 310 309 308 305 303 302 301 301 301 301 300 298 298 297 297 300 297 296 296 295 295 295 295
322 321 322 325 331 335 336 337 336 332 333 332 331 328 325 323 310 309 309 310 310 309 307 305 302 301 299 298 297 296 296 297 297 297 297 296 296 295 295 294 294 294 294
321 321 322 327 333 335 337 337 334 331 331 330 327 325 324 310 309 309 310 310 310 309 307 305 301 299 298 296 294 293 293 292 292 294 295 295 294 293 293 293 293 293 292
321 321 321 324 331 335 336 336 333 330 330 327 325 324 313 309 309 310 310 310 309 308 307 303 300 298 296 294 293 292 292 291 290 291 291 293 292 291 292 292 292 292 292
321 320 321 322 323 328 334 335 331 329 328 325 323 318 309 309 309 310 310 309 308 307 305 302 298 296 293 292 292 292 292 291 290 289 288 290 291 291 291 290 289 290 290
321 322 324 325 324 328 333 331 330 328 327 325 322 311 309 309 310 309 309 308 307 305 303 300 296 293 292 292 292 291 290 289 289 288 287 288 287 288 289 290 290 289 289

GFSSE_850_thetae_021.txt.gz
Theta_e
329 333 342 341 338 336 334 332 326 325 324 322 319 320 328 329 329 329 328 327 326 323 327 330 335 335 333 332 332 329 327 327 326 322 318 319 315 314 317 321 321 316 316
327 331 343 340 339 338 336 334 328 329 330 320 317 322 325 329 329 328 328 324 317 320 327 327 330 333 333 331 330 327 326 326 321 318 316 315 312 314 316 316 315 317 318
326 327 340 342 341 338 336 333 331 330 326 320 330 331 329 327 325 327 326 316 315 313 313 319 325 328 329 330 328 326 324 318 315 315 313 314 314 315 317 324 320 324 319
324 326 333 342 339 337 335 333 332 329 320 322 332 331 328 327 324 321 323 320 316 313 312 313 315 317 324 323 321 318 315 314 312 312 311 310 314 314 315 315 324 324 326
324 327 333 341 338 337 334 333 332 324 319 316 333 330 324 323 324 326 326 322 314 313 312 312 313 313 312 312 313 314 315 316 317 318 318 316 312 310 312 316 326 328 328
323 326 332 343 341 334 330 330 328 322 318 316 325 329 327 329 329 329 329 327 320 315 316 316 316 316 316 317 318 319 321 320 322 323 323 322 320 317 313 313 316 319 324
323 326 330 343 341 332 329 327 326 321 317 316 325 328 329 329 329 330 328 328 321 317 317 318 318 319 320 322 322 322 322 325 326 326 326 326 325 325 324 320 318 320 328
323 325 328 339 334 332 330 327 326 323 317 314 321 329 329 329 330 330 329 328 319 318 319 321 323 325 327 328 328 328 328 329 329 328 327 328 327 327 327 327 327 326 324
327 327 327 329 332 333 330 329 327 323 318 315 319 324 329 329 330 329 327 326 317 320 324 326 327 327 328 328 328 328 328 328 327 327 327 327 328 328 328 328 328 328 328
332 332 331 329 330 335 331 330 328 325 321 317 317 319 322 326 328 329 325 318 323 325 326 327 327 328 329 329 327 327 326 326 325 325 325 324 324 325 324 327 328 328 330
334 334 334 333 331 329 331 331 329 327 325 321 318 316 316 322 325 322 319 324 327 327 328 329 328 328 327 327 327 327 326 326 326 326 325 325 324 324 325 323 324 326 328
331 333 335 335 334 331 330 331 328 327 325 324 319 317 315 319 320 321 323 327 328 328 329 328 327 327 325 325 325 326 326 324 320 318 318 317 319 320 320 322 323 322 322
328 331 333 335 335 334 329 330 328 329 329 324 320 316 317 321 323 324 327 328 329 328 327 326 326 325 325 325 325 324 319 314 312 312 312 312 314 316 317 317 317 316 315
326 327 329 332 334 335 332 330 328 330 332 327 321 321 323 324 325 328 329 326 327 326 326 325 324 325 325 325 320 313 311 311 310 310 309 309 309 311 313 314 314 313 315
325 325 326 327 329 332 333 331 330 332 332 327 324 326 326 328 329 327 327 327 326 326 324 323 324 324 319 312 310 310 308 307 306 305 304 305 305 306 307 308 309 310 312
325 325 325 325 325 328 333 333 333 334 332 330 329 329 329 328 328 327 326 326 325 325 324 323 323 312 310 308 306 305 304 304 303 303 303 303 304 306 307 308 309 309 309
324 324 324 325 325 325 330 334 335 336 334 332 331 330 329 328 327 328 327 326 326 324 324 315 309 308 306 305 304 303 303 303 302 302 302 303 304 303 302 301 301 302 303
324 324 324 325 325 324 327 335 336 336 334 333 331 329 329 328 328 328 326 325 325 323 310 308 308 307 306 304 303 303 302 302 301 301 301 301 298 297 297 296 297 297 297
324 324 324 325 324 324 324 335 336 336 334 333 331 329 329 329 329 327 325 324 321 309 309 309 308 305 303 303 302 302 302 302 301 300 301 301 300 298 297 296 296 296 296
324 324 324 324 324 323 323 335 336 337 335 334 332 330 330 330 327 325 324 321 309 309 309 308 305 303 302 302 302 302 302 301 299 299 301 297 297 298 297 296 296 295 296
324 324 324 323 323 323 325 334 336 337 335 334 331 331 331 329 325 324 320 309 309 310 309 307 305 303 302 302 301 301 300 299 298 297 297 296 297 296 295 295 295 295 295
324 324 323 322 323 325 327 333 335 335 334 332 331 330 327 326 324 319 309 309 310 310 309 307 306 304 301 300 298 297 297 297 297 297 297 296 296 295 295 294 294 294 294
324 323 322 322 323 327 330 335 336 334 332 331 329 328 325 322 319 310 309 310 310 309 308 308 306 303 300 298 296 295 294 294 293 295 295 295 295 294 294 294 294 294 294
323 322 321 322 325 328 333 336 336 334 331 330 330 327 323 317 310 309 310 310 310 309 308 307 305 302 299 297 295 294 293 292 291 291 292 292 292 292 293 294 293 293 292
323 322 321 321 324 331 334 336 335 333 331 330 327 322 320 313 309 309 310 310 308 308 307 306 303 300 297 295 294 293 293 292 291 289 290 291 291 292 292 291 292 291 291
323 322 321 321 322 330 335 335 334 332 330 327 324 321 318 309 308 309 309 308 307 307 306 304 301 298 295 294 293 292 291 290 290 289 288 289 288 289 289 290 291 290 289

GFSSE_850_thetae_024.txt.gz
Theta_e
328 337 344 340 338 334 331 329 325 325 324 322 321 329 331 332 329 328 328 327 327 326 327 332 335 329 330 333 331 330 328 327 325 323 318 315 315 314 314 317 322 327 321
327 343 341 341 337 333 334 330 325 328 327 321 318 324 328 330 330 328 328 322 320 322 324 330 333 336 335 334 333 330 327 326 322 316 315 314 312 313 315 316 315 326 315
328 343 343 340 339 337 335 331 329 329 321 323 327 326 328 329 328 328 326 315 314 315 321 319 329 330 331 330 330 328 325 319 315 313 312 320 320 315 315 317 320 318 319
334 343 344 342 340 338 334 331 330 325 318 331 334 330 328 325 324 321 320 316 313 312 312 315 320 320 328 327 324 319 314 313 313 313 322 320 319 314 314 315 324 324 325
335 342 342 341 340 338 335 331 330 322 317 332 334 328 322 321 325 326 325 320 314 314 312 312 313 312 312 312 313 316 317 317 319 324 327 323 320 318 311 315 325 328 329
340 341 336 341 339 338 334 332 329 320 316 326 332 326 327 328 329 329 328 326 318 316 317 316 316 316 317 318 319 321 326 321 324 329 328 327 322 321 315 312 317 323 324
339 342 333 341 340 339 332 330 326 320 317 318 326 328 328 329 330 330 328 327 319 318 318 318 319 320 323 324 326 325 325 326 327 330 329 328 327 325 325 325 322 321 322
336 339 339 341 342 338 332 328 326 321 315 317 327 329 329 329 330 330 329 327 319 318 320 322 325 326 327 327 328 328 328 328 330 331 331 330 328 327 327 327 328 329 327
336 329 336 341 341 338 332 330 327 323 316 315 325 329 329 329 330 331 328 327 318 320 324 326 326 327 327 328 328 328 327 327 327 329 327 328 327 327 327 327 329 329 331
328 331 332 340 338 337 334 331 329 325 319 315 320 325 329 329 329 328 326 321 320 325 326 327 327 329 329 328 327 326 326 326 328 327 328 326 325 324 325 325 323 326 328
332 330 332 339 339 338 339 331 330 327 323 318 317 318 322 328 328 328 321 320 325 327 327 328 328 328 326 325 326 325 326 325 323 321 322 319 319 320 322 322 323 322 322
334 334 335 338 340 340 337 334 332 330 326 324 319 316 320 322 326 321 319 325 327 328 329 328 327 326 325 325 325 325 324 320 316 314 316 313 314 317 318 319 318 318 318
338 337 333 334 338 339 337 336 335 334 333 332 326 318 316 319 319 323 326 328 329 328 327 326 325 325 325 325 325 321 314 311 311 311 311 310 310 312 316 315 314 315 316
336 336 331 332 333 335 337 335 337 334 334 333 329 322 322 325 323 328 330 329 326 326 326 325 325 325 325 324 314 311 311 310 308 307 306 306 306 307 310 312 310 310 312
332 330 329 330 330 332 335 337 337 335 334 334 330 323 327 328 329 328 328 326 326 326 324 324 323 323 321 311 310 308 307 305 304 304 304 304 304 305 306 307 307 308 309
329 331 332 327 328 330 332 334 336 335 335 334 331 325 327 329 328 327 326 326 325 325 324 324 324 314 309 308 307 306 305 304 303 303 302 303 303 304 305 305 305 305 306
324 325 328 327 328 329 333 337 337 335 335 334 332 330 328 328 328 327 326 326 326 325 324 324 310 308 308 307 305 304 303 302 302 301 302 302 302 302 300 298 298 298 298
324 324 323 323 323 327 336 337 338 336 335 334 333 330 330 328 327 327 327 326 325 324 322 309 309 308 305 304 303 302 302 302 301 300 301 300 299 298 297 297 297 297 296
323 324 324 324 323 324 332 337 338 336 336 334 332 330 329 328 328 328 327 325 324 320 309 309 308 306 304 303 302 302 302 301 300 300 300 300 301 300 298 298 297 296 296
321 322 324 324 324 323 330 336 336 335 335 334 332 331 329 329 329 328 326 324 323 309 309 309 308 307 305 303 302 301 300 300 299 299 299 301 297 296 297 297 296 296 296
321 320 324 324 324 323 328 330 334 335 336 335 333 332 330 329 330 326 324 323 310 309 310 309 309 307 306 303 301 300 299 298 297 298 297 296 296 296 296 296 295 295 295
322 323 324 324 324 323 327 326 332 334 334 335 334 332 330 330 328 323 323 311 309 311 310 310 309 307 306 303 299 299 300 299 297 297 297 296 296 295 295 295 295 295 295
321 322 323 324 324 323 324 329 332 333 334 335 334 331 330 326 324 319 312 309 310 311 310 310 309 307 303 301 298 296 298 299 296 297 296 295 295 294 294 295 295 295 294
320 320 323 324 323 324 324 326 329 332 334 334 332 331 327 324 315 312 309 310 311 311 310 309 308 306 303 299 296 296 295 294 295 295 295 295 294 293 293 293 294 294 293
318 319 322 323 323 324 324 327 332 334 333 332 330 329 326 318 310 309 309 310 311 310 309 308 307 304 301 298 296 294 293 293 293 293 294 294 293 293 292 291 290 290 290
318 318 322 322 322 324 326 329 333 334 334 331 328 326 324 314 309 308 309 310 310 309 308 307 305 303 300 296 294 293 293 292 292 292 292 292 292 292 292 291 290 290 289

GFSSE_850_thetae_027.txt.gz
Theta_e
340 335 342 339 336 332 331 332 332 332 331 328 329 332 333 333 329 328 328 328 328 328 327 331 333 329 335 333 332 331 330 328 326 325 322 315 313 312 314 315 317 329 330
341 337 342 339 336 332 329 325 324 326 326 323 319 325 329 332 330 328 328 320 320 326 325 327 337 335 336 334 333 330 329 325 322 315 314 313 319 313 313 315 315 327 325
344 346 339 340 334 333 332 329 327 328 319 316 322 331 331 330 329 327 324 315 313 318 324 325 331 331 332 331 331 329 323 318 313 312 315 322 325 319 315 316 318 319 320
345 346 343 341 337 334 333 331 329 324 324 331 332 328 328 327 326 320 317 313 312 312 313 315 323 325 328 326 326 320 313 312 314 318 327 325 323 320 312 314 316 328 326
344 345 345 340 340 338 334 332 329 319 324 334 333 329 321 321 323 324 322 316 314 312 311 312 313 312 313 314 313 314 316 318 321 328 330 330 322 327 314 311 315 325 329
344 345 345 342 340 338 336 332 328 319 319 334 331 320 324 328 329 327 326 321 316 316 316 315 316 316 317 318 319 319 320 323 326 331 331 331 330 325 323 318 314 315 317
343 346 340 341 341 338 335 331 326 318 315 329 330 325 327 329 330 329 328 325 318 318 318 318 319 322 323 325 326 327 327 327 328 331 331 331 331 327 326 326 326 327 326
342 344 341 340 340 339 333 329 325 319 315 320 326 328 329 330 330 330 328 327 319 319 320 324 325 326 327 327 328 328 328 328 327 330 330 329 330 327 327 328 328 329 330
341 342 343 342 341 339 334 329 327 322 315 321 326 329 330 329 330 330 329 327 318 320 324 326 326 327 328 328 328 327 326 325 327 330 328 329 326 323 323 326 326 325 327
340 340 342 345 341 338 335 331 328 324 316 316 326 327 329 329 330 331 328 324 318 324 326 326 328 329 328 327 327 326 325 324 326 327 327 325 321 321 321 322 321 321 321
340 340 340 343 343 339 338 331 330 326 319 316 320 324 328 330 330 329 327 319 323 325 326 328 328 328 326 324 324 325 323 322 321 321 321 317 314 316 320 318 317 319 321
339 340 340 341 342 341 340 337 332 330 325 320 317 318 322 331 330 330 321 320 325 326 327 327 326 326 324 322 321 321 318 315 315 314 315 312 311 315 320 315 314 317 318
339 340 341 341 341 340 340 340 336 335 333 331 329 326 327 327 325 322 320 323 327 327 327 326 325 324 325 325 325 315 312 311 311 311 312 309 308 312 316 312 311 314 314
337 339 340 341 342 342 341 338 337 336 334 334 332 330 327 325 325 328 329 330 328 326 326 325 323 324 324 323 312 311 309 308 307 308 309 306 305 306 308 307 307 308 308
334 337 339 340 342 342 341 339 338 336 335 335 334 330 326 328 328 329 330 326 326 326 326 324 324 323 322 311 309 308 306 306 305 305 306 305 303 304 305 305 305 306 307
332 334 337 339 341 341 340 340 338 337 336 335 334 331 329 330 330 329 326 326 326 325 325 324 324 322 310 308 307 306 304 304 303 303 304 304 303 303 304 304 304 302 301
326 330 332 337 339 341 340 340 339 338 337 335 335 331 330 331 330 327 327 326 326 325 325 324 321 309 308 306 304 303 303 303 302 302 302 303 302 302 301 299 298 297 297
327 326 326 332 337 339 340 340 339 338 336 335 335 332 332 330 328 327 327 327 326 325 324 322 309 308 307 305 303 303 302 302 302 301 301 300 300 299 300 300 299 299 298
326 326 326 326 328 334 337 338 338 338 336 335 334 333 333 329 328 327 327 327 325 324 323 310 309 308 307 305 304 302 302 302 302 301 300 300 300 300 299 297 298 297 298
323 325 325 325 324 327 333 337 338 337 336 336 335 334 330 329 328 327 328 326 324 323 310 310 309 309 308 307 305 303 302 301 301 300 301 300 298 298 297 296 296 296 296
322 323 324 325 325 326 330 334 337 336 335 336 334 332 330 329 328 328 328 325 323 313 309 310 310 310 309 307 305 303 302 301 300 301 301 299 298 297 297 296 295 295 295
322 323 324 324 325 327 330 333 337 336 335 335 332 332 331 329 329 329 327 323 318 309 311 311 311 310 309 307 303 301 302 301 300 299 299 298 297 296 296 295 295 296 295
321 322 323 324 325 328 331 335 336 335 335 332 332 333 332 330 329 329 324 322 310 310 311 311 311 310 307 306 303 300 300 301 299 299 298 298 296 296 295 295 295 295 294
318 321 322 324 326 329 332 334 330 327 329 330 331 333 332 330 329 326 320 312 309 311 311 310 310 309 307 304 301 299 297 296 296 297 297 297 297 296 295 294 294 294 293
316 319 322 324 328 331 331 331 329 328 325 330 332 331 331 329 327 326 313 308 310 311 310 310 310 308 306 303 300 297 295 295 295 295 295 295 295 295 294 294 293 292 292
314 317 322 324 329 331 330 329 328 324 324 330 331 330 329 327 325 324 308 308 310 310 310 309 308 307 305 302 298 296 295 294 294 294 294 293 293 293 293 293 292 292 291

GFSSE_850_thetae_030.txt.gz
Theta_e
339 332 334 329 330 331 330 332 333 334 334 334 334 334 334 333 330 329 327 326 328 328 326 334 329 332 335 334 331 329 330 329 326 324 320 315 313 311 311 313 316 329 329
333 333 334 327 329 326 325 323 323 322 322 322 322 328 330 332 330 327 326 314 320 326 324 331 335 336 336 335 331 330 328 323 317 312 312 319 321 317 314 314 314 322 325
335 334 332 327 328 326 324 324 326 324 318 316 329 329 331 331 329 327 315 312 315 323 323 325 333 333 332 330 330 328 321 313 312 318 323 322 322 321 314 314 314 321 318
341 335 333 328 327 329 329 328 327 319 323 326 334 329 329 328 327 318 312 311 311 312 315 317 327 331 330 325 322 316 312 314 321 327 328 325 325 326 317 311 314 325 327
348 335 333 334 330 331 329 328 325 319 334 334 331 326 319 321 319 318 316 314 313 311 312 313 314 312 312 312 313 315 317 320 328 329 329 328 326 325 323 315 313 316 325
346 345 338 336 335 336 331 328 323 317 333 334 325 319 324 326 326 324 320 316 316 316 315 315 315 316 317 319 319 321 323 325 330 330 330 330 330 327 325 325 325 324 322
345 346 345 337 339 337 334 329 322 316 329 333 321 322 327 327 328 327 324 319 317 317 318 318 319 321 323 325 326 327 327 327 330 329 329 328 329 328 326 328 328 328 330
344 346 344 337 339 336 333 327 321 316 315 329 327 325 326 328 330 329 326 320 317 318 319 322 324 325 326 328 328 327 326 324 327 329 328 328 327 326 323 327 327 327 327
344 344 337 337 333 335 329 325 323 317 315 321 324 326 328 330 329 328 326 323 317 320 322 324 325 327 328 328 327 326 325 324 328 328 327 328 327 323 321 320 325 327 326
343 343 338 337 334 336 331 326 323 320 315 320 324 327 329 330 331 330 327 322 317 322 324 325 327 327 327 324 324 324 324 324 324 324 325 325 320 316 316 315 317 319 318
341 342 343 337 339 338 335 328 325 322 316 316 322 326 328 329 329 329 325 319 320 323 325 326 327 326 325 323 322 323 320 320 318 320 318 317 313 318 320 314 315 319 317
340 340 342 343 340 339 337 330 328 325 320 316 317 322 326 330 330 329 327 318 322 325 326 326 326 325 324 323 324 323 316 312 313 313 312 313 311 315 317 313 313 314 314
339 340 339 342 342 340 338 337 332 327 324 319 317 317 322 331 331 329 322 319 324 326 326 326 325 325 324 324 324 315 311 310 310 310 310 309 308 313 312 309 310 310 309
339 339 340 340 341 341 338 339 335 333 332 330 328 325 321 328 325 326 325 329 329 328 326 325 323 324 323 322 312 310 308 306 306 306 306 306 305 305 307 306 306 306 306
337 338 339 341 341 341 339 337 336 336 335 334 334 330 328 325 323 328 330 329 329 326 325 324 324 324 323 312 309 308 306 305 305 304 304 304 304 303 304 304 304 305 305
332 336 338 340 342 341 341 339 335 337 335 335 334 332 327 326 328 329 330 329 326 325 325 324 324 324 313 309 307 305 304 303 303 303 303 303 303 303 303 303 303 301 298
328 332 336 339 340 341 342 340 338 338 336 335 334 334 328 329 329 330 330 325 325 325 325 325 324 314 309 307 305 304 304 303 302 302 302 302 302 302 301 300 299 298 299
327 327 332 335 338 339 340 340 340 338 337 335 334 334 330 330 330 330 326 326 326 325 324 324 320 309 308 308 306 304 303 303 302 302 302 301 301 301 301 301 300 298 298
324 327 327 332 335 336 340 340 338 339 337 335 334 334 331 331 330 328 327 326 326 325 324 323 310 309 309 309 307 305 304 302 301 302 301 301 300 300 300 298 297 297 298
323 325 327 326 332 335 337 339 339 339 337 335 334 334 332 331 329 328 327 327 326 325 323 311 310 310 310 310 308 306 304 302 301 301 300 301 300 299 298 297 297 297 297
321 322 323 326 326 327 335 338 339 338 336 335 334 333 332 332 329 328 327 327 326 324 318 310 311 311 311 310 309 305 303 302 302 300 300 300 299 298 298 297 297 297 296
322 322 321 324 326 326 325 334 337 337 337 336 334 334 333 332 329 328 328 328 326 324 310 311 311 311 311 310 308 304 302 302 301 301 300 299 298 298 297 297 297 296 296
320 321 322 322 324 325 325 327 335 338 336 336 334 334 334 332 329 328 328 328 325 319 310 311 311 311 311 310 308 305 301 301 301 299 299 298 298 297 297 296 296 296 295
317 319 320 322 323 324 325 328 333 337 335 335 334 333 333 331 330 328 329 328 323 313 310 311 311 311 310 310 308 304 300 299 298 297 298 298 297 296 296 296 295 295 294
315 316 318 320 323 323 326 329 334 335 333 332 333 332 331 330 329 328 329 326 321 310 310 311 311 310 309 309 306 303 299 297 296 296 296 296 295 295 295 295 294 293 293
315 314 315 319 321 323 327 331 335 333 332 333 332 330 329 328 327 327 327 323 316 310 310 310 310 310 309 307 305 302 298 296 295 295 294 295 294 295 294 294 293 292 292

GFSSE_850_thetae_033.txt.gz
Theta_e
343 337 330 325 325 327 330 332 334 334 335 335 336 335 334 333 331 329 327 326 328 327 327 329 328 334 336 332 329 328 328 328 326 321 317 315 315 313 312 312 314 319 325
339 336 327 323 325 326 328 329 330 330 330 332 334 334 331 330 329 326 315 319 327 324 330 334 335 336 333 331 329 329 324 317 312 313 314 316 317 317 313 313 314 316 318
333 338 329 325 322 322 320 321 321 321 321 320 323 329 333 331 329 321 312 314 321 323 323 332 331 331 330 328 330 323 313 312 317 322 322 318 318 322 314 311 313 323 319
335 336 329 326 322 320 321 321 318 317 316 334 333 331 330 328 326 312 311 311 312 317 320 331 330 329 330 328 315 311 314 320 325 326 326 325 322 322 319 311 312 318 327
336 334 327 325 324 323 323 321 317 327 334 333 329 325 323 319 314 313 313 312 311 311 313 315 322 319 312 312 315 317 319 325 327 329 329 328 325 326 323 322 316 316 320
341 334 330 326 325 324 325 321 316 329 330 331 321 316 317 318 317 316 315 315 314 313 312 313 314 316 317 318 321 323 325 328 330 329 329 328 328 328 326 326 327 328 329
344 335 333 327 328 326 325 321 317 324 331 326 317 323 323 321 322 319 316 316 316 316 316 317 319 321 324 325 326 327 327 328 329 328 328 327 327 326 325 328 329 329 330
344 343 342 333 328 329 327 321 317 316 324 326 318 324 324 328 327 322 318 316 317 318 319 321 323 324 326 327 327 325 324 326 329 328 327 326 326 326 323 326 326 328 328
345 345 345 338 333 332 327 322 318 315 318 325 324 324 327 329 329 324 321 317 317 319 322 322 324 327 327 326 325 324 324 327 327 327 326 327 327 321 317 319 325 323 320
344 344 343 340 334 331 328 323 321 317 316 318 321 325 328 329 328 327 321 317 318 321 322 323 325 326 325 323 324 323 323 324 323 323 325 324 322 315 316 316 317 322 319
343 342 340 336 334 333 330 325 323 319 316 317 321 326 328 330 331 330 324 318 319 322 324 324 325 325 324 322 323 322 320 319 317 318 318 317 316 319 317 316 320 319 317
342 342 340 340 335 335 335 329 325 322 317 316 321 323 326 327 328 328 325 318 321 323 325 325 325 324 324 324 324 324 315 312 312 312 312 312 312 318 314 314 314 313 312
340 340 341 341 341 337 333 332 328 325 320 317 317 322 325 328 326 327 324 318 323 324 325 325 324 324 324 323 323 314 311 310 309 309 308 308 308 311 311 309 310 307 307
339 339 339 340 342 340 340 331 329 327 324 320 317 318 324 327 330 327 325 319 324 325 325 324 324 323 323 321 313 310 308 307 307 306 305 305 305 305 305 305 305 305 305
339 339 339 339 341 341 340 339 332 331 330 327 325 321 320 324 327 325 325 329 328 328 325 324 324 323 323 315 310 308 306 305 305 304 304 304 304 304 303 303 303 303 302
336 338 339 339 338 340 340 340 337 332 334 334 332 332 325 325 323 324 328 329 329 327 325 325 323 323 322 310 308 306 304 304 303 303 303 303 303 303 302 302 302 300 298
328 334 338 339 339 339 339 340 337 334 336 335 334 333 332 326 325 327 328 329 329 325 325 325 324 324 312 309 307 306 305 303 303 302 302 302 302 302 301 301 301 301 300
325 327 334 338 339 339 339 340 338 334 336 335 334 333 333 327 328 328 329 329 327 325 325 324 324 322 309 309 308 306 305 304 302 302 302 302 301 301 301 300 300 298 298
325 324 327 335 337 337 336 338 339 337 336 336 335 334 333 330 328 329 329 329 326 325 324 324 323 311 310 310 309 307 305 303 302 302 302 301 301 300 299 299 298 298 298
320 323 323 329 332 334 335 335 337 335 338 337 335 334 334 332 329 330 330 327 326 326 325 324 318 310 311 311 310 307 304 303 302 301 301 301 300 300 299 299 298 298 297
320 320 321 323 329 333 335 336 336 338 337 336 335 334 333 333 330 330 328 327 326 326 325 323 310 311 312 311 310 308 305 304 303 302 300 300 300 299 298 298 297 297 297
321 320 320 322 325 329 334 334 332 333 336 336 335 334 333 333 331 331 329 327 327 326 324 319 310 312 312 312 311 308 305 304 303 302 301 299 299 298 298 297 297 297 297
319 321 321 321 321 327 330 333 331 331 334 335 335 334 333 333 332 332 329 327 327 326 324 314 311 312 312 312 311 309 305 303 302 300 299 299 298 298 297 297 297 296 295
317 318 319 320 321 322 327 332 330 330 333 335 333 334 333 332 332 332 329 327 327 326 323 311 311 312 312 312 311 309 307 304 301 300 299 298 298 297 297 296 296 295 294
315 315 316 318 319 320 322 325 325 330 332 332 332 333 332 331 332 332 328 327 327 325 319 310 311 312 311 311 310 309 306 303 300 298 298 298 298 297 296 296 295 294 293
314 314 314 314 316 318 320 323 325 325 329 331 333 332 332 331 331 331 328 327 327 323 318 310 311 311 310 310 309 308 305 302 298 297 295 296 295 296 296 295 294 293 291

GFSSE_850_thetae_036.txt.gz
Theta_e
343 335 333 331 330 330 331 332 334 336 337 337 335 334 333 332 331 329 327 327 327 326 330 322 330 337 333 330 329 328 327 327 325 323 321 319 317 314 312 312 313 316 321
339 335 331 330 328 327 330 332 333 334 336 335 335 334 332 331 329 323 314 327 325 332 333 335 335 336 331 329 328 324 323 318 315 313 313 314 315 314 311 313 314 315 316
339 334 328 328 327 326 325 324 323 324 327 333 334 330 328 330 328 311 312 325 325 331 333 334 333 331 329 325 329 317 311 313 315 317 317 316 319 317 312 311 314 327 319
335 333 326 325 323 322 320 318 317 317 317 319 325 331 331 328 317 310 310 317 321 325 331 330 330 330 328 327 312 312 316 320 322 323 323 321 321 322 318 312 313 318 325
335 330 326 323 321 319 319 318 317 319 327 335 332 329 325 318 311 311 310 311 313 320 328 330 329 328 317 313 315 319 324 325 327 327 326 327 326 326 324 324 320 318 321
336 330 326 325 323 322 320 317 321 324 329 329 323 317 314 313 313 313 313 311 311 312 312 314 313 313 316 318 321 323 327 329 328 329 328 328 327 329 326 328 329 329 331
335 331 326 327 326 324 321 317 321 323 326 322 315 315 315 315 315 315 315 315 314 314 314 315 318 321 323 325 326 326 328 329 328 327 327 326 326 325 324 327 328 328 328
337 334 329 329 329 326 323 318 317 319 323 317 319 320 319 319 318 316 316 316 317 317 319 321 322 324 326 327 326 323 324 326 326 326 326 326 325 326 322 324 327 329 329
342 334 335 331 332 330 326 320 316 318 320 319 320 323 324 328 323 318 317 317 318 320 322 323 325 327 326 325 324 324 326 327 327 327 326 326 326 325 323 322 323 321 319
344 344 343 340 333 333 328 323 317 316 318 321 321 323 327 329 327 322 319 317 319 321 323 325 326 325 323 323 323 323 323 323 323 322 324 324 322 320 318 318 323 323 324
345 345 343 343 337 333 329 325 320 316 316 319 323 324 328 329 327 325 321 317 320 322 323 324 325 324 323 322 322 322 320 318 317 317 318 317 316 319 317 322 321 321 320
344 343 343 341 339 333 331 326 323 319 316 317 321 323 328 329 329 328 322 317 321 323 324 325 324 323 323 323 324 323 319 313 312 312 312 312 315 316 314 317 315 311 310
342 342 341 340 337 334 333 330 325 322 318 317 319 323 325 326 326 326 324 318 321 323 325 324 324 324 324 323 322 318 311 311 309 308 308 308 308 310 310 309 308 306 305
339 340 341 339 339 339 335 334 331 325 322 317 318 321 324 324 324 324 324 318 319 323 324 324 323 322 322 322 317 310 309 308 307 306 306 305 305 305 306 305 305 304 304
338 338 338 338 339 339 340 337 332 327 325 322 317 318 321 322 324 326 326 322 320 324 325 324 323 323 323 321 311 308 307 305 304 304 304 304 304 304 304 303 303 303 301
338 337 337 338 338 338 339 339 338 334 328 326 322 318 317 319 322 325 327 324 327 327 326 324 324 323 323 319 309 307 305 304 303 303 303 303 303 303 302 302 301 299 298
330 338 338 338 338 337 337 338 338 337 334 330 330 328 325 320 321 324 323 325 328 328 326 324 324 323 323 312 308 307 305 304 303 303 303 302 302 302 301 301 301 301 299
323 324 335 339 338 337 337 337 337 337 336 331 333 332 331 330 326 323 323 326 328 328 325 325 324 324 323 309 308 307 305 304 303 303 302 302 302 301 301 300 300 299 298
324 323 323 332 339 337 337 338 337 337 337 333 334 334 332 332 328 325 326 327 328 328 325 324 324 323 319 309 309 309 306 305 303 302 302 301 301 301 300 299 299 298 298
323 323 322 322 329 336 335 335 337 336 337 332 333 334 334 333 331 327 328 328 329 328 325 324 324 323 310 310 311 309 307 304 303 302 302 301 301 300 300 299 298 298 298
319 319 320 319 320 328 335 334 334 335 336 335 336 335 335 334 333 331 328 328 329 328 325 325 323 318 310 311 311 309 306 305 303 302 301 301 300 299 299 298 298 298 298
320 320 319 319 319 321 331 332 332 330 333 334 335 336 335 334 333 332 330 329 329 328 326 325 323 312 311 312 311 310 306 305 304 303 302 301 300 299 298 298 298 297 297
319 320 319 320 319 319 321 330 331 333 331 332 333 335 334 334 333 331 330 329 329 327 326 326 323 311 312 312 312 311 309 307 305 303 301 300 299 298 298 297 297 296 296
317 317 318 319 320 321 321 327 331 332 332 330 329 330 334 333 331 330 331 330 330 328 326 325 322 311 312 312 312 311 310 309 306 302 301 299 298 298 298 296 296 295 295
315 315 316 317 318 318 320 321 325 331 331 330 329 328 329 331 331 331 331 330 331 329 326 325 322 311 312 312 312 311 310 309 307 304 301 300 299 297 297 296 296 295 294
314 314 314 315 315 316 317 319 320 322 330 331 331 329 328 330 330 330 331 330 330 329 327 326 320 310 311 311 311 310 309 308 306 303 300 299 298 298 297 296 295 294 293

GFSSE_850_thetae_039.txt.gz
Theta_e
338 342 340 338 337 336 339 336 338 339 338 337 336 335 333 331 330 329 328 327 326 324 324 321 335 334 330 329 328 327 327 326 326 324 322 320 318 315 312 311 312 314 317
334 337 333 340 339 330 329 331 334 337 336 334 336 334 331 330 328 323 317 327 324 329 326 332 337 333 330 328 327 323 325 322 319 316 315 314 315 313 310 312 313 316 315
336 333 327 330 334 333 332 334 336 337 337 334 334 333 328 328 327 311 322 326 329 335 337 337 336 331 329 323 327 317 312 313 314 316 315 317 317 315 311 311 316 329 321
336 331 326 326 329 329 329 330 329 328 333 335 330 325 328 328 315 310 320 329 332 334 334 333 331 330 327 325 312 311 315 320 320 322 322 320 321 321 318 313 314 319 325
336 330 323 323 326 326 325 324 321 320 320 320 326 329 327 319 310 310 313 324 328 330 330 329 329 326 323 312 315 319 322 324 323 324 326 324 326 327 324 323 322 324 324
334 331 322 321 323 322 320 319 318 317 324 331 327 322 315 311 311 310 310 311 318 326 329 329 327 313 314 316 319 323 326 327 327 328 327 326 328 327 328 329 330 331 332
336 332 324 321 321 320 321 317 319 324 331 325 317 313 312 312 313 313 312 311 311 312 312 313 315 318 322 324 325 326 327 327 327 327 326 326 325 323 324 325 326 327 327
336 332 326 323 322 323 321 317 323 324 325 317 314 314 313 314 314 314 315 315 315 315 316 318 322 324 326 326 325 324 326 327 326 325 325 325 324 325 322 325 328 329 329
337 333 326 325 326 325 323 318 322 322 323 316 318 317 319 317 316 315 316 316 317 318 321 323 324 326 326 325 324 323 324 325 326 326 325 325 325 324 321 320 321 319 318
342 337 330 327 328 328 325 320 319 321 324 317 320 321 323 326 318 317 316 317 319 321 322 325 326 325 323 323 323 323 323 323 323 322 323 323 321 320 318 320 322 323 316
343 341 336 336 332 329 327 323 318 318 324 320 320 322 325 327 323 319 317 317 320 322 323 325 325 324 322 322 322 322 320 319 318 317 317 317 318 316 320 321 320 320 316
343 341 342 341 341 336 331 326 321 318 320 322 321 323 326 327 325 322 319 317 320 322 323 324 324 323 322 322 323 323 322 315 312 312 312 313 318 314 318 316 314 312 309
341 341 340 341 341 339 335 329 324 321 317 319 322 323 325 328 328 327 323 317 320 323 323 324 323 323 323 323 322 321 313 310 309 308 308 312 311 309 313 309 307 306 305
340 340 340 340 340 338 336 331 328 324 321 317 319 321 324 326 327 328 325 319 320 322 323 324 323 323 322 322 321 314 310 308 307 306 306 305 305 306 306 305 304 304 304
340 340 340 339 339 338 338 336 332 330 325 321 317 319 323 324 324 325 326 323 319 322 323 324 323 322 322 322 319 310 308 306 305 304 304 304 304 304 304 303 303 303 301
338 339 339 338 338 338 338 338 337 334 330 325 321 317 319 322 324 325 326 325 320 322 325 324 323 323 322 322 318 309 307 305 304 303 303 303 303 303 302 302 302 300 300
338 338 337 337 338 338 337 338 339 337 336 328 325 323 318 319 321 324 327 327 324 326 327 325 323 323 323 322 313 308 307 305 304 303 303 302 302 302 301 301 301 300 299
331 336 336 337 338 338 338 338 337 335 336 337 334 327 323 319 318 322 325 326 325 328 327 326 324 323 323 322 310 308 307 306 304 303 302 302 302 301 301 300 300 299 298
322 322 321 323 330 337 338 338 337 336 335 335 336 330 330 328 327 322 324 324 324 328 328 327 324 323 323 321 309 308 307 306 304 303 302 302 301 301 300 300 299 299 298
319 321 321 320 320 322 334 338 337 336 336 336 336 333 331 331 331 330 326 324 326 327 328 327 324 323 323 318 309 309 308 306 304 303 302 302 301 301 300 299 299 298 298
319 318 318 319 319 319 320 329 338 334 334 336 336 335 332 333 332 331 328 325 327 327 328 327 325 323 322 314 310 310 308 306 304 303 303 302 301 301 300 299 299 298 298
319 319 319 318 318 319 319 320 329 333 333 333 333 333 333 333 332 331 331 329 328 328 328 327 325 324 323 311 310 310 308 306 305 304 303 302 301 301 299 299 298 298 297
317 318 319 319 319 319 319 319 323 331 333 332 332 332 334 332 333 331 330 330 330 328 328 328 326 325 323 311 311 311 309 309 306 305 304 302 301 300 299 298 298 297 297
313 314 316 317 318 318 318 318 319 322 329 331 330 329 331 333 332 331 330 329 330 329 329 329 327 325 323 311 311 312 311 310 308 306 304 302 301 300 299 298 297 296 296
314 314 314 315 316 316 316 319 320 322 324 327 331 330 330 329 330 331 330 328 329 329 329 329 327 326 324 313 311 312 311 310 309 308 305 303 301 299 298 297 297 296 296
314 314 314 314 315 315 315 316 319 323 325 327 331 330 330 329 328 329 331 329 329 329 329 329 327 326 324 316 311 311 311 311 310 308 306 303 301 299 298 297 296 296 295

GFSSE_850_thetae_042.txt.gz
Theta_e
333 340 344 344 339 337 338 338 338 340 341 340 339 339 337 334 331 328 328 328 325 324 324 326 335 330 329 328 326 326 328 327 326 327 326 323 319 316 312 312 313 313 315
330 340 345 340 337 338 338 340 341 339 338 336 334 335 333 330 329 325 320 324 321 324 323 335 336 332 328 325 327 324 325 324 322 320 317 315 314 311 311 312 317 315 314
331 334 340 337 336 341 341 339 337 337 336 335 336 333 327 326 325 311 327 327 332 334 335 338 336 330 327 320 324 316 317 316 314 314 314 316 316 313 311 313 321 323 322
333 330 330 335 338 340 341 344 338 337 336 335 335 335 325 326 313 315 328 330 335 337 337 338 331 328 325 320 312 311 313 316 318 320 319 320 321 321 318 316 319 321 323
335 329 325 327 328 342 343 335 331 335 335 334 333 328 326 319 310 312 324 325 335 333 333 330 327 326 320 312 313 316 319 321 322 324 324 324 327 328 326 325 327 329 330
336 330 324 323 326 326 327 325 324 329 333 332 328 326 318 311 310 310 314 319 325 328 327 327 327 315 313 316 319 321 324 325 327 327 325 326 326 326 331 327 330 331 332
334 331 325 322 322 323 323 320 319 319 320 329 325 318 311 312 311 310 310 314 323 327 326 321 313 315 318 321 323 324 326 326 326 326 324 324 326 324 325 326 327 329 330
335 332 326 322 321 320 320 319 318 318 337 328 318 313 312 312 313 313 312 311 311 312 313 316 320 323 324 325 325 325 326 327 325 324 324 324 327 323 322 324 328 328 328
337 333 327 322 321 321 322 318 320 321 329 323 315 314 314 314 314 315 315 315 315 316 318 321 323 325 326 325 324 323 324 326 326 325 325 324 326 322 320 317 318 317 317
338 335 329 324 322 323 322 318 322 322 325 319 317 317 319 316 316 315 316 317 317 319 321 322 325 325 323 322 322 323 323 323 323 322 322 321 322 319 321 321 322 320 318
340 336 333 326 324 324 324 321 319 323 324 319 320 320 323 325 318 317 316 317 319 321 322 325 325 323 322 321 321 321 320 319 317 316 316 318 317 320 321 319 319 317 313
341 341 336 331 329 328 327 325 321 319 319 323 319 322 324 326 324 320 318 317 320 322 326 327 324 323 322 321 322 322 322 316 312 312 311 314 315 317 318 312 311 310 307
339 340 340 338 338 338 335 331 325 321 318 320 321 320 323 326 326 325 321 318 320 322 323 324 324 323 322 322 322 322 317 311 310 308 308 314 310 311 313 307 306 305 304
334 337 340 340 340 340 339 337 331 325 321 318 320 322 323 325 327 327 325 321 318 322 323 324 324 323 322 322 321 319 311 309 307 306 306 306 305 306 306 305 304 303 303
338 337 338 340 340 340 339 337 334 330 326 322 318 318 322 323 326 327 326 323 318 321 322 324 323 323 322 321 321 317 310 308 305 304 304 304 304 304 305 304 303 302 301
337 337 338 339 339 339 339 338 336 335 332 328 324 319 319 322 324 325 326 325 323 319 322 324 324 323 322 321 322 317 309 306 305 304 303 303 303 303 303 302 302 300 300
337 337 337 337 339 338 338 338 338 337 336 335 332 325 319 319 322 324 325 325 324 321 321 324 324 323 322 321 322 316 308 306 305 304 303 303 302 302 302 301 301 300 300
326 337 337 337 338 338 338 338 338 337 334 336 335 330 325 320 319 322 324 326 327 324 324 326 326 323 322 322 322 315 308 306 305 304 303 302 302 302 301 301 300 300 299
319 321 331 336 337 337 337 338 337 337 336 336 335 335 333 329 323 318 322 324 327 326 325 327 327 324 323 322 322 314 308 307 306 304 303 302 302 301 301 300 300 299 299
318 318 319 320 321 322 323 328 335 336 336 336 335 336 335 333 328 322 319 321 325 325 324 327 327 325 323 322 321 312 309 308 306 304 303 302 302 301 301 300 299 299 299
318 318 319 319 319 319 319 321 323 330 335 336 335 333 335 334 332 330 329 324 325 324 323 326 327 326 324 322 320 310 309 308 307 304 303 303 302 301 301 301 300 299 299
317 317 318 319 319 318 318 319 319 320 323 328 333 332 331 333 333 332 330 329 328 325 325 326 327 327 324 321 319 310 308 308 308 305 304 303 302 302 302 301 300 299 299
313 314 315 317 318 319 318 318 318 320 321 323 327 331 329 332 331 331 331 330 329 326 326 327 327 328 326 323 322 311 309 310 308 307 305 304 303 302 302 301 300 299 299
313 314 313 314 316 317 317 317 317 319 319 320 320 323 330 331 329 330 332 331 328 329 327 327 328 327 326 324 322 315 310 310 309 307 306 305 304 302 302 301 300 300 299
313 313 313 313 313 314 316 317 317 318 318 321 320 322 328 331 329 328 328 330 328 328 328 328 328 327 327 326 325 322 311 311 310 309 308 308 304 303 302 301 300 299 298
314 313 313 313 313 314 315 315 316 316 317 320 322 324 325 330 330 329 329 327 327 327 329 328 328 327 326 325 323 319 312 311 311 310 309 308 307 304 302 300 299 297 296

GFSSE_850_thetae_045.txt.gz
Theta_e
333 337 344 344 338 336 337 339 339 337 340 342 342 341 340 338 335 331 328 327 325 323 324 332 332 331 325 326 329 329 329 328 329 326 329 327 324 318 312 312 312 313 313
331 339 345 343 338 336 339 338 339 340 340 340 339 338 336 333 329 327 321 321 321 322 324 337 335 333 324 325 326 325 326 325 323 322 320 317 313 311 311 313 315 313 314
332 336 344 341 335 338 339 341 340 339 337 336 333 329 333 329 325 313 323 325 328 329 336 337 335 328 321 320 322 317 321 320 317 315 314 315 314 312 312 315 320 322 319
331 329 336 337 341 339 340 339 338 337 336 336 334 326 324 324 312 324 332 336 337 338 339 336 329 325 324 314 312 312 313 315 316 316 318 319 319 320 318 320 324 325 324
331 326 327 334 335 336 338 341 338 336 335 335 333 322 323 314 311 325 331 335 336 337 337 332 326 322 314 311 312 315 318 319 320 322 321 324 328 330 328 329 331 331 331
333 328 325 331 338 340 340 341 334 336 334 333 327 322 318 310 310 317 323 331 334 333 329 325 323 315 313 315 317 321 324 325 325 324 324 326 327 333 329 327 329 333 332
336 330 326 324 333 330 329 336 328 332 331 330 328 320 312 311 310 311 315 321 326 325 325 325 314 315 317 320 323 324 325 325 325 324 323 325 326 325 327 329 330 330 330
336 331 327 327 329 321 325 323 321 319 319 326 323 315 312 312 312 311 312 320 324 325 318 314 316 320 323 324 324 324 325 325 324 324 323 325 327 323 325 325 327 327 327
336 332 328 323 323 323 321 319 319 319 330 328 321 312 313 313 313 313 312 312 312 312 315 319 322 323 325 324 322 322 323 324 325 324 323 323 327 321 324 317 316 316 316
336 334 330 324 322 320 320 319 318 320 335 325 316 314 314 314 315 315 315 315 316 317 320 322 323 324 323 322 322 322 323 323 322 321 321 320 322 320 322 322 320 317 315
337 335 332 327 322 322 322 321 319 321 323 325 316 316 318 317 316 316 316 317 318 321 322 324 325 323 322 321 321 321 320 319 318 317 316 316 317 320 322 319 317 314 311
337 336 334 330 324 324 324 323 320 319 319 322 318 320 321 325 319 318 317 318 320 322 323 328 324 322 321 321 321 322 322 318 313 312 312 313 314 319 315 311 311 310 307
338 338 338 335 328 326 327 326 325 321 320 320 320 320 322 324 326 321 319 317 320 321 325 327 323 323 322 322 322 322 320 312 310 309 309 310 313 316 309 306 306 305 304
338 339 339 338 334 334 335 334 332 328 323 320 320 320 320 322 326 326 323 320 317 320 322 323 323 323 322 322 321 320 315 310 308 307 306 307 306 306 305 305 304 303 303
337 335 336 337 338 338 338 338 337 335 329 324 320 321 321 321 323 327 327 324 321 319 321 322 323 323 322 321 321 321 314 309 307 305 305 305 304 304 304 304 303 303 301
337 337 336 336 337 339 335 337 338 337 334 330 326 321 319 321 322 324 327 327 325 318 320 322 323 323 322 322 321 321 315 308 306 305 304 303 303 303 303 303 302 301 301
331 334 335 336 338 338 338 338 338 337 336 335 333 329 324 320 319 321 325 326 326 324 320 321 323 323 323 322 322 321 317 308 306 305 304 303 303 303 303 302 301 301 300
319 321 328 335 336 336 336 337 336 335 335 336 336 335 333 327 321 319 322 324 325 325 323 320 323 324 323 322 322 322 319 308 306 305 304 303 303 302 302 301 301 300 300
317 318 319 324 335 337 336 336 335 335 335 336 336 335 335 333 327 321 320 322 324 326 326 323 324 325 324 323 322 322 319 308 307 306 304 303 302 302 301 301 300 300 300
317 316 317 318 323 334 336 337 336 334 334 336 335 335 335 335 333 328 324 320 323 325 326 326 325 326 326 323 322 321 318 309 307 306 305 303 302 302 301 301 301 300 300
318 318 317 318 318 320 323 326 324 323 325 331 333 331 332 334 334 333 331 325 320 322 324 326 325 327 326 324 321 320 316 309 308 307 305 303 303 302 302 302 302 301 301
314 315 316 317 317 318 318 319 320 320 321 323 326 330 331 331 331 332 333 330 325 321 322 325 325 325 327 324 321 319 312 310 308 308 306 304 303 303 302 302 302 301 301
312 312 313 314 316 317 317 318 318 318 319 320 322 322 327 330 331 330 330 330 330 327 325 325 324 324 327 326 323 320 312 310 310 309 307 305 304 304 303 303 303 302 300
311 312 313 313 313 314 316 317 317 317 318 318 318 319 320 323 328 329 329 330 330 329 329 328 325 324 326 327 324 323 322 318 311 310 308 307 305 304 304 303 303 302 300
314 313 313 312 313 313 312 313 315 317 317 317 317 318 320 321 325 327 328 329 328 328 329 328 328 325 325 327 326 324 320 317 317 310 310 309 307 305 304 303 303 302 301
313 314 314 314 313 313 312 312 313 314 316 317 318 318 319 320 322 324 325 329 329 328 327 327 328 327 326 326 326 324 323 321 319 309 308 309 308 306 304 303 301 300 300

GFSSE_850_thetae_048.txt.gz
Theta_e
334 334 343 343 341 340 337 340 340 340 340 339 342 341 340 339 338 333 328 327 325 324 327 332 326 323 323 332 331 331 329 330 330 327 327 326 323 317 312 312 316 325 319
335 341 343 345 343 339 339 340 339 338 340 341 342 340 339 336 332 328 322 322 321 323 334 335 334 327 320 325 327 328 328 328 326 325 322 318 313 311 311 313 314 314 313
342 345 341 343 334 339 339 339 339 340 340 338 335 336 335 331 327 314 318 325 324 327 337 336 333 324 316 322 324 323 323 323 320 317 315 324 313 313 314 318 320 317 315
345 345 343 339 338 341 344 342 340 339 337 337 333 327 329 325 315 326 334 335 335 338 339 336 329 322 318 313 313 314 316 315 315 316 329 330 329 320 321 326 328 326 324
344 344 343 338 338 337 341 340 339 337 336 337 334 321 323 314 319 334 336 337 338 340 337 332 327 318 311 311 313 316 318 319 320 325 330 330 332 331 331 331 332 332 332
344 343 337 337 341 340 342 342 338 336 335 335 327 317 315 310 318 330 335 335 336 337 335 329 321 313 313 316 319 323 323 324 326 329 330 328 335 332 327 328 334 333 331
343 343 336 336 337 338 342 340 339 336 335 333 327 317 311 310 312 319 331 330 335 333 326 322 315 314 317 320 322 324 324 324 329 328 329 332 329 329 327 329 330 329 329
343 341 340 340 342 342 341 341 337 337 336 331 327 317 312 311 311 312 318 328 328 325 323 317 315 319 322 324 324 324 324 324 328 329 329 332 325 324 329 326 326 327 327
342 337 339 335 342 340 337 328 326 327 332 328 322 314 312 313 312 311 316 322 324 321 314 316 320 323 325 324 322 322 323 324 328 328 328 332 327 322 323 320 317 316 316
340 337 338 339 337 335 329 323 321 320 330 335 325 313 313 314 314 313 312 312 312 313 317 321 323 325 324 322 322 323 323 324 327 324 327 327 324 322 324 324 321 317 313
340 340 339 338 337 335 332 322 320 319 336 332 324 314 315 319 315 316 316 315 316 319 321 325 324 323 322 321 321 321 321 322 324 325 326 319 321 323 323 321 317 313 310
337 337 338 337 336 330 324 327 320 329 334 332 324 317 323 330 328 325 317 318 319 329 327 327 325 322 321 321 321 322 321 320 321 323 325 315 319 319 315 312 310 309 306
336 337 335 336 335 328 325 329 332 336 334 334 331 329 330 331 329 323 323 318 324 324 327 329 327 323 322 321 322 322 321 316 317 321 322 311 319 314 307 306 306 305 304
337 338 338 337 335 328 327 327 332 335 333 333 330 330 330 329 331 331 330 327 328 328 330 329 326 323 322 322 322 321 320 313 313 317 322 310 311 307 306 305 305 304 303
335 337 338 338 338 334 331 334 335 335 333 331 327 324 330 329 331 331 331 330 328 329 329 328 323 323 322 322 321 321 320 313 309 315 320 308 306 305 305 304 304 303 302
340 338 337 336 338 338 337 337 337 337 336 335 330 326 322 326 325 327 330 331 330 328 327 325 322 323 323 322 321 321 321 315 308 309 315 312 305 304 304 304 303 302 301
332 338 340 337 335 336 338 339 337 336 336 336 335 333 327 323 323 323 325 330 329 328 325 321 322 322 323 322 322 321 321 318 309 307 305 314 308 304 303 303 302 301 301
320 322 329 336 334 335 335 336 336 337 335 334 336 335 334 330 325 322 325 329 329 329 326 322 320 322 323 323 322 322 321 320 310 307 306 304 305 307 303 303 302 301 301
318 318 319 319 329 332 329 335 336 336 335 335 336 335 333 334 332 328 324 327 329 328 326 325 322 321 323 324 323 322 321 320 312 307 306 305 304 303 304 302 301 301 300
317 316 317 317 319 324 333 330 335 334 334 336 335 334 335 333 333 333 330 327 327 326 326 326 325 323 324 325 323 322 321 320 316 308 307 306 305 303 303 302 302 301 301
317 318 318 318 317 318 329 329 330 336 335 334 332 331 334 333 333 333 333 331 326 324 325 324 326 327 324 325 323 321 321 320 317 309 307 306 305 303 303 302 301 302 301
314 315 316 317 317 317 319 329 321 325 332 333 333 329 329 331 330 331 331 331 331 329 325 323 324 326 326 326 324 315 313 314 319 314 308 307 306 304 303 302 302 302 301
311 311 312 313 315 317 317 318 327 331 330 321 322 323 323 325 328 330 330 330 330 330 329 325 322 323 327 325 325 320 316 317 313 314 311 308 307 306 304 303 302 302 302
313 313 312 312 312 313 314 315 317 326 329 325 320 320 320 321 322 326 330 328 328 329 329 329 326 323 326 326 324 325 323 317 312 311 309 309 307 306 305 304 303 302 302
313 314 314 313 313 312 313 312 313 319 327 328 329 328 321 318 319 320 321 327 327 328 329 328 328 326 324 326 325 325 324 322 317 313 311 311 308 307 305 304 303 303 302
313 313 313 313 314 313 313 312 312 312 321 327 328 328 326 323 319 319 320 322 326 327 327 328 328 328 326 326 326 325 326 325 322 318 312 313 309 307 306 305 303 303 303

GFSSE_850_thetae_051.txt.gz
Theta_e
346 331 330 342 343 343 339 338 339 340 341 341 340 341 340 340 339 334 329 328 327 325 328 328 323 327 326 334 336 334 334 332 331 328 327 326 321 314 311 313 325 324 331
347 335 335 340 344 341 340 339 340 340 339 339 340 342 340 338 332 327 323 323 322 324 335 333 328 321 320 325 331 330 330 329 328 325 321 321 312 311 313 314 314 312 318
346 345 341 344 340 338 341 340 339 339 340 339 338 337 336 332 326 314 319 323 322 331 337 336 328 318 315 323 324 325 326 325 322 317 326 324 315 315 318 320 319 314 315
346 346 343 340 337 339 343 339 339 340 339 336 325 328 332 325 315 333 333 330 333 338 337 335 328 319 313 314 315 318 319 317 315 325 330 331 329 324 326 329 329 327 323
347 346 344 335 337 342 342 340 340 339 338 337 328 323 323 313 326 337 338 338 338 339 336 333 324 314 310 311 313 314 316 318 323 330 332 328 333 332 331 333 333 333 332
345 346 343 337 339 342 343 341 340 338 337 336 329 320 314 313 330 335 337 336 339 337 335 331 318 312 314 316 319 321 321 324 330 331 332 331 333 332 331 333 334 331 330
344 346 340 339 339 341 341 341 339 338 336 336 323 314 311 313 322 331 335 335 336 336 332 322 314 314 317 320 323 324 324 326 330 330 331 331 329 330 329 329 330 329 329
344 345 341 337 339 339 340 340 340 338 337 337 328 314 311 311 312 316 329 331 334 331 323 318 314 318 322 323 324 324 323 324 330 329 330 331 325 327 328 326 323 326 327
344 343 342 338 340 340 340 341 339 336 337 334 327 315 312 311 311 313 318 328 327 324 320 314 318 322 324 323 321 321 323 326 329 329 330 329 327 323 322 321 316 315 315
344 342 341 340 338 341 340 338 335 330 327 328 325 316 313 313 312 312 317 321 322 318 314 318 321 323 323 321 321 322 322 323 329 328 329 328 324 325 323 322 316 313 311
344 342 341 340 340 340 339 332 326 322 322 335 329 317 313 314 314 313 313 313 313 314 318 323 322 323 321 321 321 321 321 326 326 326 328 324 322 323 321 320 312 310 309
343 343 342 340 340 339 336 335 323 323 328 338 332 320 316 329 323 323 319 316 316 323 326 323 324 322 321 321 321 321 322 322 324 325 326 323 321 316 316 313 309 309 306
338 341 342 341 340 338 335 335 332 333 334 337 335 332 330 332 330 323 320 317 318 320 326 325 327 323 321 320 322 321 321 320 320 323 323 317 315 314 309 307 306 306 304
340 340 337 341 341 338 336 334 334 337 337 336 335 332 332 333 333 331 329 322 322 329 330 329 328 325 322 321 320 320 320 318 317 319 322 319 314 309 306 305 305 304 304
341 340 339 338 340 341 337 336 335 335 337 336 335 332 331 333 333 333 332 331 329 331 331 332 331 327 323 321 320 320 318 317 316 319 321 319 308 307 305 304 304 304 303
340 341 340 338 337 340 340 338 339 338 337 338 337 334 331 331 332 332 333 333 331 329 330 330 330 327 322 319 319 319 318 316 315 316 319 316 308 305 304 304 304 303 303
338 340 342 340 334 337 341 337 339 340 339 338 338 337 333 329 330 332 332 332 332 332 330 329 329 326 321 318 317 320 320 318 317 314 315 317 312 305 304 304 304 303 302
324 326 333 339 341 341 341 338 337 340 340 339 338 338 337 335 330 330 330 331 332 332 332 329 328 325 320 319 321 318 320 321 319 313 312 313 313 309 306 304 303 302 302
322 322 323 324 332 338 340 340 335 335 338 339 339 338 338 337 335 332 331 330 331 331 330 330 328 324 321 320 320 317 320 320 321 317 311 309 309 310 308 305 303 302 302
319 319 320 320 321 326 333 337 337 330 331 336 339 338 337 337 335 334 333 332 331 331 329 330 328 326 322 320 319 316 319 321 320 320 313 309 308 307 305 305 304 302 302
316 317 318 319 319 320 324 330 335 332 323 325 334 337 337 335 335 336 334 333 332 331 330 329 328 326 323 321 318 316 316 320 321 320 317 309 308 308 305 303 304 302 303
313 314 315 316 318 319 319 322 327 331 323 320 323 332 336 336 334 333 334 333 333 332 331 330 329 326 323 322 320 318 317 316 321 321 319 313 308 308 307 305 303 302 302
315 312 312 313 315 316 317 318 320 328 332 331 327 324 331 334 336 336 333 333 333 332 331 331 329 327 324 322 324 322 319 319 319 316 318 316 309 307 307 306 304 303 303
314 313 313 313 312 312 313 315 317 321 327 331 332 333 330 326 325 326 329 332 333 333 332 331 330 329 326 322 322 324 322 319 318 313 313 313 310 307 306 305 305 303 303
313 313 313 314 315 313 312 312 312 313 315 322 328 330 330 330 329 324 323 328 330 330 331 331 330 330 329 324 324 323 324 322 319 317 315 314 310 308 306 304 304 303 303
315 314 313 313 313 315 314 313 313 312 313 317 322 328 329 330 330 330 328 326 329 331 332 333 330 329 328 327 323 323 323 324 323 321 318 315 314 313 310 306 305 304 303

GFSSE_850_thetae_054.txt.gz
Theta_e
345 331 329 340 341 342 338 339 338 339 340 340 340 340 339 339 338 334 328 327 325 327 330 324 326 328 327 335 336 333 331 332 330 327 324 320 313 311 313 321 320 324 332
339 329 335 343 342 342 337 339 341 340 341 339 339 340 339 337 331 326 321 323 322 335 332 330 323 315 320 326 331 330 330 329 325 321 322 313 312 315 316 316 314 314 323
342 332 332 342 344 338 341 341 340 339 339 338 337 335 335 330 320 316 321 320 326 337 336 333 325 317 314 323 324 327 326 323 320 329 329 329 318 320 323 324 318 315 316
344 337 338 340 342 340 340 340 339 340 339 337 326 328 330 320 331 330 328 325 333 338 336 332 323 312 312 314 319 319 318 317 327 331 331 331 329 328 329 330 330 327 325
347 343 337 342 338 344 342 339 339 339 335 322 321 324 321 318 336 336 337 337 339 337 334 333 317 311 311 312 313 315 317 326 331 331 328 330 332 331 333 334 332 331 331
347 346 338 332 340 341 341 340 339 337 336 326 321 319 312 327 336 337 337 337 337 335 334 331 313 313 315 318 320 320 324 329 329 331 330 331 332 332 331 334 332 332 332
346 347 342 335 341 344 342 341 339 338 336 334 320 314 311 321 331 334 334 336 335 336 334 320 313 316 319 321 322 322 324 328 329 330 330 329 331 332 328 328 327 327 327
345 346 344 334 337 340 342 340 339 337 336 334 321 312 311 313 316 327 331 333 333 334 323 316 316 319 321 322 322 321 323 329 329 328 329 329 326 328 325 323 319 321 325
344 345 337 335 339 340 339 338 339 337 336 333 324 313 311 311 312 314 324 326 328 323 319 314 318 322 322 321 320 321 323 329 329 328 329 328 327 323 322 320 316 315 315
344 343 342 334 330 335 340 340 339 336 335 333 325 314 313 312 312 314 317 322 321 319 315 317 320 322 321 320 320 321 322 327 328 326 328 327 322 325 320 317 312 309 309
344 342 341 340 336 336 337 335 335 336 329 326 327 318 313 314 313 312 318 320 319 315 315 318 320 321 320 320 320 320 321 326 326 327 327 327 317 320 317 314 310 307 307
344 342 341 340 340 340 339 339 331 323 321 321 326 324 314 315 316 315 314 314 313 314 317 320 320 320 320 320 320 321 322 323 324 324 325 325 318 315 312 310 308 306 306
344 343 341 340 340 339 338 335 332 322 321 323 332 325 316 327 329 323 319 316 316 317 318 320 322 321 320 320 321 321 321 321 321 323 321 321 315 310 309 306 305 305 304
338 343 342 342 340 339 337 334 334 330 335 332 334 334 326 331 331 331 321 318 317 317 319 321 323 326 321 320 320 321 320 320 318 319 319 320 318 308 307 305 305 305 304
342 336 338 342 341 340 337 335 334 334 338 336 337 336 331 331 333 333 330 329 327 320 328 328 330 326 325 322 321 320 320 320 318 317 317 319 318 309 306 305 304 304 304
340 340 338 335 338 340 340 336 335 335 336 337 336 335 332 331 332 332 333 332 331 328 331 331 332 331 329 323 321 320 320 319 318 317 317 316 315 311 306 305 305 304 303
340 340 340 336 333 337 340 339 337 338 337 337 337 337 336 331 332 332 331 333 333 332 329 330 330 330 329 324 320 319 320 319 318 316 316 315 313 311 307 305 305 304 303
329 330 340 341 340 337 336 342 339 339 340 339 338 338 338 336 332 330 331 330 333 333 332 330 329 329 328 325 320 319 319 320 319 318 315 315 312 311 309 306 305 304 303
322 324 327 330 337 341 340 339 340 336 338 339 339 338 338 338 336 334 330 329 329 331 332 331 330 329 328 325 321 319 318 319 320 320 318 315 313 311 309 308 306 304 303
318 319 321 322 323 328 334 339 339 337 334 336 338 339 338 337 336 336 335 333 331 329 331 331 330 329 328 326 321 319 317 317 320 320 320 318 312 310 309 309 307 305 304
318 319 319 319 320 320 320 327 332 335 334 333 329 330 336 337 336 334 334 334 333 331 331 330 330 329 328 326 321 319 316 315 318 320 320 320 318 313 309 309 308 306 304
315 315 316 316 317 318 319 320 324 328 330 329 328 325 325 332 339 337 335 332 332 332 332 331 331 330 328 327 323 319 316 314 318 320 320 320 319 318 311 309 308 306 304
315 314 313 314 315 316 317 318 319 322 322 333 331 324 320 322 330 335 336 336 332 331 332 331 331 331 330 328 325 321 316 318 319 320 320 320 318 317 316 309 308 307 305
315 313 313 313 313 312 313 315 317 317 319 323 331 331 328 327 324 325 332 333 334 335 334 331 331 331 330 329 326 324 321 321 320 318 317 317 315 314 315 311 309 307 305
315 313 313 313 314 315 314 313 312 312 313 316 323 327 330 331 331 328 326 327 330 332 333 331 331 331 330 329 328 326 323 321 318 320 319 318 314 312 312 314 310 307 305
315 314 313 313 313 314 315 315 314 314 313 312 312 314 318 325 329 329 329 328 331 329 329 330 329 329 329 328 328 326 326 324 321 318 315 317 317 316 313 309 307 305 303

GFSSE_850_thetae_057.txt.gz
Theta_e
345 337 338 338 337 336 338 337 337 340 339 339 339 338 337 337 336 330 325 325 326 330 323 324 328 327 332 336 334 331 330 331 330 326 318 312 311 312 315 316 321 328 329
343 337 340 341 341 336 336 337 339 340 340 339 338 339 339 335 327 321 320 321 336 331 331 323 314 314 322 332 331 330 328 326 324 324 318 315 316 317 316 314 314 319 320
338 332 340 338 340 335 338 341 340 339 337 336 334 334 333 324 315 320 319 326 337 336 333 328 315 312 319 323 328 327 323 326 328 327 326 325 324 326 327 323 317 316 317
339 335 341 343 339 340 340 340 339 338 338 337 326 328 323 326 327 326 323 335 338 337 334 327 312 311 314 320 320 319 321 328 330 330 329 330 331 330 332 332 329 328 326
337 333 338 347 341 342 339 338 338 338 337 321 320 321 320 336 335 333 334 338 338 335 334 325 311 311 311 313 314 316 324 329 328 327 329 330 332 334 334 331 330 330 330
343 338 341 343 339 341 339 338 338 335 323 319 318 314 326 335 336 336 337 337 335 333 333 318 313 314 316 317 317 323 328 330 330 328 329 332 333 331 334 333 331 331 333
345 342 339 337 341 341 339 340 338 337 329 321 317 312 322 333 333 334 334 335 333 333 331 314 315 317 320 320 321 324 326 329 329 329 328 328 331 330 327 327 325 325 326
345 346 340 335 342 342 341 339 338 337 328 316 315 311 314 323 328 331 331 333 331 333 319 314 317 320 321 320 320 323 328 328 328 328 328 329 326 327 323 319 317 316 323
346 345 344 334 340 342 340 339 337 337 329 317 315 312 312 312 317 324 325 327 329 324 317 315 319 321 320 319 320 322 327 328 328 327 328 325 325 323 321 319 314 313 314
344 343 337 335 336 339 338 339 338 337 334 325 319 313 312 312 312 314 320 321 320 318 316 316 319 320 319 319 319 320 324 327 327 325 326 326 325 320 317 314 311 308 308
343 341 341 333 332 334 336 338 336 336 329 325 321 315 313 313 313 313 316 318 318 317 315 317 319 320 319 319 319 319 320 322 323 324 325 326 325 316 314 311 308 307 306
342 341 341 340 339 331 333 332 332 325 323 320 320 319 314 314 314 313 315 316 316 315 315 318 319 320 319 319 320 320 321 322 323 322 322 323 322 317 310 308 306 306 305
342 341 341 340 340 338 335 336 334 329 321 320 321 323 316 315 318 316 316 315 314 315 316 318 319 320 320 319 320 320 320 321 321 321 320 319 317 314 308 307 305 305 305
342 341 341 340 340 339 338 338 333 329 323 328 323 328 324 320 324 327 325 319 317 316 317 319 320 322 321 320 320 320 320 320 320 319 318 318 317 317 309 306 305 305 305
341 342 341 340 340 339 339 337 332 331 332 335 333 334 333 328 326 330 330 327 321 319 317 319 322 325 325 321 320 320 320 320 320 318 318 317 317 317 311 306 305 305 305
339 338 341 341 340 339 339 338 334 332 333 337 336 335 335 333 329 331 331 329 328 328 326 323 327 329 329 326 324 321 320 320 320 319 318 318 317 315 314 307 306 305 305
338 339 338 334 338 339 338 339 336 334 334 335 336 336 335 335 331 331 332 330 329 332 331 329 329 331 331 330 328 322 320 319 319 320 319 318 318 315 312 309 307 306 305
329 337 338 340 340 338 336 337 338 336 336 336 336 337 337 336 335 331 331 331 330 331 332 332 330 329 330 330 329 326 320 319 318 318 319 319 318 317 313 311 308 307 305
322 324 325 330 335 338 339 338 337 337 338 338 337 338 337 337 336 335 333 332 330 330 331 332 332 330 329 329 329 327 323 319 318 318 319 320 320 318 315 311 309 308 306
317 320 322 322 323 323 329 336 339 338 337 337 337 337 336 337 337 334 334 333 333 330 330 330 331 332 331 328 328 327 325 320 318 318 318 320 321 320 318 313 310 309 307
317 317 318 319 321 321 322 323 327 334 337 335 336 335 335 337 335 336 335 334 333 334 333 330 329 331 331 330 329 327 325 320 317 317 317 318 319 321 320 318 312 309 308
317 317 318 319 319 320 320 320 320 321 324 328 331 331 332 332 331 330 331 335 334 334 334 332 331 330 330 331 329 327 322 320 319 318 317 317 319 319 320 320 316 310 308
315 315 315 315 316 316 316 318 319 319 319 321 323 327 331 331 328 327 329 331 331 333 332 332 331 331 329 329 329 327 320 319 320 320 319 318 319 319 319 319 317 313 309
314 313 313 313 313 313 313 315 317 318 318 318 319 321 329 330 329 328 326 328 328 329 330 329 330 329 328 328 328 328 326 323 321 320 321 321 318 317 316 314 313 312 309
314 313 313 313 314 314 313 313 313 312 312 312 313 317 321 324 328 329 329 326 324 325 325 327 329 329 330 330 329 328 326 324 321 320 320 321 319 318 316 313 312 310 309
315 314 313 313 313 313 313 313 314 313 313 313 313 312 312 315 319 322 325 326 327 327 326 326 326 326 328 330 330 329 328 326 324 320 318 318 318 317 315 312 311 310 307

GFSSE_850_thetae_060.txt.gz
Theta_e
343 331 337 336 336 336 336 337 336 337 338 337 336 335 333 336 333 325 323 326 325 322 327 330 330 331 337 337 334 330 331 330 330 325 316 312 312 314 314 325 331 330 326
340 333 335 335 335 337 338 337 339 338 338 338 338 337 336 332 324 319 321 333 329 331 325 316 313 322 333 332 329 328 328 327 325 319 315 317 318 318 314 314 319 319 316
342 334 336 340 339 340 337 339 339 339 337 337 334 332 330 318 316 319 327 337 336 333 329 313 311 313 324 330 328 326 326 324 323 321 320 324 325 327 325 319 317 317 318
342 335 338 341 340 337 340 339 337 333 332 331 327 327 318 325 322 323 334 338 337 334 330 311 310 317 320 323 324 323 324 324 323 327 330 330 330 333 332 329 329 327 328
336 335 338 340 338 339 341 337 336 330 334 322 321 318 332 331 329 328 338 338 336 333 328 311 310 312 318 318 319 322 322 323 325 326 329 332 334 333 332 330 329 330 335
336 338 343 344 341 338 338 336 335 330 324 318 316 320 333 335 334 338 338 338 335 330 324 312 314 314 313 314 318 322 326 327 328 329 331 333 334 333 333 331 331 332 334
335 335 345 344 341 340 337 337 336 328 318 317 315 322 331 329 333 334 335 332 331 329 319 314 317 318 318 318 322 323 325 329 328 328 329 329 331 329 327 326 323 324 326
339 338 342 339 343 340 338 337 337 331 317 314 313 323 330 327 326 327 324 330 329 329 316 316 318 319 319 319 321 322 324 326 327 325 327 327 326 325 321 318 317 316 321
344 342 335 337 341 341 340 337 339 335 321 314 312 312 318 324 327 326 325 327 327 324 316 317 319 319 319 319 320 324 325 326 325 324 324 322 321 320 318 316 313 311 313
346 345 343 336 342 341 339 339 336 335 326 320 315 313 312 313 317 324 324 326 326 320 316 317 319 319 319 318 319 321 325 325 325 324 323 324 322 315 314 311 309 307 307
343 342 338 336 337 338 334 334 336 334 329 322 319 314 313 313 312 314 319 322 322 319 316 317 319 319 319 319 319 320 322 323 320 321 323 324 324 321 313 309 307 306 306
342 341 339 334 333 333 334 331 332 328 328 323 321 318 314 314 314 313 315 317 319 319 315 317 319 320 319 319 319 320 320 321 322 321 321 321 321 320 315 309 306 306 305
342 341 340 339 339 331 328 329 330 331 325 322 320 322 317 314 314 315 314 315 315 315 315 316 319 320 320 319 319 320 321 322 322 321 320 320 319 317 315 308 306 305 305
341 340 340 340 339 338 336 334 333 330 328 321 320 322 323 316 317 319 319 318 317 316 315 317 318 320 321 320 320 320 320 320 321 321 320 319 318 317 316 311 306 305 305
342 340 340 340 340 339 338 337 336 332 328 328 330 326 327 326 323 324 326 328 327 321 317 317 318 320 321 322 320 320 320 320 320 320 319 318 318 317 316 315 308 306 305
342 341 341 339 339 338 338 338 337 334 330 333 335 334 333 333 332 329 328 328 329 328 327 325 321 324 325 326 324 321 320 320 320 320 319 319 319 318 317 315 311 307 305
337 337 341 341 340 339 337 337 337 336 333 332 334 336 336 335 334 333 331 330 330 329 328 329 329 327 327 329 329 328 327 322 320 320 319 319 319 319 318 316 313 309 307
332 334 338 338 339 340 340 338 337 336 334 333 334 335 336 336 336 335 334 331 330 331 330 330 331 330 329 329 330 329 329 328 321 319 319 319 319 319 319 317 314 311 308
322 325 329 337 338 340 339 339 338 338 336 335 335 335 335 335 336 335 335 333 332 331 331 330 331 332 331 330 329 329 329 328 326 320 318 318 318 318 319 318 316 313 309
319 320 323 324 327 327 333 337 338 338 338 337 337 337 337 336 336 336 336 334 335 334 333 331 330 331 332 331 331 330 329 328 327 325 321 318 318 318 318 319 318 315 311
317 317 318 321 322 322 323 326 330 333 336 338 338 337 337 337 337 335 334 333 332 333 333 333 332 330 331 331 331 330 329 329 328 327 324 320 318 317 318 319 318 317 313
317 317 317 318 319 319 320 321 322 322 325 327 328 333 335 334 333 331 331 330 331 331 332 331 333 332 331 330 330 330 327 327 328 327 327 323 320 318 317 318 317 316 315
316 316 317 317 317 318 318 318 318 319 319 319 321 324 327 331 333 333 332 329 327 329 329 330 331 332 331 331 330 329 326 325 326 325 325 324 322 320 318 317 318 317 315
315 315 314 314 314 314 314 315 315 315 316 317 318 318 318 319 320 323 326 327 328 326 328 327 327 327 328 329 329 329 329 327 324 322 323 323 322 318 315 314 315 315 314
314 313 312 313 313 313 313 313 313 313 313 314 315 315 315 315 318 324 327 327 326 325 324 324 325 325 325 326 327 326 327 327 326 324 322 324 323 322 321 317 314 313 313
313 313 313 312 312 312 312 312 313 313 313 313 313 312 312 312 312 314 316 320 323 324 324 326 326 325 325 326 325 324 325 326 326 325 323 322 321 321 321 320 320 319 313

GFSSE_850_thetae_063.txt.gz
Theta_e
335 340 341 335 336 339 339 337 335 335 336 336 336 333 333 332 327 322 326 323 324 331 330 331 330 331 337 338 334 330 331 331 329 323 316 313 313 313 323 332 327 324 319
330 338 335 334 335 337 338 336 338 337 336 338 337 332 332 325 321 321 331 328 329 322 316 314 325 334 335 331 330 330 330 328 324 317 315 318 320 316 313 316 315 314 314
332 334 335 333 334 339 337 339 338 339 340 338 327 327 320 317 317 324 335 331 332 329 314 311 311 327 332 331 329 329 327 324 320 317 322 325 328 326 322 319 319 323 324
333 334 336 336 340 340 337 339 340 338 336 331 326 317 322 321 323 332 338 336 334 328 312 310 315 317 328 328 327 325 322 319 324 327 329 330 333 333 329 329 328 329 334
339 333 341 339 340 337 338 337 336 332 331 322 318 319 328 326 329 336 338 336 334 325 311 310 314 318 320 321 321 319 316 319 324 330 331 334 333 332 331 330 331 335 334
339 336 342 340 337 339 340 336 335 325 323 318 316 327 330 331 331 338 338 337 332 322 313 313 312 313 316 317 316 317 321 324 329 330 332 334 333 333 332 332 332 334 334
335 337 341 340 337 339 337 334 332 321 316 316 320 335 337 332 336 337 336 334 325 321 314 316 317 316 315 316 320 322 324 326 326 328 330 331 332 327 324 324 320 320 326
334 338 343 342 342 339 337 335 333 323 315 315 317 336 330 335 335 333 331 328 327 322 314 317 318 318 318 320 320 321 323 324 323 325 325 325 324 322 319 317 315 315 317
335 334 340 342 341 340 339 337 332 328 316 313 313 315 321 331 330 329 327 329 327 322 315 317 319 319 319 320 321 322 324 323 323 322 322 321 319 317 316 314 312 310 312
339 337 334 338 341 341 338 337 333 330 321 315 313 312 313 315 322 325 327 328 327 323 316 317 320 320 319 320 321 323 324 324 324 322 321 323 322 320 315 312 309 307 307
345 344 341 334 339 338 336 335 333 332 328 321 319 314 313 313 313 317 321 321 322 320 317 316 319 320 319 319 320 324 324 323 323 320 322 323 323 320 317 312 308 306 306
343 341 339 337 339 338 337 333 333 332 331 327 324 319 314 313 313 313 315 319 320 319 317 315 318 319 319 319 320 320 323 324 322 322 322 322 321 320 318 314 309 306 306
342 340 338 335 335 336 335 334 332 330 327 325 323 321 319 314 314 314 314 317 318 318 317 315 317 318 319 319 319 319 320 321 322 322 321 321 321 320 318 316 311 306 306
342 339 339 338 337 336 331 330 330 332 331 328 323 320 322 321 315 315 315 315 315 316 315 315 316 318 319 320 319 319 319 320 320 320 320 320 319 319 318 317 315 308 306
341 339 339 339 339 338 337 335 335 334 331 328 325 325 322 323 318 319 323 324 326 325 320 317 316 318 319 320 321 320 320 320 320 320 320 320 319 318 318 318 316 313 307
341 340 339 339 339 338 337 336 336 336 334 330 331 331 330 330 331 329 327 327 327 327 327 326 326 321 321 322 325 324 322 320 320 320 320 319 319 318 318 318 318 315 310
339 340 339 339 339 339 338 337 336 336 335 331 330 333 334 335 334 334 333 331 330 330 330 329 329 329 327 327 327 328 328 327 326 325 321 319 319 319 318 318 318 317 313
336 338 339 340 340 340 339 339 338 337 336 335 332 332 333 335 335 335 335 333 333 331 331 331 330 330 330 330 330 328 328 328 328 328 327 322 319 318 318 318 318 318 316
324 332 337 338 339 338 339 339 339 339 338 337 335 333 333 334 334 335 334 333 334 335 333 332 331 331 330 330 330 331 331 330 329 328 328 327 324 319 318 318 318 318 317
319 322 325 332 338 338 339 340 340 339 338 338 337 335 335 336 336 336 336 336 336 336 335 334 333 332 331 331 331 331 331 331 330 329 328 328 327 325 321 318 317 318 318
317 317 320 323 324 328 334 336 336 336 337 337 337 337 337 337 337 337 337 336 336 335 334 333 333 332 332 331 331 331 330 330 330 329 329 328 328 327 326 321 317 316 317
317 317 317 317 320 321 322 323 325 327 330 330 333 336 336 337 337 335 334 333 331 331 330 330 330 332 332 331 330 330 329 328 327 327 327 327 326 326 326 325 320 316 316
316 316 316 316 317 318 318 319 320 321 322 323 324 325 326 329 332 333 333 333 332 332 331 326 328 330 330 330 330 329 327 326 326 326 326 325 325 324 324 323 320 316 314
316 316 315 315 315 316 316 316 316 317 317 317 318 318 318 319 319 319 320 322 326 327 325 326 325 327 327 327 327 327 328 328 327 325 325 324 323 324 323 320 320 318 316
315 315 315 314 313 313 313 313 313 313 313 314 313 314 314 315 316 316 316 318 321 326 326 325 324 324 325 326 325 325 326 327 325 324 321 321 322 323 323 322 320 319 317
315 314 313 312 312 312 312 313 313 313 313 313 313 313 313 312 312 312 312 312 315 320 324 324 323 326 325 324 324 324 324 324 324 323 322 322 322 321 320 320 320 320 319

GFSSE_850_thetae_066.txt.gz
Theta_e
335 338 342 337 338 337 338 337 335 334 334 335 334 332 329 325 321 328 320 322 330 327 328 329 329 331 335 337 333 331 331 329 325 320 314 314 313 318 327 322 318 315 317
331 341 337 334 335 337 338 335 334 335 337 336 333 330 325 319 322 327 326 325 319 316 317 324 329 333 335 333 331 331 329 326 321 315 317 321 320 316 315 315 316 318 314
334 338 336 334 335 338 336 337 337 338 338 337 324 323 319 317 325 332 329 330 326 314 310 311 322 332 332 330 330 329 325 320 317 319 323 328 328 326 325 323 326 330 331
333 334 336 334 335 338 335 339 339 339 337 331 322 320 320 321 329 336 334 333 326 312 310 312 314 328 329 328 327 323 319 319 324 327 331 334 331 328 327 329 333 334 333
330 331 335 335 342 339 336 338 333 331 332 327 321 325 324 328 333 338 336 334 325 313 311 314 316 320 323 322 320 317 317 321 327 331 333 332 332 332 330 332 334 334 333
332 333 336 342 341 336 336 335 331 325 321 319 319 327 327 329 334 338 336 334 322 314 313 313 314 316 317 316 315 319 322 327 329 332 332 331 332 332 330 330 331 332 333
335 337 339 339 337 337 337 334 332 322 316 317 330 335 330 329 335 335 335 331 323 315 315 316 315 315 315 317 320 321 323 323 325 328 329 330 328 325 320 319 317 318 329
336 340 341 339 335 339 337 334 331 320 315 315 322 339 337 334 337 332 329 325 324 317 315 318 318 317 318 320 322 322 324 323 322 323 323 322 321 318 317 314 313 312 314
336 338 340 338 337 337 336 334 331 323 315 315 315 319 328 337 336 328 326 326 325 319 315 318 318 318 319 320 321 322 323 324 324 322 322 322 321 318 314 312 309 308 307
337 338 340 340 341 339 337 337 332 326 317 314 313 314 321 322 323 323 325 325 323 320 315 317 319 319 319 319 320 322 324 323 324 323 322 323 323 321 319 314 309 307 306
336 337 338 339 339 337 337 334 333 330 325 320 317 313 313 316 318 320 322 323 323 321 317 316 319 319 319 318 319 320 322 322 323 322 321 322 321 321 318 317 311 308 306
341 341 338 335 340 338 335 333 330 330 330 328 325 322 314 313 313 314 317 320 320 321 318 316 317 319 319 319 318 319 319 320 321 321 321 321 321 320 319 317 316 310 306
343 342 339 337 338 338 336 335 333 330 329 328 326 323 321 315 314 314 314 315 317 318 318 318 315 318 319 319 319 319 319 320 321 321 321 321 321 320 319 318 317 315 307
342 340 337 336 337 339 338 336 334 330 329 329 326 323 321 322 316 315 314 314 315 316 315 315 315 315 318 319 319 319 319 319 320 320 320 320 320 320 319 318 318 317 313
341 340 337 337 335 336 335 333 332 331 332 329 327 324 323 321 323 316 318 320 322 325 324 321 318 316 317 319 320 321 320 320 320 320 319 320 319 319 319 318 318 319 317
341 340 338 337 337 337 336 335 334 335 334 331 328 330 330 327 327 327 326 325 326 327 328 328 327 326 325 322 323 323 325 324 322 321 322 321 320 319 319 318 318 319 319
339 339 338 337 337 337 337 336 336 335 335 334 331 330 332 333 333 333 333 333 331 330 330 330 330 329 328 328 328 328 327 327 328 327 327 327 326 322 319 318 318 318 318
337 336 338 339 339 339 338 338 338 337 336 335 335 332 331 332 334 334 334 334 334 333 333 331 331 331 330 330 330 329 330 330 329 329 328 328 327 327 324 320 318 317 317
334 335 337 339 339 340 340 339 339 338 338 337 336 336 334 333 333 334 334 334 335 335 335 335 335 333 332 332 331 331 330 330 330 330 330 329 329 328 327 325 321 317 317
323 329 335 337 337 338 338 338 339 339 339 338 337 336 336 335 334 335 335 335 336 336 336 336 335 334 333 332 331 331 331 331 330 330 330 329 329 328 328 327 325 323 317
318 318 323 328 331 335 337 336 337 338 339 337 337 336 336 336 336 336 336 336 335 336 335 334 333 332 331 332 332 331 329 330 330 329 328 327 328 328 327 327 325 323 321
318 317 317 319 322 325 329 330 334 336 336 333 332 334 335 334 337 336 337 336 335 335 332 332 332 332 329 328 331 330 328 327 326 325 325 325 326 326 325 325 324 321 319
317 316 316 317 317 318 320 320 322 323 324 326 329 332 332 334 335 335 334 333 333 334 334 333 332 331 327 326 329 329 327 326 325 324 324 324 325 324 324 323 322 321 319
316 316 316 316 316 316 316 316 317 317 317 318 318 319 319 318 318 319 319 320 320 320 323 328 329 327 327 325 325 326 326 328 326 324 323 322 322 321 321 322 323 321 322
315 315 315 315 315 314 314 314 314 313 313 313 314 314 314 314 314 314 315 315 315 316 319 322 325 328 326 325 326 327 325 325 323 324 323 322 321 319 320 321 320 320 320
314 314 314 314 313 313 312 312 312 312 313 313 312 312 312 313 313 312 312 312 311 311 312 316 321 326 326 325 326 324 323 323 322 322 321 321 319 319 317 317 317 317 317

GFSSE_850_thetae_069.txt.gz
Theta_e
333 337 341 337 338 338 338 337 338 337 335 335 334 329 325 320 329 319 327 329 326 326 327 329 330 331 336 335 332 331 329 325 319 314 315 315 315 318 315 315 316 317 321
331 342 342 339 339 338 337 336 334 334 335 334 331 324 319 324 323 326 322 319 315 318 322 325 328 331 335 332 331 329 325 318 315 317 322 323 320 319 319 323 327 329 315
332 343 338 341 336 338 337 333 333 336 336 324 322 320 318 327 330 327 329 322 313 310 311 315 327 330 330 330 329 325 318 316 320 325 331 330 326 326 326 332 333 332 330
335 339 336 338 340 337 334 337 338 339 338 325 321 320 323 329 332 331 331 323 312 310 311 312 323 329 328 327 324 318 317 326 328 333 333 329 327 328 333 334 334 333 330
334 337 341 339 340 335 337 337 339 334 334 325 324 324 329 332 336 335 333 322 313 312 313 315 318 325 323 321 317 317 320 325 330 332 331 332 332 331 331 333 332 332 330
332 338 342 338 340 335 337 335 329 327 325 324 325 326 329 333 336 336 332 322 314 314 314 315 316 317 317 316 319 321 325 328 331 331 330 330 330 328 325 323 322 327 331
333 338 336 343 340 335 335 333 329 322 317 318 329 327 328 333 337 335 332 323 316 315 316 315 315 315 316 318 320 321 322 324 327 327 326 325 325 322 317 315 314 314 324
333 338 338 343 338 336 335 332 326 320 317 317 332 331 328 335 338 333 330 323 319 315 317 317 317 317 318 320 320 321 321 321 321 321 321 320 319 316 313 311 309 308 309
334 339 339 339 336 338 337 333 328 319 316 315 320 333 338 338 338 330 326 323 321 316 317 318 318 318 319 320 320 322 322 322 321 321 321 322 321 319 317 313 309 307 306
337 341 341 340 336 337 336 334 332 322 315 315 315 315 319 324 321 325 324 324 323 319 315 318 319 318 318 318 319 319 320 320 321 321 320 321 320 319 318 317 312 308 306
338 339 340 339 341 338 337 336 333 327 319 314 314 314 317 319 321 323 321 323 323 321 317 316 319 319 319 319 319 319 320 321 321 321 321 321 321 320 319 318 317 312 307
339 339 340 339 340 339 334 333 332 330 327 324 323 320 314 313 314 315 318 320 321 321 319 316 316 318 319 319 319 319 319 320 321 321 321 321 321 321 320 319 318 317 311
338 338 338 340 339 339 335 332 331 330 329 329 328 325 322 317 314 314 314 314 316 318 319 318 316 316 318 319 319 319 319 319 319 320 320 320 320 320 320 319 319 319 317
341 341 340 338 336 339 337 335 334 331 329 327 327 325 322 321 320 315 314 314 315 317 317 316 315 315 316 318 319 320 320 319 319 319 320 320 320 319 320 319 319 319 319
341 341 339 336 336 337 338 336 334 330 330 331 328 326 323 322 321 323 316 318 318 321 325 324 322 319 318 318 318 319 320 321 322 321 320 320 320 320 319 319 318 319 319
341 340 338 336 334 334 335 334 332 332 333 333 329 327 330 328 325 327 323 323 324 326 328 328 328 327 327 327 326 326 326 326 326 326 326 325 326 326 323 319 318 318 318
337 340 339 337 337 337 336 336 335 334 335 334 333 330 330 332 333 333 333 333 332 331 330 329 330 330 329 330 329 329 329 329 329 328 328 328 328 327 327 325 320 318 317
336 339 340 338 338 337 337 337 337 336 336 336 335 334 332 331 332 333 334 334 335 334 334 333 333 332 332 332 331 331 331 330 330 330 330 330 330 329 328 327 326 322 318
335 337 339 339 339 339 339 338 338 338 338 337 337 336 335 335 333 333 333 334 334 335 335 335 334 335 334 334 333 332 331 331 331 330 330 330 330 330 329 328 327 325 321
333 333 334 336 336 337 338 338 338 338 337 338 337 337 337 336 336 335 334 334 335 335 335 335 335 335 334 333 331 330 330 330 330 329 329 329 329 328 328 328 328 326 324
330 326 326 328 330 332 333 334 335 334 335 337 338 337 337 336 336 336 335 335 336 335 335 334 333 332 331 330 331 329 326 325 326 327 326 325 325 325 326 326 326 326 324
317 319 318 319 323 326 327 330 331 330 329 333 336 336 335 334 335 334 334 334 334 335 334 334 334 333 333 332 332 328 328 326 325 325 325 325 324 323 324 324 324 324 323
317 317 317 317 318 320 323 326 327 325 325 327 328 330 330 330 332 332 332 333 333 332 330 330 332 333 333 332 328 326 327 325 324 324 323 322 322 322 322 321 320 321 322
316 316 316 317 317 318 319 319 318 318 318 318 318 319 320 321 321 320 320 319 319 320 320 320 322 327 331 330 328 326 325 327 325 323 323 322 322 320 320 320 320 321 321
315 315 315 315 315 315 315 315 315 315 315 314 314 314 314 314 314 314 314 314 314 314 314 314 315 319 325 328 329 326 325 327 325 324 322 321 319 319 317 318 318 317 317
315 315 315 315 314 314 314 313 313 313 312 312 312 313 313 313 313 312 312 312 312 312 312 312 312 313 317 326 328 326 325 327 322 321 320 318 318 317 316 315 316 316 315

GFSSE_850_thetae_072.txt.gz
Theta_e
339 344 340 337 336 339 339 340 339 339 337 335 333 326 323 325 319 327 327 327 328 337 337 334 334 335 335 332 331 328 321 316 315 318 316 317 317 317 321 327 329 327 314
341 344 342 337 337 339 339 338 337 335 334 333 328 320 324 323 324 321 318 315 320 324 325 327 329 333 333 331 329 322 316 315 320 327 326 324 324 324 332 333 333 327 313
343 346 341 338 339 339 339 336 334 336 327 324 322 319 327 326 328 329 319 312 310 311 314 326 329 329 329 328 322 316 318 324 329 332 329 332 328 334 334 334 333 329 317
344 346 345 341 339 341 337 334 336 336 324 322 320 323 329 330 330 329 319 311 310 312 313 324 328 328 326 321 316 317 327 329 332 332 335 334 333 333 334 333 332 329 331
344 344 344 338 341 338 335 337 339 330 328 323 322 326 330 335 335 329 319 313 312 315 315 320 324 322 319 316 318 320 325 330 330 336 336 336 335 330 327 325 331 331 332
344 343 341 342 340 336 337 336 332 327 325 325 324 328 333 336 336 329 320 315 314 314 316 317 317 317 316 318 320 324 327 330 333 334 334 331 330 321 318 316 318 328 333
343 345 341 341 338 336 337 333 328 321 318 325 325 328 332 335 336 328 323 317 316 316 315 315 316 316 318 319 320 321 323 325 332 330 330 330 318 315 313 311 311 312 321
343 346 340 342 339 335 335 333 324 318 318 322 328 327 332 336 338 331 324 320 315 317 317 316 316 317 319 319 320 321 320 320 327 329 324 326 319 318 315 311 309 307 307
343 345 342 342 339 337 335 333 324 317 317 325 332 327 333 337 338 331 326 324 319 316 318 318 318 318 318 319 319 320 320 321 329 323 322 329 319 319 317 316 311 308 306
344 346 342 341 338 339 337 334 329 317 316 320 321 327 331 328 322 326 325 324 322 317 316 318 319 319 319 318 319 319 320 321 329 322 326 324 321 320 319 318 317 312 308
344 344 344 344 341 341 338 335 332 322 315 315 317 316 318 328 323 323 324 324 324 322 317 316 318 319 319 319 319 319 319 324 327 327 327 321 321 320 320 319 318 317 313
342 342 344 344 343 341 338 336 334 329 322 319 318 315 323 321 324 319 320 321 322 322 320 317 316 318 319 320 319 319 320 320 321 324 325 321 320 320 320 320 319 319 318
340 340 342 341 341 340 338 338 337 334 331 328 327 325 322 316 314 314 314 315 316 318 320 319 318 317 317 319 319 319 319 319 320 320 321 320 320 320 320 320 319 319 319
339 339 338 339 339 339 339 337 338 336 331 330 327 326 324 322 321 315 315 314 314 316 318 318 317 316 315 316 318 319 320 320 320 321 321 320 319 320 320 319 319 319 319
340 338 340 339 339 338 339 338 338 337 330 331 329 328 326 323 321 323 321 315 316 317 321 325 324 323 320 320 320 320 321 323 323 325 324 324 322 324 324 322 319 319 319
341 341 340 339 338 338 338 337 338 337 334 331 330 327 327 329 326 324 324 319 322 324 326 328 329 329 328 328 328 328 328 328 328 328 328 327 327 327 327 326 324 321 322
339 338 340 337 336 337 338 337 337 334 333 333 333 330 329 331 332 332 332 332 332 332 331 330 329 329 329 330 330 330 330 330 329 329 329 329 329 329 329 328 327 326 322
336 339 340 338 337 337 338 337 337 336 335 335 334 334 333 331 331 332 333 334 334 334 334 334 333 333 333 333 333 333 332 331 331 331 330 330 330 329 330 329 329 328 326
335 337 339 340 339 338 338 338 337 337 337 337 336 336 335 335 334 333 332 332 333 334 334 335 335 335 335 334 333 333 332 331 330 330 329 330 329 329 329 329 329 329 328
335 337 338 337 338 339 339 338 338 337 336 336 336 336 337 337 336 335 335 334 334 334 334 335 335 334 333 334 333 332 330 329 328 326 324 327 328 326 326 326 326 327 328
334 333 334 334 336 337 337 337 337 336 335 335 337 337 338 337 337 336 336 335 335 335 336 335 335 335 334 334 332 332 331 328 326 324 326 326 325 325 324 324 325 325 325
319 328 329 329 331 333 333 333 332 332 334 333 331 335 336 336 335 335 335 334 334 334 334 334 335 334 334 334 333 331 330 326 325 325 325 325 324 323 323 323 322 322 322
318 317 318 320 319 323 326 327 328 329 330 330 328 329 330 331 330 329 329 330 331 333 332 333 332 334 333 330 330 330 329 325 324 325 324 323 323 323 322 321 321 321 321
317 318 317 317 317 319 322 323 325 326 325 322 320 320 320 319 320 321 322 322 322 322 320 320 320 319 320 326 326 328 329 327 326 324 323 323 323 321 321 320 318 318 319
316 316 316 316 316 317 318 318 317 317 316 316 315 315 315 314 314 314 315 315 315 314 314 313 313 313 314 317 325 325 326 327 325 323 323 322 320 319 319 318 317 316 316
316 315 315 315 315 315 315 315 315 314 314 314 313 313 313 312 313 313 313 313 312 312 312 312 312 312 312 313 319 322 324 325 324 323 322 320 318 317 317 316 317 313 315

GFSSE_850_thetae_075.txt.gz
Theta_e
347 339 336 335 336 341 339 340 340 339 336 335 329 329 323 327 330 328 328 337 342 341 339 337 335 335 332 331 326 316 314 317 321 319 320 320 324 333 333 332 329 317 312
346 339 337 336 336 339 339 339 338 336 335 332 323 325 322 321 320 318 320 323 326 326 328 328 330 332 330 327 317 315 318 327 329 327 330 329 334 334 333 333 326 315 313
346 344 339 337 339 340 339 337 335 334 326 326 321 324 330 327 322 314 311 310 311 314 323 327 328 328 326 319 317 322 328 332 330 333 333 334 335 335 333 332 328 328 329
346 342 343 337 338 340 339 334 335 324 323 321 322 329 335 329 325 316 311 311 312 314 325 327 327 324 320 315 319 327 331 331 332 335 335 334 334 328 326 330 331 332 333
346 345 343 341 338 341 334 335 335 326 324 321 326 329 334 335 328 318 313 313 314 315 323 324 322 318 316 319 320 327 330 331 335 334 333 333 332 318 319 319 327 332 334
346 346 344 339 340 336 335 340 329 328 326 323 327 331 337 336 330 320 315 314 315 315 318 319 317 316 318 320 323 325 328 330 334 334 333 331 315 313 312 312 313 321 331
344 348 341 341 340 336 335 331 326 324 323 324 327 332 337 338 329 321 316 316 315 315 316 316 316 317 319 320 320 321 323 328 332 332 331 323 317 316 312 310 308 308 311
344 344 342 343 338 337 335 331 324 318 324 326 327 332 336 338 332 324 319 316 317 317 316 316 317 318 319 319 319 320 320 323 331 331 331 323 319 318 317 314 311 308 307
345 344 342 341 338 338 336 332 322 318 323 327 326 331 339 337 335 328 322 319 316 318 318 318 318 318 319 319 319 320 320 322 331 329 330 330 320 319 318 317 317 312 309
344 344 343 341 339 337 335 333 321 319 321 327 328 329 338 330 322 326 323 322 319 316 317 319 319 319 319 319 319 319 320 322 332 329 331 323 320 320 320 319 319 317 313
342 341 344 342 342 341 339 333 326 318 320 324 322 320 326 333 325 324 322 323 322 320 317 316 318 319 319 319 319 319 319 329 330 331 330 323 320 320 320 320 319 319 318
341 342 343 341 341 341 340 334 334 319 317 326 326 316 335 336 336 334 321 321 321 321 321 318 316 317 319 326 323 320 323 327 327 329 328 321 320 319 319 319 319 319 319
342 342 342 341 341 341 340 337 338 336 332 331 333 333 332 331 324 315 323 316 317 318 320 322 319 321 330 322 323 324 321 319 325 327 326 321 320 319 319 320 319 319 319
343 342 342 341 340 341 340 340 338 337 337 336 336 335 333 330 327 329 328 329 323 328 330 332 331 329 327 321 326 326 325 321 323 325 325 323 322 321 323 323 321 320 319
342 341 343 341 342 341 340 339 339 338 337 337 336 335 334 333 331 330 328 326 326 324 327 330 330 329 328 327 328 328 328 327 327 326 326 326 326 325 326 326 325 324 323
341 341 341 342 342 340 341 339 340 338 338 337 337 336 329 333 331 326 329 323 322 323 329 331 332 332 332 332 331 331 331 330 330 330 328 328 328 328 328 328 327 327 325
342 342 341 343 341 340 341 340 339 338 338 338 338 337 329 330 331 330 330 333 330 331 331 331 331 331 332 332 332 333 332 332 332 332 331 330 329 328 329 329 329 329 328
341 341 342 342 341 340 340 339 339 339 338 339 339 338 337 332 330 331 332 333 335 334 333 334 334 334 334 334 334 334 334 333 332 332 332 332 331 329 329 328 329 329 329
341 341 342 342 340 340 340 340 339 339 339 339 339 339 339 338 336 333 333 333 334 335 335 335 335 335 335 335 334 334 333 333 333 332 332 331 331 331 329 328 328 327 328
339 341 341 340 340 341 340 341 340 341 340 340 340 339 340 339 339 336 336 335 336 335 335 335 335 336 335 334 333 333 332 332 332 332 329 329 328 329 329 326 325 325 325
333 337 339 338 338 340 340 340 339 340 339 339 338 339 338 338 337 338 336 336 336 335 335 335 334 334 334 333 333 331 330 332 331 329 328 327 327 327 326 324 323 323 322
318 330 334 337 338 338 340 338 339 339 339 339 338 334 335 336 337 336 336 336 336 336 336 335 335 335 336 335 331 329 329 326 326 326 326 325 325 325 323 322 322 321 321
317 318 327 332 332 331 335 335 332 333 332 333 334 333 327 328 330 332 332 331 331 333 336 335 335 334 331 330 329 328 327 326 326 325 325 325 324 323 322 322 321 320 319
317 318 317 317 320 321 320 326 329 331 331 331 328 326 322 320 320 319 319 320 320 321 322 321 320 320 325 325 323 323 325 323 326 324 324 323 323 321 322 321 319 318 316
317 316 318 317 317 317 318 321 323 325 326 323 318 316 316 316 315 315 314 314 314 314 314 314 314 313 312 313 317 322 322 322 322 323 325 322 320 321 320 318 318 317 316
319 316 316 317 317 316 317 317 317 316 316 315 314 314 314 313 313 313 312 312 313 313 312 312 312 312 312 313 313 319 323 325 323 325 323 323 321 320 318 317 316 316 315

GFSSE_850_thetae_078.txt.gz
Theta_e
348 334 338 341 337 337 338 340 339 335 334 325 338 319 333 329 329 336 342 342 342 341 338 335 333 332 328 318 314 318 325 324 323 324 332 333 333 333 330 320 314 312 317
336 331 334 342 341 338 338 338 336 335 333 323 325 319 325 320 323 325 328 332 330 330 329 328 329 327 320 315 318 329 328 329 331 331 331 335 335 334 329 326 327 325 316
331 331 334 340 339 339 337 336 332 327 325 321 325 325 323 316 312 311 313 316 318 324 325 326 326 321 315 322 327 331 331 334 334 333 334 331 327 329 329 330 331 333 331
328 331 334 339 340 339 336 331 324 322 321 323 330 330 327 318 312 311 311 311 316 324 324 323 320 316 316 325 329 329 330 334 334 333 333 329 319 318 320 329 333 334 330
332 332 337 340 341 339 332 331 323 322 322 326 328 334 331 322 314 313 314 313 319 323 321 318 316 317 319 323 328 328 332 333 333 332 329 323 314 313 312 315 324 332 332
341 339 339 339 340 336 333 329 325 324 323 327 329 336 334 324 317 314 315 315 317 319 317 316 316 318 320 322 325 326 332 333 333 332 324 316 315 313 311 309 309 311 321
346 343 341 339 339 333 338 327 324 325 324 327 330 337 336 325 320 316 316 315 316 316 316 316 317 318 319 319 321 321 327 327 328 329 321 318 318 317 314 311 309 308 307
346 344 339 339 337 335 334 327 322 322 324 327 331 337 334 332 323 318 316 317 316 316 316 317 318 318 318 319 319 319 321 329 330 326 324 321 319 319 318 317 314 310 308
346 345 338 341 337 337 334 330 320 324 325 326 331 335 338 329 325 321 318 317 318 318 317 318 318 318 318 319 319 320 320 327 327 324 327 321 320 320 319 319 318 316 311
345 340 342 339 337 337 334 330 321 326 327 325 328 334 334 323 321 321 320 319 317 317 318 319 318 318 318 318 319 319 319 325 327 328 328 324 320 320 320 320 319 319 318
342 341 341 340 337 336 334 330 319 327 331 330 328 332 333 323 322 321 321 320 320 319 317 317 318 319 319 319 319 318 319 323 330 329 327 324 320 319 319 319 319 319 320
341 342 341 338 340 339 336 332 323 320 325 323 323 321 336 336 331 323 322 320 320 320 320 318 317 316 317 320 321 320 322 324 325 326 325 321 320 319 319 319 319 319 319
341 340 341 340 340 338 338 335 332 321 320 332 333 326 335 336 334 326 317 317 316 317 318 319 320 321 321 321 322 320 322 320 320 325 325 323 321 321 320 322 323 321 319
339 340 340 339 339 339 339 339 338 336 334 332 333 333 332 329 326 325 325 323 318 316 318 322 321 327 326 321 323 324 323 323 323 323 324 324 324 325 324 325 325 324 323
341 340 341 339 340 338 338 339 338 337 337 337 336 335 334 332 330 326 325 324 321 320 321 324 326 326 328 328 327 327 328 328 328 328 327 327 327 327 327 327 327 327 326
341 341 340 341 340 339 338 338 338 338 338 337 337 334 334 333 330 328 326 324 321 319 322 325 328 331 330 331 331 331 330 330 330 330 330 329 328 327 328 328 329 329 328
340 340 338 340 340 339 338 338 336 338 338 337 337 337 330 329 329 328 325 329 328 329 330 330 330 330 330 330 330 331 332 332 331 331 331 331 331 330 329 328 329 329 329
340 341 340 337 339 340 339 337 337 338 338 338 338 338 335 330 329 330 331 332 333 334 333 333 333 333 333 333 333 333 333 333 333 333 332 332 332 332 331 328 326 328 328
338 337 338 340 339 337 338 337 337 338 338 337 338 339 339 335 334 333 332 332 333 334 334 334 333 333 334 334 333 333 332 333 332 331 332 332 332 331 330 328 329 325 325
339 340 339 338 338 339 338 338 338 338 338 337 339 338 338 339 338 338 335 336 335 335 335 334 334 334 333 333 333 333 333 332 330 330 330 327 326 327 326 327 327 324 323
336 340 338 337 338 340 339 339 338 337 337 337 338 338 339 338 337 337 337 338 336 337 336 335 335 334 334 334 333 332 330 328 326 326 326 329 326 326 326 325 324 322 322
326 335 335 337 334 336 338 338 337 338 338 338 338 337 337 337 336 336 336 336 335 335 335 333 333 332 331 332 330 328 328 327 324 325 325 329 326 325 324 324 321 322 321
319 321 332 335 339 337 337 337 337 336 335 334 334 336 333 331 331 332 332 332 333 336 337 334 333 330 330 329 329 328 328 326 326 325 325 325 325 323 323 321 320 319 318
321 318 320 332 333 334 333 331 331 330 334 334 333 331 328 326 323 321 320 318 318 317 317 318 318 319 320 320 321 324 324 324 326 325 321 323 324 322 321 321 319 319 318
322 320 317 318 320 326 327 326 327 330 330 330 329 328 322 317 316 315 315 314 313 313 313 313 313 313 313 313 313 313 322 324 321 323 323 321 322 322 320 321 319 318 317
322 320 319 317 317 317 317 317 319 322 323 324 321 316 315 314 314 314 313 312 312 312 312 312 312 312 312 312 312 314 320 320 321 322 321 321 323 322 321 320 317 316 315

GFSSE_850_thetae_081.txt.gz
Theta_e
346 335 334 335 336 336 337 337 334 332 329 333 327 330 330 340 341 342 342 342 341 339 335 332 329 322 313 319 326 323 324 331 332 334 334 335 330 324 324 323 318 314 321
343 334 334 335 336 337 338 335 335 330 329 318 332 326 326 330 337 341 340 338 336 331 327 324 322 314 318 328 326 329 330 330 332 332 332 328 332 329 328 331 330 328 316
338 334 335 337 337 338 337 333 331 324 321 320 317 314 316 320 323 326 328 329 328 321 322 322 315 320 326 328 329 333 333 333 333 329 322 321 320 329 329 335 334 328 326
330 332 335 337 337 335 333 327 323 321 321 329 322 316 312 310 310 311 312 314 319 322 319 316 315 323 326 327 328 332 332 331 332 330 324 315 313 313 315 329 333 331 330
330 331 338 339 338 334 329 322 321 322 324 330 329 320 314 313 313 312 313 319 319 318 317 316 318 321 325 325 328 331 332 332 327 324 316 314 312 311 310 311 315 323 323
332 334 340 340 337 331 328 323 322 323 325 329 336 323 316 314 314 314 316 318 317 317 316 317 319 321 323 324 326 330 331 330 326 321 318 317 316 314 312 310 309 308 310
333 339 341 340 336 331 328 325 323 323 325 328 335 323 318 316 315 315 316 316 316 316 317 318 318 319 320 321 322 325 324 324 323 322 320 319 318 318 317 314 311 309 308
337 338 339 339 334 339 329 325 324 324 326 329 336 331 322 318 317 317 316 316 316 317 317 318 318 318 318 319 319 320 326 326 325 323 323 320 320 319 319 318 317 313 310
343 340 339 338 334 337 329 325 322 324 326 331 337 333 328 323 318 317 318 318 317 317 318 318 318 318 318 319 319 319 323 325 323 323 324 322 320 320 320 319 319 319 316
346 340 338 337 334 332 329 322 322 324 326 329 335 335 323 321 320 319 318 318 318 319 319 319 319 319 318 319 318 319 321 325 325 326 324 324 320 319 319 319 319 319 319
345 341 340 336 335 334 330 322 323 327 325 327 331 334 326 322 321 320 320 320 319 318 317 318 318 319 318 319 319 318 320 323 324 326 325 323 321 319 319 319 319 319 319
342 338 341 337 336 335 331 323 320 326 326 326 328 330 330 326 324 322 320 320 320 319 319 318 317 316 317 318 319 319 320 320 321 323 323 322 322 321 320 321 322 321 319
341 340 339 337 335 333 333 329 319 320 323 322 320 331 332 332 329 326 318 317 317 317 317 318 319 320 321 319 317 318 320 320 320 321 323 323 324 324 324 323 324 324 323
341 338 341 338 337 337 337 334 334 323 322 328 331 333 333 334 330 322 319 320 319 317 318 320 320 320 322 323 323 323 324 325 325 326 325 325 326 326 326 326 326 326 326
339 339 340 339 338 337 336 337 337 337 333 333 332 333 332 331 326 324 323 322 321 319 319 320 323 325 326 327 327 327 328 327 327 328 328 328 328 328 327 327 328 328 327
338 339 340 340 338 337 337 339 337 336 336 336 336 334 333 331 329 327 325 324 323 320 320 323 325 328 329 329 330 330 329 329 329 330 330 330 330 330 330 330 329 328 328
332 337 338 339 338 338 337 337 337 337 336 336 337 336 332 331 330 327 326 325 326 325 327 329 330 330 330 330 330 330 331 332 332 332 332 332 331 331 331 330 329 326 327
336 335 338 340 338 339 338 337 337 337 337 336 337 335 333 328 328 329 329 329 331 332 332 332 332 332 332 332 332 332 332 332 331 332 333 333 332 331 330 329 329 327 326
334 338 336 338 337 337 338 338 336 337 338 337 336 336 336 335 331 331 330 331 331 333 333 333 333 333 333 332 332 331 331 331 331 332 331 330 331 330 329 326 325 326 326
336 336 337 337 337 338 337 336 336 337 338 336 335 336 337 336 336 335 335 334 334 335 334 334 334 333 333 332 332 331 332 332 330 328 325 325 328 327 325 325 324 325 324
333 334 336 336 337 337 337 336 335 336 337 336 336 338 337 339 338 336 335 335 335 334 335 334 333 334 333 332 332 330 329 328 327 325 323 324 328 328 325 326 322 323 321
333 333 334 337 335 335 336 337 335 335 336 337 334 336 336 337 336 336 336 336 337 337 334 333 332 331 331 329 328 327 326 326 325 323 324 325 326 326 324 323 323 320 320
324 332 333 332 333 333 334 334 338 336 336 335 334 333 335 336 336 333 330 328 326 330 333 332 331 328 328 327 326 327 327 325 325 323 325 326 325 324 323 323 321 319 318
323 322 327 334 332 331 332 333 333 332 330 330 330 331 332 333 332 330 328 326 321 318 316 316 317 318 317 316 317 318 325 326 324 323 322 322 324 323 323 322 321 320 319
323 323 322 320 332 333 331 331 330 330 332 333 334 333 331 328 325 318 316 315 314 314 313 313 312 312 313 313 313 312 313 314 318 321 322 320 321 322 322 322 321 320 317
323 323 321 320 318 328 332 332 329 328 326 328 328 327 327 322 315 315 314 313 313 312 312 312 312 312 312 312 312 312 312 313 317 320 322 321 320 321 322 321 320 319 316

GFSSE_850_thetae_084.txt.gz
Theta_e
341 338 338 336 335 335 336 335 328 330 321 330 338 340 342 342 341 342 342 341 338 337 332 326 315 315 324 322 321 329 330 333 333 331 332 328 327 330 330 326 317 320 322
338 335 335 335 335 336 337 333 328 338 329 330 332 340 341 342 342 341 341 339 334 330 322 317 315 325 323 324 326 327 329 330 328 322 322 328 326 333 335 332 326 320 318
336 334 335 335 336 337 333 334 325 326 321 323 326 331 338 341 340 340 337 333 326 319 318 316 322 325 325 328 328 330 326 323 320 317 315 316 323 329 333 332 327 332 333
335 335 335 336 338 336 330 328 322 320 318 314 314 321 326 328 330 330 327 317 319 317 315 321 325 325 325 327 332 331 325 322 320 316 313 312 312 312 318 329 333 323 329
335 336 337 337 337 332 325 322 320 330 322 317 313 311 311 311 311 312 316 317 317 315 316 321 323 322 323 325 328 327 325 324 320 317 316 314 313 311 310 309 311 314 317
336 338 338 338 335 329 321 321 321 328 329 321 315 313 314 313 313 316 316 316 316 317 318 319 321 321 323 324 326 325 324 323 321 318 318 318 318 316 313 311 309 309 309
337 339 338 338 334 328 322 322 322 325 335 327 317 315 315 315 316 317 316 316 317 317 318 319 319 320 321 322 323 322 322 322 322 322 320 319 319 319 318 317 314 311 309
335 340 340 337 333 329 325 323 323 324 333 336 320 317 316 316 316 316 317 317 317 318 318 318 318 319 319 319 320 322 324 323 321 323 322 320 320 319 319 319 319 317 313
339 340 340 336 334 329 326 325 323 325 331 340 326 320 317 317 317 317 317 317 317 317 318 318 318 318 319 319 319 320 322 323 323 323 323 323 320 319 319 319 319 319 319
338 339 340 335 340 333 326 323 324 325 331 337 336 325 320 318 317 318 318 318 318 318 318 318 318 318 318 318 319 319 321 324 323 323 323 324 321 319 319 319 319 318 318
341 339 339 334 336 331 326 320 323 324 328 336 336 327 322 320 319 319 318 318 318 318 318 318 319 318 318 318 318 318 320 322 321 321 322 323 322 321 320 320 321 321 320
343 340 338 334 333 331 326 320 324 324 327 329 332 329 322 322 321 321 320 320 320 319 318 317 316 316 317 319 320 318 319 320 319 320 322 323 323 323 323 323 324 324 323
343 340 340 336 335 333 328 319 324 325 324 328 330 328 326 325 325 324 320 318 319 318 319 319 319 319 320 320 319 318 320 321 322 322 322 324 324 325 325 325 325 326 326
340 338 338 337 335 334 331 323 320 324 325 324 323 331 330 329 327 324 319 320 319 318 318 320 321 321 323 324 324 325 325 326 326 326 326 326 327 327 327 327 327 327 327
335 336 339 337 335 332 335 334 330 322 320 325 328 330 330 329 328 325 323 322 321 319 319 320 322 325 326 327 328 328 328 327 327 328 328 328 329 330 330 330 330 329 328
327 327 338 338 337 337 335 336 337 336 335 332 330 330 330 330 329 327 323 323 323 321 320 321 324 327 329 329 329 329 329 329 330 330 331 331 331 331 331 331 330 328 325
330 329 330 337 337 337 336 336 337 336 336 335 335 335 334 332 330 328 325 324 324 323 323 326 328 329 330 330 330 330 331 331 331 330 331 332 332 332 331 329 328 325 326
336 335 335 333 337 337 337 336 337 336 336 336 336 336 335 333 330 328 327 325 328 329 330 331 331 331 331 331 331 331 331 330 330 330 330 330 331 331 329 327 327 326 323
333 334 336 336 333 337 336 337 336 336 336 336 335 335 334 334 329 329 329 329 330 331 331 332 333 333 333 331 331 330 331 330 330 331 332 332 328 328 328 327 325 324 324
334 335 332 331 329 328 336 337 336 336 335 336 336 334 334 334 335 334 334 334 333 333 334 334 334 334 332 331 330 330 330 329 330 328 328 326 326 327 329 324 324 322 323
335 334 336 335 335 332 336 335 336 336 336 338 337 335 335 335 335 335 334 334 334 333 333 332 333 332 330 329 330 327 327 326 326 325 324 322 323 325 326 325 324 323 322
333 333 334 337 337 336 335 336 335 335 335 334 334 334 336 337 336 335 335 335 335 334 333 332 332 330 330 329 327 327 326 325 323 323 324 323 323 326 326 325 322 321 319
328 331 330 332 335 336 335 335 334 335 334 334 334 335 333 333 333 333 336 335 335 336 330 326 327 329 327 326 325 326 326 326 325 323 324 325 324 323 324 323 322 322 320
323 325 332 331 332 335 334 334 333 333 334 331 333 332 329 332 331 334 336 334 328 322 320 320 319 320 320 318 317 317 321 324 324 322 321 322 323 322 321 321 321 322 321
322 323 323 329 331 331 333 333 332 331 331 330 330 330 330 329 331 331 330 325 320 316 314 314 313 313 312 312 312 312 312 314 318 322 318 319 320 321 321 321 320 320 320
321 322 321 322 322 330 331 330 330 331 330 330 330 328 329 329 328 325 321 316 314 314 313 312 311 311 311 311 311 311 312 312 312 316 318 319 321 321 321 321 320 320 318

GFSSE_850_thetae_087.txt.gz
Theta_e
341 338 338 337 335 334 336 331 322 328 339 340 338 333 332 333 334 340 340 338 337 334 327 315 314 320 320 324 328 332 331 327 329 328 324 329 335 333 326 318 317 317 319
339 338 338 339 334 335 336 326 328 321 337 340 338 341 338 338 341 342 340 338 334 326 317 315 323 320 323 325 326 328 323 318 316 316 320 329 333 332 330 326 329 330 327
338 337 338 336 334 337 334 329 332 333 331 340 341 342 343 342 341 341 338 334 325 317 314 322 321 321 323 324 323 320 319 318 315 313 313 315 326 330 332 331 330 332 334
337 336 336 334 337 336 332 328 323 328 327 335 340 341 341 341 340 337 333 321 317 315 319 322 321 322 323 325 323 320 320 317 316 314 313 312 311 312 315 325 326 322 331
336 335 334 336 337 333 331 323 319 315 316 325 330 333 335 334 333 325 316 315 315 319 320 320 320 320 321 321 320 321 320 318 318 317 317 316 315 313 311 310 310 310 315
336 336 335 339 336 332 331 321 324 331 313 311 312 315 316 315 313 315 316 315 316 319 320 319 320 321 322 322 322 322 321 320 319 319 319 319 319 318 317 314 312 310 309
337 336 338 338 333 326 327 322 334 327 317 313 313 313 312 314 316 316 316 317 317 318 320 320 321 322 323 323 322 322 322 321 322 321 320 319 319 319 319 319 318 315 311
338 338 338 337 331 322 322 322 334 336 325 316 314 314 315 316 316 317 317 317 318 318 319 320 321 321 321 322 321 322 323 321 321 322 322 320 319 319 319 319 319 319 318
338 338 338 336 330 324 322 322 329 337 332 320 315 315 316 316 317 317 317 317 318 318 318 318 319 319 319 320 321 321 322 322 323 323 322 322 320 319 319 319 319 318 318
340 339 339 336 332 326 326 323 325 335 339 329 320 316 316 316 316 317 317 317 317 318 318 318 318 319 319 319 319 320 321 322 322 322 322 322 321 321 320 320 321 321 320
340 340 339 334 336 329 327 324 323 329 337 335 330 322 317 317 317 317 317 317 318 318 318 318 318 318 318 318 318 318 321 321 321 321 322 323 323 323 323 323 323 324 323
339 339 339 335 339 333 327 322 323 327 333 335 332 325 321 320 319 318 318 317 317 317 317 317 317 318 318 319 320 319 320 320 319 320 322 323 324 324 325 325 325 325 325
342 339 339 337 334 332 328 321 324 325 329 333 331 325 323 322 322 322 321 321 320 320 319 319 318 318 319 321 319 319 320 322 323 324 323 324 325 326 327 326 326 326 326
333 337 338 337 333 331 330 322 325 324 327 328 330 328 325 325 325 325 323 319 318 317 318 320 322 322 323 324 325 325 325 326 326 326 326 327 328 329 330 330 329 329 327
327 328 335 335 336 333 331 323 324 327 325 327 327 328 329 330 329 325 321 322 322 319 319 321 322 324 325 327 327 328 328 327 327 328 328 329 330 331 331 331 330 329 327
330 326 333 332 333 334 331 330 322 321 322 323 323 326 327 328 328 327 326 324 323 322 320 320 322 325 328 329 329 329 329 329 330 330 330 330 331 331 332 330 328 327 326
330 327 327 331 334 333 333 332 334 334 332 329 329 330 329 328 329 329 328 325 325 324 321 323 326 328 329 330 330 330 331 331 330 330 329 329 329 329 330 328 326 325 325
330 327 327 327 331 334 334 333 335 336 336 335 334 335 334 334 332 331 329 327 326 327 327 328 330 330 331 331 331 331 329 329 329 329 329 329 329 329 330 325 326 325 324
328 328 328 327 326 329 328 335 336 336 336 335 335 334 335 334 334 331 329 329 327 330 331 331 332 332 332 332 329 330 328 329 329 329 329 329 330 328 325 327 327 325 323
334 334 330 329 330 329 332 334 331 335 335 336 335 334 334 333 334 330 330 330 331 331 332 333 333 333 332 331 329 329 329 329 327 327 327 326 326 326 325 326 325 323 323
334 333 334 334 334 335 334 332 329 333 335 336 336 335 335 333 333 333 333 333 332 332 332 332 330 331 329 329 329 327 326 324 324 323 324 322 321 320 323 326 326 324 322
334 333 334 333 332 332 329 328 331 328 329 336 334 334 333 333 334 334 334 333 334 334 334 332 331 330 330 327 327 327 326 324 320 322 323 323 322 323 325 325 325 323 322
333 332 332 332 334 334 335 334 335 334 334 336 334 333 332 331 333 332 331 331 331 333 333 333 332 327 327 325 326 328 325 325 324 323 322 323 323 324 323 323 322 321 321
323 329 331 331 332 333 335 335 335 335 335 335 334 333 333 333 331 330 327 327 327 331 335 329 323 321 320 317 318 317 319 321 325 321 320 321 322 322 321 321 321 320 321
323 323 324 331 331 331 333 332 333 334 334 333 332 333 329 328 330 329 328 329 331 331 327 317 314 313 313 312 312 312 312 313 314 319 320 319 317 319 321 321 320 321 321
321 321 322 322 329 330 330 331 331 331 331 331 331 330 328 328 328 327 325 326 327 321 315 314 313 312 311 311 311 311 311 312 313 313 315 316 316 318 318 319 320 319 319

GFSSE_850_thetae_090.txt.gz
Theta_e
340 339 340 336 334 334 332 325 323 338 338 335 328 329 329 333 336 339 340 337 335 328 316 312 318 319 324 331 330 323 321 322 321 327 333 333 331 323 322 325 326 322 318
338 339 338 335 334 335 334 322 327 339 339 336 330 332 333 334 339 340 338 337 330 318 313 320 318 322 324 327 321 317 315 314 315 320 328 331 329 327 333 332 334 333 330
339 338 339 336 334 336 332 323 326 339 338 340 336 335 335 337 341 340 337 331 320 313 319 318 319 320 321 319 318 317 315 314 313 313 313 317 321 329 325 323 329 331 329
338 339 338 335 334 336 329 331 327 338 339 343 342 341 341 342 340 338 330 320 314 317 319 319 320 321 321 320 320 318 317 317 316 315 314 312 312 311 311 311 311 317 329
338 338 337 333 338 336 329 329 331 333 339 340 342 342 342 340 336 332 320 315 316 320 319 320 320 320 320 320 320 320 318 318 318 318 318 318 318 316 314 313 311 310 313
338 337 334 336 338 331 326 322 318 326 332 339 340 340 337 334 325 316 315 316 319 319 319 320 320 320 321 322 322 321 320 320 320 319 319 319 319 319 319 318 316 313 311
337 335 336 338 335 330 324 320 328 314 320 326 329 330 328 318 315 315 315 317 319 319 320 321 322 322 322 322 322 322 322 322 321 320 319 319 318 318 318 318 319 318 316
336 335 340 338 333 331 323 334 328 317 312 311 311 312 312 315 316 316 317 317 319 320 320 321 321 322 322 322 323 323 323 321 322 321 321 319 319 319 319 319 318 318 318
336 337 339 336 331 325 323 335 333 326 316 314 313 314 322 316 316 316 317 318 319 320 321 321 322 321 321 320 320 322 322 322 322 322 321 320 320 320 320 321 321 321 319
337 337 338 335 328 322 321 332 336 335 324 316 315 316 317 317 317 316 317 318 318 319 319 319 320 320 319 319 319 320 321 322 321 322 322 321 322 323 323 322 323 323 323
338 337 337 335 329 325 322 324 335 336 330 322 316 315 316 316 316 317 317 317 318 318 318 318 318 319 319 318 318 318 320 321 320 320 322 323 323 323 324 324 324 324 324
339 338 338 334 333 327 326 323 327 336 336 328 325 318 316 316 317 317 317 317 318 318 318 318 318 318 318 319 320 319 320 320 321 321 322 323 324 324 325 325 326 326 326
339 340 339 335 338 333 327 323 323 329 335 335 330 323 319 318 317 317 318 318 318 317 317 317 317 316 317 320 320 319 320 322 324 324 324 325 326 327 329 329 329 328 327
339 336 338 337 337 337 332 322 323 324 331 335 332 325 322 321 321 321 321 320 321 320 319 320 320 321 322 323 324 324 325 326 326 326 326 327 328 329 330 330 330 329 326
338 334 332 335 335 335 334 327 324 324 326 330 332 331 324 324 324 325 323 320 319 319 319 321 323 323 324 325 327 327 328 327 327 328 328 330 330 331 331 330 329 327 326
332 328 330 329 332 335 334 331 323 327 325 327 329 331 328 330 331 327 324 323 322 321 320 321 322 324 327 328 329 328 328 329 329 329 329 329 329 329 329 329 326 325 325
327 327 327 327 328 330 334 333 327 324 327 325 326 324 328 328 329 329 327 325 324 323 322 321 322 326 328 329 329 330 330 330 329 329 328 328 327 327 327 328 327 325 324
328 327 329 325 326 327 331 333 334 330 326 324 326 329 330 331 331 331 330 329 327 326 325 324 328 329 330 330 331 331 329 329 328 328 328 328 327 328 328 330 327 324 324
331 330 326 326 326 327 329 332 332 333 334 334 334 334 335 334 334 334 331 330 329 327 329 330 330 331 332 332 331 328 329 328 328 328 326 326 327 327 327 327 325 326 322
330 330 326 327 327 328 328 326 329 327 332 332 333 333 335 334 334 334 331 330 330 329 330 331 332 332 331 330 330 328 329 327 326 324 325 325 326 324 324 325 325 326 324
330 329 327 327 327 328 327 327 327 327 327 331 334 336 335 334 334 333 332 332 332 333 332 331 330 330 329 329 327 325 326 323 322 320 319 321 322 321 320 321 324 326 322
332 329 329 328 328 329 331 332 329 331 331 331 329 332 334 334 335 334 334 333 333 332 332 332 331 330 328 328 329 327 326 322 321 321 320 322 323 322 322 324 325 324 324
331 333 333 332 333 332 332 334 333 330 329 329 329 327 334 332 333 331 331 332 330 330 331 333 331 329 331 328 326 328 325 324 324 321 322 320 319 319 323 322 323 322 321
327 330 332 332 332 333 332 332 331 330 329 330 329 331 334 332 330 330 331 327 328 326 327 327 329 332 328 320 316 314 314 317 320 319 319 320 320 320 321 321 321 319 319
321 322 326 331 331 331 332 331 332 332 332 331 331 333 332 332 331 330 329 329 327 326 325 326 326 321 314 313 312 311 311 312 312 315 316 315 316 318 317 319 320 319 319
320 320 322 322 323 330 330 330 331 331 331 331 331 330 331 331 329 329 329 328 324 326 326 325 315 313 312 311 311 311 311 311 312 313 314 313 313 315 317 317 316 317 319

GFSSE_850_thetae_093.txt.gz
Theta_e
340 341 341 337 332 332 330 324 324 336 338 325 329 331 330 335 338 341 339 336 331 317 323 326 320 334 329 322 320 319 318 326 331 331 331 324 328 329 333 332 329 326 324
339 340 341 334 332 332 329 321 333 338 336 323 331 330 330 336 338 341 336 334 321 313 318 318 325 331 321 316 315 314 314 317 322 324 326 328 332 324 328 334 331 328 327
338 341 340 334 336 333 328 324 337 339 335 329 330 329 335 338 340 338 336 326 314 318 317 320 322 322 317 317 316 315 314 313 313 314 315 315 315 312 317 323 322 323 329
337 340 339 334 337 335 323 325 338 340 337 333 334 335 336 340 341 337 329 316 315 318 318 320 320 319 319 318 317 317 317 316 316 315 315 314 314 313 312 311 312 317 325
338 338 338 334 337 334 326 322 337 339 341 339 337 336 341 341 338 330 319 314 319 318 320 321 320 321 320 320 319 319 318 319 319 319 319 319 318 318 317 315 313 312 313
338 339 336 334 337 333 330 328 338 338 342 342 342 342 341 338 333 324 315 317 319 319 320 320 320 321 322 321 321 321 320 320 319 319 319 319 318 318 318 318 318 315 313
339 338 334 338 337 330 327 322 332 339 340 341 341 340 336 329 317 315 316 319 319 320 321 322 322 323 322 322 322 321 322 322 322 320 318 318 318 318 318 318 318 318 317
338 335 335 338 333 328 321 320 319 330 334 337 337 335 331 318 316 315 319 320 321 321 321 322 323 323 323 323 323 323 322 322 322 321 320 319 319 320 320 321 320 320 319
336 334 340 337 331 326 326 330 318 314 318 322 324 320 317 316 315 316 318 321 321 321 321 322 322 322 321 321 321 322 323 323 323 322 321 321 321 322 322 323 323 322 322
335 337 339 336 329 326 336 329 330 319 313 312 312 326 316 316 316 317 317 319 320 321 322 321 321 320 319 319 319 320 321 322 321 322 322 322 322 323 323 323 323 324 324
336 339 338 334 325 324 335 335 334 328 317 314 315 317 316 317 316 317 318 318 319 319 320 319 319 319 319 318 318 318 320 321 320 321 322 322 323 324 324 325 325 325 325
338 339 337 333 324 322 326 335 335 335 327 317 315 317 317 317 317 317 317 318 318 318 318 318 318 318 318 318 319 319 319 320 321 321 322 323 324 325 327 328 328 327 327
337 338 337 333 329 327 323 327 335 335 330 324 320 316 316 316 316 317 317 317 318 318 318 318 318 317 317 319 320 319 319 322 324 324 324 325 326 328 329 329 329 328 325
338 336 337 333 334 331 329 325 326 333 335 331 327 324 318 317 317 317 317 318 318 318 318 318 318 318 318 321 323 323 324 325 326 326 326 327 328 329 330 330 328 327 325
334 334 336 333 336 335 329 324 323 325 332 335 332 326 323 322 321 321 321 320 320 319 319 319 320 322 322 323 326 326 327 327 327 328 329 329 330 330 330 329 327 326 325
327 334 331 334 333 332 331 328 323 324 325 332 334 332 326 324 325 326 325 322 321 320 319 321 323 323 324 327 328 328 328 328 329 329 329 329 328 327 327 326 327 326 324
326 330 330 329 329 331 332 331 324 324 325 325 328 331 332 329 330 331 328 325 324 323 322 321 321 323 326 328 329 329 330 330 328 328 328 327 327 327 326 327 327 327 324
328 326 327 327 326 327 328 332 331 323 324 327 326 328 327 329 328 329 329 328 326 325 324 322 323 325 328 329 330 330 329 328 328 327 328 327 326 326 326 326 325 326 324
331 326 327 326 326 326 326 327 330 332 330 323 323 325 328 330 332 332 332 330 330 327 326 326 327 329 331 332 332 331 328 327 328 327 326 327 326 326 326 326 326 325 326
330 329 327 325 325 324 325 327 330 331 330 331 332 332 333 334 334 334 333 332 331 329 327 330 331 332 331 329 329 328 326 324 326 322 323 320 319 321 322 321 323 325 326
328 329 327 328 326 324 326 328 327 327 327 327 329 333 333 334 334 334 334 333 331 330 329 332 331 329 330 327 329 325 326 324 320 318 318 316 318 320 320 319 320 324 326
329 329 330 328 327 326 327 327 327 326 326 327 327 331 332 332 333 334 334 332 331 332 332 332 330 329 329 329 328 329 327 323 319 319 319 320 321 319 319 322 323 325 326
330 328 328 328 326 326 327 327 327 325 326 327 328 330 330 330 332 333 332 332 332 333 331 330 330 332 331 330 329 328 325 324 321 317 319 320 318 317 315 321 323 324 324
329 328 328 328 327 326 326 328 329 330 329 329 329 329 330 329 329 331 330 331 332 330 328 327 326 326 327 326 324 315 314 316 321 318 316 319 318 317 318 320 321 322 321
325 328 330 331 331 329 331 331 332 332 329 326 330 329 329 329 331 331 330 331 330 327 326 326 324 321 323 313 312 311 311 311 311 313 316 313 315 316 315 316 317 319 318
320 320 321 322 328 331 331 331 331 330 330 327 329 330 329 327 329 328 330 328 328 327 324 322 321 322 314 312 312 311 311 311 311 312 313 312 312 312 313 315 316 316 315

GFSSE_850_thetae_096.txt.gz
Theta_e
345 345 341 341 336 333 331 329 321 322 318 325 331 335 333 338 340 341 337 332 330 338 326 331 335 328 330 321 318 327 330 330 328 322 325 330 333 335 331 330 333 328 329
345 345 340 341 333 332 330 323 328 338 329 326 329 333 334 338 340 341 336 328 326 330 322 335 332 317 315 315 315 317 321 322 324 327 330 321 325 329 334 326 326 326 332
347 345 341 337 332 331 326 322 335 337 328 328 331 328 334 338 340 337 334 318 314 319 330 335 335 316 316 315 314 314 314 315 316 316 329 331 315 317 319 318 331 330 328
347 344 341 334 333 331 323 330 338 336 328 331 329 331 337 340 340 336 326 314 319 332 333 322 318 318 317 317 317 317 316 316 315 316 325 327 319 313 312 313 318 330 332
346 344 342 336 335 332 322 336 340 336 331 330 331 337 339 341 338 333 317 321 323 329 322 319 320 319 319 318 318 319 319 319 319 321 320 322 321 318 316 316 314 314 324
345 345 338 336 336 331 322 337 341 338 334 336 336 338 341 340 334 322 315 327 319 329 323 321 321 321 321 320 321 320 319 319 319 319 320 319 319 318 318 318 317 315 314
343 343 335 335 336 329 324 336 340 340 339 338 338 342 341 338 330 315 318 320 320 326 321 322 322 322 322 322 322 322 322 321 321 319 321 325 319 319 319 319 318 318 317
342 341 338 336 336 329 324 333 338 341 342 342 342 339 332 328 319 315 320 320 321 321 321 322 322 322 322 322 322 321 321 321 323 321 321 323 320 321 322 322 321 321 320
341 341 337 339 333 327 319 330 337 339 341 340 340 336 330 319 315 318 320 320 321 321 322 322 323 322 321 321 321 322 322 321 329 323 324 329 322 322 322 323 323 323 323
340 340 338 338 332 325 328 317 325 332 335 336 335 332 318 316 315 319 320 321 321 321 321 321 321 321 320 320 320 321 322 321 327 322 324 325 323 323 323 324 324 324 325
339 339 339 339 336 333 335 326 318 315 318 322 324 318 318 317 316 318 320 321 321 321 321 321 320 319 319 319 319 319 321 323 322 324 328 323 323 324 325 325 326 326 326
337 339 339 338 335 337 335 332 327 318 315 325 325 320 328 320 322 323 318 319 320 320 320 319 319 319 318 318 319 319 321 320 322 322 324 323 324 326 327 328 328 327 325
338 339 337 335 333 334 337 335 333 332 329 328 331 331 330 324 317 318 318 318 319 319 319 318 318 318 318 319 320 322 319 322 327 325 324 324 325 327 329 329 329 326 325
336 338 335 331 331 332 336 336 337 332 333 330 323 320 318 319 317 320 323 321 319 318 319 318 319 317 317 319 321 324 324 325 327 326 327 326 327 329 330 329 327 326 326
328 336 335 331 326 327 329 335 334 335 331 328 325 318 316 316 317 317 317 318 318 318 318 319 319 320 320 322 324 326 328 329 329 329 329 328 329 329 329 329 328 327 326
326 333 335 333 327 328 325 323 328 333 333 332 330 326 323 321 319 320 321 322 321 320 319 320 320 323 324 325 330 329 330 330 330 331 331 330 328 328 326 327 326 326 327
326 326 331 331 333 332 327 321 322 323 328 332 334 331 327 325 325 323 327 324 322 322 321 321 322 323 324 326 328 328 331 332 332 331 330 330 327 327 326 326 325 326 327
327 326 328 330 332 333 332 329 322 323 323 324 330 331 330 329 329 331 331 328 327 325 323 322 321 321 327 329 331 332 332 332 330 329 329 328 328 328 328 326 326 325 326
328 328 324 328 329 329 329 333 330 324 322 326 325 325 327 328 329 329 329 330 329 327 325 324 323 326 329 332 333 333 333 331 330 329 329 328 328 324 325 327 324 326 325
327 326 325 328 327 327 330 331 330 330 331 326 323 323 324 324 328 331 332 333 332 330 328 326 327 329 332 333 332 331 330 329 328 326 325 323 319 317 320 321 321 325 325
327 327 327 326 326 326 329 329 330 330 329 330 331 331 328 330 333 334 334 334 333 332 330 328 330 332 331 331 330 329 329 328 327 320 319 317 317 320 320 319 320 325 323
329 326 328 326 326 326 326 327 328 330 329 328 328 327 328 333 333 334 334 333 333 333 331 330 332 331 331 329 330 330 327 325 325 318 318 315 316 319 316 315 321 324 325
330 328 327 327 328 327 325 326 327 327 328 327 328 327 328 331 331 331 332 332 332 333 331 331 331 329 330 329 329 328 325 323 324 322 318 314 316 317 315 314 318 324 326
323 324 326 327 328 328 326 326 327 328 328 327 327 328 329 329 329 331 329 331 330 332 331 331 330 327 327 325 325 321 314 316 319 319 320 318 315 316 314 315 318 319 322
328 327 328 327 328 327 328 326 327 328 328 328 325 326 327 328 329 328 329 329 329 330 330 328 327 325 324 321 314 312 311 311 311 319 317 318 318 315 314 313 315 316 317
326 327 330 330 329 329 328 328 327 328 327 325 326 325 326 327 326 326 329 327 330 329 324 325 325 324 324 323 322 315 315 313 315 314 317 316 316 315 312 311 312 314 316

GFSSE_850_thetae_099.txt.gz
Theta_e
347 345 344 341 337 334 331 329 327 325 325 333 337 337 335 336 341 340 335 329 338 327 338 335 334 335 318 331 333 332 330 321 324 328 334 334 333 328 329 332 334 333 332
346 345 345 341 338 334 331 329 322 318 320 327 335 336 334 338 340 339 332 334 339 326 337 330 322 319 316 322 325 325 323 324 325 324 325 324 329 326 325 327 328 333 334
345 346 344 343 336 332 330 325 324 330 319 325 330 334 332 339 340 337 330 331 333 327 335 321 315 315 315 316 317 318 318 318 324 330 330 324 317 317 319 331 329 332 334
344 346 343 342 332 331 328 322 334 338 326 328 331 331 334 340 341 336 324 318 322 334 335 321 316 316 315 315 315 315 316 315 320 327 327 326 316 313 314 321 329 333 331
345 345 344 339 332 330 325 326 337 336 328 331 332 330 336 340 340 334 315 321 334 336 321 317 318 318 318 318 318 319 319 319 324 329 330 328 319 316 316 315 318 326 330
344 345 344 336 333 331 322 335 339 333 328 333 331 334 339 341 338 326 318 334 333 328 319 319 319 319 319 319 319 319 319 320 327 330 327 321 318 318 318 317 316 315 316
344 343 344 336 335 331 323 338 339 333 330 332 335 339 340 340 333 327 329 329 335 335 320 321 321 320 321 321 321 321 321 323 329 330 331 322 319 320 320 319 319 318 318
344 343 343 336 336 329 325 338 341 334 334 336 338 340 341 339 325 318 329 331 335 324 322 322 322 322 322 322 321 321 321 324 330 330 331 321 321 322 322 322 322 321 321
343 343 342 335 336 329 324 337 341 338 337 338 339 342 340 334 319 327 328 333 335 322 322 322 322 322 322 322 322 321 321 324 331 330 331 327 322 322 322 323 323 323 323
342 342 340 338 337 333 328 336 341 341 341 340 341 338 332 325 317 325 328 334 333 324 323 323 322 321 320 320 320 321 321 322 331 327 331 323 322 322 323 324 324 325 325
327 328 340 339 338 334 330 332 337 341 341 340 339 334 323 317 319 325 328 328 326 324 323 322 321 321 319 319 319 319 320 328 327 328 331 323 322 323 325 326 327 327 326
324 324 323 339 336 333 333 322 326 333 338 338 336 331 327 324 329 331 323 322 322 322 322 322 321 320 319 322 318 318 322 326 327 327 329 323 323 325 327 328 328 326 325
324 323 323 338 335 334 335 328 328 324 328 331 332 332 331 330 329 333 321 322 322 323 322 320 319 319 324 327 328 328 327 326 328 328 326 324 324 326 328 329 328 326 327
325 324 324 338 335 333 334 332 331 328 329 331 332 331 331 332 331 331 322 320 320 319 327 325 328 327 323 324 328 328 328 329 329 329 329 327 327 328 329 329 328 328 326
324 329 333 336 333 336 335 334 332 331 329 329 332 332 331 331 329 330 329 328 328 326 328 326 325 326 324 328 328 326 330 330 330 330 330 330 329 328 328 328 327 326 326
327 332 329 334 332 333 334 336 335 333 332 332 329 328 328 328 328 327 328 328 327 324 325 327 328 329 330 330 330 331 331 331 331 331 331 331 331 329 327 326 326 326 327
326 327 329 332 327 331 333 335 336 335 334 332 334 331 331 327 328 322 330 325 324 322 323 325 329 330 330 331 332 332 332 332 332 331 330 330 329 328 328 325 325 324 325
326 325 326 330 326 331 332 327 332 335 337 333 332 332 329 323 322 321 323 324 324 322 322 327 329 329 328 330 331 332 332 332 331 330 329 329 329 329 329 328 328 326 325
326 325 326 331 328 328 333 331 331 329 331 333 334 335 334 327 325 326 328 330 328 327 325 329 329 327 328 331 332 332 332 332 330 329 329 329 328 327 326 323 325 322 322
326 327 323 327 329 328 332 333 332 331 329 325 325 327 333 331 332 330 330 332 333 331 330 330 329 327 330 331 332 331 330 330 329 328 327 325 325 317 317 319 320 324 322
328 327 324 328 329 329 329 333 333 332 327 325 326 326 326 328 331 332 330 332 333 333 332 330 329 329 331 332 331 329 330 329 328 327 323 324 322 318 319 317 315 326 322
328 326 324 324 325 327 327 330 331 333 333 332 329 328 327 327 327 331 332 334 334 333 333 332 330 331 332 332 330 330 328 327 326 324 320 320 317 316 318 314 313 321 325
328 325 325 326 326 327 327 327 329 331 332 335 334 332 330 331 333 332 332 333 333 333 333 332 331 330 331 330 328 329 327 324 324 322 324 318 315 318 315 314 312 317 322
327 325 326 326 326 325 327 327 327 327 328 328 329 330 329 329 330 331 331 330 330 330 331 331 330 331 329 329 326 324 322 323 321 319 321 320 318 316 316 314 314 314 316
325 327 325 327 327 327 328 327 326 326 327 328 328 328 327 328 329 328 329 328 329 329 329 329 329 328 328 326 320 318 313 314 315 318 319 319 320 319 314 313 314 314 314
323 323 324 326 327 327 328 327 328 327 325 327 328 328 325 325 326 326 326 325 325 329 330 327 324 325 326 326 325 322 323 320 321 319 317 317 318 316 316 313 312 313 314

GFSSE_850_thetae_102.txt.gz
Theta_e
348 345 340 333 332 329 327 327 326 326 332 335 336 336 334 338 340 338 331 331 332 339 337 336 331 328 334 334 332 321 320 325 333 333 333 330 327 328 333 333 333 331 329
347 345 343 338 336 333 330 328 327 326 327 334 336 336 334 338 340 335 331 334 333 338 332 332 323 322 329 326 323 320 325 323 325 325 327 324 322 326 332 330 331 332 333
347 345 343 343 337 335 331 328 325 322 328 330 335 335 334 339 340 333 336 335 332 336 324 320 315 318 320 319 319 320 323 328 330 328 325 317 316 322 330 329 334 334 330
346 343 344 343 339 335 330 327 321 319 330 329 333 334 333 340 340 333 336 335 331 335 318 315 315 315 316 316 316 316 318 327 327 327 326 318 314 316 323 329 332 331 330
346 343 344 343 337 332 329 325 326 332 331 328 331 332 333 339 340 334 324 326 332 331 316 316 316 316 317 317 317 318 320 325 325 326 324 319 316 316 316 317 319 321 323
344 343 343 342 334 331 328 322 333 337 329 330 333 332 336 340 337 331 316 326 334 321 317 317 318 318 319 319 319 319 323 327 327 326 320 318 318 318 318 317 317 317 316
344 343 344 343 333 331 327 325 337 335 328 333 334 333 338 340 337 320 329 335 325 319 319 319 319 319 320 320 320 320 324 327 329 330 321 319 320 320 320 319 319 319 319
344 344 344 344 335 334 327 332 339 333 329 335 331 335 339 340 335 320 333 327 334 322 320 320 320 321 321 321 321 321 323 329 329 327 321 320 321 321 321 321 322 322 322
342 344 343 343 337 334 325 333 339 332 330 332 335 340 340 338 331 331 331 335 333 321 321 321 322 322 322 321 321 321 323 330 331 330 328 322 321 321 322 322 323 323 324
340 342 343 341 337 334 325 333 340 334 332 334 339 339 341 338 325 333 333 335 335 324 322 322 322 322 321 320 320 320 320 329 326 326 326 322 322 322 323 324 325 325 325
338 341 338 339 339 336 327 328 341 338 336 338 340 341 339 334 333 337 336 335 335 327 323 323 322 321 320 319 319 319 321 326 327 329 330 325 322 323 325 326 327 325 323
330 337 336 327 328 336 333 325 337 340 339 339 340 339 334 324 327 336 335 335 335 331 323 323 322 320 319 319 318 318 325 325 326 326 328 324 322 324 326 328 327 325 326
326 325 325 326 325 326 325 326 333 340 340 340 339 334 323 322 327 333 332 334 328 322 322 322 321 319 320 324 326 325 326 325 328 328 326 325 324 325 327 328 327 326 326
327 326 324 324 326 326 329 328 332 336 338 336 335 328 331 328 328 329 324 322 321 322 322 321 320 320 322 323 326 328 327 325 328 329 329 329 327 327 328 328 327 326 327
327 325 324 323 323 327 335 328 326 330 329 332 331 330 331 331 328 329 322 322 321 321 324 327 327 327 323 321 326 324 328 330 330 330 330 330 330 330 327 327 326 325 326
327 325 325 325 326 329 335 330 328 327 330 331 328 331 331 332 327 330 328 325 325 325 328 326 322 326 328 327 327 329 330 330 330 330 331 330 330 329 327 326 325 325 325
328 327 329 327 330 332 332 330 330 329 329 332 332 332 331 330 329 329 328 324 322 320 320 321 324 328 329 330 330 331 331 330 331 331 330 330 329 329 328 328 327 327 323
328 328 330 331 330 328 331 330 331 333 331 330 330 330 328 327 325 322 323 320 319 320 321 320 321 327 328 329 329 331 331 331 329 329 329 329 328 328 328 327 325 326 323
327 326 327 328 326 325 325 332 332 330 331 331 331 328 329 325 323 319 321 323 324 323 322 323 326 328 325 328 331 331 331 331 331 330 329 329 329 328 326 322 319 321 319
327 326 326 325 325 321 322 324 328 330 334 332 329 331 331 326 323 323 323 328 330 328 328 327 328 328 327 329 330 330 330 330 330 329 328 327 324 320 316 318 318 317 320
328 326 326 326 323 322 325 327 328 329 330 331 336 335 334 336 329 328 330 331 332 331 331 330 329 329 327 331 331 330 328 329 328 328 328 323 320 316 314 316 313 315 321
328 327 326 326 324 326 324 327 330 330 330 330 330 331 332 333 333 333 332 331 331 332 333 332 330 329 329 330 330 329 329 327 327 327 322 318 315 313 313 313 313 313 314
325 327 325 329 328 327 329 327 329 329 330 331 331 331 332 330 330 330 331 331 333 333 333 333 332 330 330 330 329 329 327 325 325 323 321 319 319 315 315 314 313 313 316
328 327 327 326 326 327 327 327 328 328 329 329 330 331 331 331 331 331 330 332 333 332 331 332 332 332 330 329 329 327 326 326 320 319 322 320 319 319 317 315 314 313 312
328 326 326 325 325 325 326 327 327 327 327 328 328 329 328 329 329 328 330 331 330 329 329 329 330 330 330 328 327 326 321 314 313 316 316 319 320 319 318 316 315 314 313
327 325 326 325 325 324 326 327 326 326 326 326 327 328 328 327 327 328 327 327 326 325 325 327 329 329 327 324 327 326 324 323 320 319 321 320 318 318 316 314 314 313 312

GFSSE_850_thetae_105.txt.gz
Theta_e
346 336 329 328 327 327 327 331 333 334 334 335 334 334 337 338 338 335 324 330 340 339 339 323 333 335 335 320 318 319 329 332 332 330 325 326 331 331 331 333 331 331 329
345 343 333 330 330 326 325 325 325 329 333 334 335 334 334 341 338 332 325 338 340 337 337 322 333 332 328 318 319 325 324 322 324 324 321 321 325 328 330 330 331 332 332
346 345 340 333 333 331 328 327 326 325 329 334 335 334 333 341 338 332 326 338 338 331 328 318 321 321 319 321 321 326 329 328 326 319 316 316 321 325 333 334 332 330 331
347 345 342 339 336 334 331 328 326 325 329 331 335 335 332 341 337 336 330 337 336 323 319 316 318 318 318 318 322 327 327 327 326 321 316 315 317 323 326 331 331 328 329
345 344 342 343 338 336 331 328 325 320 329 329 333 334 333 340 337 337 334 334 336 319 314 315 316 316 316 316 316 322 325 326 326 323 318 317 317 316 317 319 319 320 319
345 344 343 344 340 335 330 327 322 323 331 327 331 333 334 339 337 337 332 329 334 316 316 316 316 317 318 318 320 324 324 323 322 320 318 318 318 318 317 317 317 317 317
343 344 344 344 340 332 329 325 323 334 332 330 331 333 334 339 338 331 326 328 330 317 317 318 318 319 319 319 320 322 323 323 321 321 319 319 320 319 319 319 320 320 320
341 343 344 343 340 331 328 324 330 336 332 331 333 333 334 339 335 323 328 329 324 318 318 319 319 320 320 320 321 323 325 324 322 322 320 320 320 320 321 321 322 322 322
340 344 344 344 339 334 331 324 334 337 330 332 335 332 337 340 334 320 328 330 319 319 319 320 321 321 320 320 321 323 327 328 324 325 322 321 321 321 321 322 323 324 324
336 341 341 342 338 335 330 326 336 338 328 334 335 334 339 339 335 321 322 333 323 320 320 321 321 321 321 320 320 322 327 328 324 325 324 321 321 322 323 324 325 324 321
333 335 338 341 338 334 330 332 336 338 330 334 333 338 340 339 333 333 332 334 324 321 322 322 321 320 320 319 319 320 324 325 326 326 327 325 321 323 324 325 326 324 325
329 332 335 340 337 335 331 331 337 338 333 333 334 340 340 339 331 331 334 335 329 321 323 322 321 320 319 318 318 319 324 324 325 325 326 324 322 323 325 326 326 325 325
329 330 331 333 335 336 330 330 329 336 336 336 337 340 339 338 332 330 337 334 334 324 322 322 321 319 319 320 322 322 325 324 327 328 327 327 325 324 326 327 327 326 327
326 328 328 327 330 334 325 329 327 330 338 337 338 340 338 335 330 334 336 333 330 321 322 322 321 319 320 321 323 326 326 323 327 328 329 328 329 328 327 326 326 325 325
326 325 327 327 325 324 323 328 328 329 337 339 338 338 332 323 328 334 332 326 322 321 322 321 320 321 321 320 323 325 326 329 330 329 329 329 329 330 327 324 325 325 324
327 326 327 326 324 323 322 325 327 331 331 337 337 334 328 321 324 328 325 321 321 321 321 321 321 321 322 320 322 325 329 330 330 330 330 330 329 328 328 328 327 324 323
325 327 327 325 325 326 324 325 328 331 331 334 333 330 329 329 328 327 322 321 321 320 322 323 323 323 324 327 327 330 330 330 330 329 329 329 328 327 327 328 328 326 324
324 328 328 327 327 327 328 328 331 329 328 330 330 331 330 331 331 325 324 321 321 323 324 322 322 324 327 330 330 330 330 330 329 330 329 328 327 327 327 328 327 321 321
324 327 326 327 331 327 328 329 326 328 330 331 330 331 331 331 328 329 327 326 323 322 321 321 322 324 327 328 329 330 331 331 330 330 329 328 328 328 328 327 318 315 317
323 322 325 328 329 326 326 324 328 329 329 329 332 331 331 330 328 328 326 323 322 323 322 322 324 326 326 325 329 330 331 331 330 330 330 329 328 326 320 313 314 313 313
326 326 324 326 327 326 325 326 329 331 330 329 329 330 330 327 325 325 324 327 327 327 326 326 326 327 327 327 330 330 330 329 329 329 329 327 327 318 313 313 313 312 312
326 324 326 326 326 325 325 327 328 327 327 329 329 329 327 327 328 327 326 329 330 330 330 330 329 328 327 327 331 331 330 328 328 328 328 327 319 315 314 314 313 312 312
324 325 327 326 326 322 325 328 326 323 322 324 323 328 331 331 332 330 330 331 331 330 331 331 331 330 329 328 329 330 329 328 327 327 326 322 319 318 318 317 316 314 313
325 324 324 328 325 323 326 327 328 327 324 325 326 325 328 330 330 332 332 331 330 331 332 332 331 330 331 329 330 330 329 327 325 324 323 323 322 319 319 320 317 315 314
324 325 324 326 323 326 325 327 328 328 329 328 327 327 326 327 328 329 328 329 329 329 328 330 328 329 328 329 329 329 328 326 325 319 320 320 320 319 320 319 318 315 314
324 324 326 326 326 326 327 327 327 327 327 327 327 328 326 327 328 328 328 326 326 324 328 327 326 326 326 328 329 328 328 327 325 315 316 320 320 320 318 318 317 315 314

GFSSE_850_thetae_108.txt.gz
Theta_e
342 334 329 334 333 333 332 331 333 336 334 332 333 333 333 337 338 334 320 335 339 334 322 337 341 332 318 320 325 324 330 332 325 323 325 330 331 332 332 331 330 331 334
340 331 327 331 332 331 330 330 331 333 333 334 332 332 336 338 338 326 332 339 339 338 331 334 336 334 318 318 325 327 326 325 320 321 322 325 329 329 332 330 331 331 330
345 337 329 329 328 327 326 326 328 331 333 334 334 332 338 340 336 325 335 339 339 338 324 332 331 318 319 321 321 321 320 318 316 316 319 323 330 333 333 333 330 331 332
345 343 335 329 327 326 325 325 324 325 330 333 335 333 333 341 333 328 338 338 337 326 317 320 319 319 320 324 325 324 324 322 319 315 315 320 325 328 330 328 324 324 323
345 345 342 333 331 331 329 327 326 325 329 330 334 334 332 340 334 329 335 338 325 319 316 318 318 318 320 324 325 324 322 321 320 318 317 316 317 317 318 318 318 317 316
342 344 342 340 336 335 332 328 326 324 331 330 331 335 333 340 336 335 331 339 325 315 316 316 316 316 316 319 322 323 321 320 319 318 318 318 318 317 317 317 318 318 318
341 343 342 343 342 338 333 328 325 321 330 330 329 335 333 339 337 337 329 333 324 315 316 317 317 318 318 321 323 322 322 323 321 318 319 319 319 319 319 320 320 321 321
339 343 342 343 343 336 331 327 322 327 331 330 326 334 332 338 338 337 328 325 323 316 317 318 319 319 319 320 322 322 323 323 322 319 320 320 320 320 320 321 321 322 323
338 340 342 343 342 335 330 327 326 332 332 331 329 334 333 337 339 333 322 325 321 317 318 319 319 319 320 320 321 324 324 324 325 323 320 320 320 321 321 322 323 323 321
334 333 340 341 341 336 334 332 334 335 336 330 332 335 334 338 337 328 321 322 321 318 318 320 320 320 320 320 321 324 326 324 322 324 322 320 321 321 323 324 324 322 324
334 332 336 337 339 336 334 331 334 338 336 330 333 336 334 339 335 328 322 324 320 319 319 320 321 321 320 320 320 323 325 323 324 324 325 323 321 322 324 325 325 324 324
333 332 332 334 335 337 333 332 337 338 336 329 335 335 336 338 335 330 328 332 320 320 320 321 321 320 319 319 319 321 323 323 322 323 324 323 322 323 324 325 325 325 326
331 332 331 331 333 336 335 330 333 336 337 333 334 333 336 338 337 331 329 333 328 321 321 321 320 319 318 318 318 320 323 323 323 326 326 326 326 325 325 326 325 325 325
328 331 330 331 331 333 334 332 328 329 331 336 333 334 337 339 337 330 331 333 327 321 321 321 320 319 319 320 321 321 323 323 324 326 328 328 328 329 327 325 325 324 324
328 329 330 329 331 331 332 331 333 330 329 330 335 335 338 339 338 331 333 334 330 323 321 321 320 319 319 320 321 322 323 325 327 328 329 329 329 328 328 326 323 324 324
327 327 326 326 327 327 326 325 326 324 328 329 337 336 338 338 338 332 331 333 332 322 321 321 320 319 320 320 319 321 323 329 330 329 329 329 328 327 328 327 326 325 323
321 324 324 325 326 325 325 324 324 325 325 328 333 338 338 337 330 331 326 329 327 322 322 321 320 322 322 322 322 324 328 329 329 329 329 328 328 328 327 326 327 327 326
321 321 322 324 326 325 326 326 325 325 327 329 328 334 336 330 323 325 325 323 322 322 322 322 323 321 322 325 327 328 329 329 329 330 330 329 327 327 327 326 327 326 320
320 321 323 326 327 327 327 328 326 325 326 325 329 330 332 328 324 327 321 326 322 322 322 322 322 322 324 325 328 329 329 330 330 329 328 328 328 328 327 327 327 316 314
320 322 322 325 325 327 329 327 328 328 326 330 328 329 331 328 325 325 326 324 324 325 324 322 322 323 323 326 328 328 330 331 331 330 329 329 329 328 328 326 315 314 313
323 323 323 323 324 326 328 327 329 331 329 326 326 330 331 331 331 330 328 328 327 324 323 322 323 322 325 326 326 328 330 331 331 330 329 329 329 328 325 315 313 313 312
322 322 324 324 324 327 326 326 325 326 327 328 328 328 330 331 330 330 329 329 327 324 324 323 323 325 327 327 327 329 330 330 329 329 329 329 327 327 317 315 316 314 314
323 323 325 325 325 327 326 325 325 326 328 325 327 328 329 329 330 328 327 326 325 326 326 327 327 327 327 327 326 328 330 330 329 328 328 328 327 321 318 317 320 318 316
323 323 324 324 326 326 326 325 326 328 329 328 328 327 328 328 328 325 324 324 326 328 330 330 330 330 329 328 327 327 328 328 327 327 327 327 324 321 319 318 320 319 317
321 324 324 323 322 324 326 325 326 327 327 326 327 327 327 327 327 329 329 328 330 332 330 329 328 328 327 327 328 329 329 328 327 327 325 325 324 322 320 319 321 319 317
322 323 325 323 325 326 324 327 328 325 324 324 324 323 323 324 327 328 329 330 328 327 328 328 327 327 327 327 327 325 325 326 328 325 319 321 321 319 319 321 320 318 317

GFSSE_850_thetae_111.txt.gz
Theta_e
341 338 339 337 335 334 334 333 335 333 330 330 332 332 333 335 337 331 322 329 322 320 334 336 320 321 327 329 327 332 328 320 322 327 330 330 332 331 330 329 333 334 333
341 336 334 335 335 333 332 333 336 335 332 331 331 332 332 336 337 324 333 339 329 335 338 336 326 318 332 323 326 329 325 319 320 324 327 330 329 330 330 331 331 331 332
337 333 330 333 333 333 332 333 333 335 333 332 332 332 334 337 335 323 338 339 337 334 335 337 325 317 320 324 323 321 318 317 318 321 323 332 333 332 332 332 332 332 330
341 331 327 330 332 332 331 331 331 332 333 334 333 333 338 338 331 330 338 340 339 326 326 329 316 317 319 320 321 321 319 317 315 317 323 327 327 327 326 325 320 320 318
343 337 330 328 330 327 326 326 326 328 331 332 334 332 334 339 330 333 338 339 332 322 317 316 318 318 321 322 323 323 322 320 317 316 317 318 318 318 317 317 317 316 317
345 340 336 330 328 327 327 326 325 326 329 330 334 333 333 340 332 334 337 336 323 315 318 318 319 320 321 321 321 321 320 320 318 317 317 317 317 317 317 318 318 319 319
342 344 339 332 331 332 332 329 327 325 332 329 330 335 333 339 336 330 333 336 318 315 317 317 317 318 318 320 321 321 322 320 318 318 318 318 318 319 319 320 320 321 321
344 343 341 339 336 336 335 331 327 324 324 329 330 333 334 337 339 335 330 335 318 315 316 316 317 317 319 321 321 322 323 320 318 319 319 319 319 320 320 321 322 322 320
338 342 342 342 342 341 336 330 326 322 325 330 330 331 334 335 339 337 330 328 319 315 316 317 318 318 319 320 321 323 323 322 321 319 319 319 320 320 321 322 322 321 321
334 337 341 343 343 338 333 330 327 332 329 332 331 330 334 335 338 337 332 326 323 316 317 318 319 319 319 321 321 323 324 322 323 321 320 320 320 321 322 323 323 323 323
334 334 336 338 340 340 334 332 327 333 335 333 332 331 334 335 339 338 332 323 326 317 318 319 319 320 320 320 321 322 322 322 323 323 323 321 320 321 323 324 324 324 324
333 332 332 333 336 338 337 333 331 333 336 336 332 333 335 335 339 337 331 321 324 318 318 320 320 320 320 320 320 321 321 322 322 323 323 322 322 322 323 324 325 325 325
333 334 332 331 332 336 337 335 332 328 338 336 332 334 336 336 337 332 331 325 322 319 319 320 321 320 319 319 319 320 321 322 322 325 325 325 326 325 325 325 325 324 325
330 333 332 331 334 334 335 335 333 328 337 336 331 335 336 336 334 333 332 326 321 319 320 321 321 320 318 318 317 318 321 323 322 325 326 327 328 328 326 325 324 325 324
325 329 331 331 332 333 334 334 332 327 331 333 333 333 335 336 335 335 335 327 324 321 320 321 320 320 318 319 320 320 322 323 322 325 327 328 328 328 327 326 324 323 323
320 327 327 330 331 331 332 333 331 331 329 328 326 329 333 334 334 336 336 327 328 324 322 322 321 320 318 320 321 321 322 325 326 328 328 328 329 327 327 327 325 325 325
318 323 326 326 326 327 330 330 328 326 329 331 325 328 332 334 335 336 336 330 327 326 322 323 322 321 319 320 320 319 322 325 329 329 328 328 328 328 327 327 326 326 326
314 319 323 324 324 324 325 326 326 325 324 324 326 327 331 334 334 336 336 333 326 330 324 323 322 320 320 322 321 321 324 327 329 329 329 329 328 328 327 326 327 326 327
313 319 320 320 321 322 325 325 325 325 326 325 325 328 329 333 336 336 336 330 329 328 325 322 322 322 322 322 322 326 327 329 329 329 329 329 329 328 327 327 327 326 320
313 319 320 321 323 324 325 326 326 328 326 326 324 327 329 332 333 334 331 329 328 326 324 324 322 325 324 322 325 327 329 329 329 330 330 330 329 328 328 328 327 322 313
311 317 318 321 322 325 326 325 325 326 327 328 326 326 329 330 331 327 325 322 325 329 322 323 323 325 324 324 327 328 328 328 330 331 331 331 329 328 329 328 325 314 313
313 316 318 321 323 323 324 326 327 327 327 328 326 327 329 326 327 330 323 319 320 322 322 325 324 324 324 325 327 327 327 327 330 331 331 329 329 329 328 326 318 314 315
314 316 321 322 323 324 324 326 327 326 327 329 328 329 328 328 328 326 326 323 326 326 326 325 325 324 325 325 327 326 328 329 329 330 329 329 329 328 327 323 316 318 320
316 318 323 323 325 325 324 326 326 325 326 327 327 328 329 328 327 324 329 328 326 328 327 324 326 325 325 327 328 328 327 328 328 328 328 328 328 327 326 320 318 319 320
318 321 323 325 324 324 325 325 326 326 326 325 326 326 328 328 329 329 328 328 328 328 326 327 328 329 329 328 329 328 327 327 328 327 326 327 326 327 324 321 319 319 321
319 320 321 324 324 323 323 322 324 326 325 326 326 325 327 328 327 327 327 327 325 324 323 324 327 328 328 328 327 326 326 326 325 324 324 325 326 325 323 322 319 320 321

GFSSE_850_thetae_114.txt.gz
Theta_e
340 341 339 337 337 337 336 334 333 332 333 334 334 334 335 335 337 329 321 318 320 325 326 319 327 338 331 327 326 325 325 323 328 327 330 332 327 327 332 333 333 332 332
341 339 339 337 336 337 336 335 335 334 332 332 332 332 332 335 336 325 329 324 331 337 336 322 327 332 329 324 333 325 320 321 326 328 330 330 330 331 330 331 331 332 333
342 339 340 336 337 336 335 334 335 333 331 330 331 331 332 336 335 325 336 330 337 339 338 325 323 333 325 322 323 318 318 319 321 326 329 332 331 332 332 332 332 328 321
339 336 335 335 335 337 335 333 335 335 333 331 331 331 333 337 331 334 339 339 335 335 336 322 320 320 319 318 317 316 316 316 319 324 330 328 327 326 326 323 318 317 316
338 333 330 333 334 336 335 333 332 333 333 333 332 333 337 337 329 334 339 339 333 327 318 316 316 317 319 322 321 320 319 316 316 318 320 319 318 317 317 317 317 317 318
339 333 329 329 331 332 331 329 329 330 331 333 334 334 336 338 331 336 338 338 328 318 316 316 317 319 321 321 321 320 319 318 317 317 317 317 317 317 318 318 319 320 320
343 336 332 330 330 328 326 325 324 324 326 327 333 334 336 339 336 335 336 336 322 317 317 318 318 320 320 320 320 320 319 317 317 318 318 318 318 318 319 319 320 321 320
344 342 334 331 329 328 328 328 327 326 325 327 327 333 334 337 336 335 334 335 318 317 317 318 318 318 319 320 320 320 320 318 318 319 319 319 319 319 320 321 322 320 319
336 342 340 335 330 331 333 332 329 327 325 326 328 328 335 335 339 336 332 335 318 315 316 317 317 318 319 320 320 321 320 319 318 319 319 319 319 320 321 322 322 321 322
334 336 340 340 337 336 337 335 331 328 323 330 330 330 333 335 338 339 333 328 323 315 316 317 318 318 319 319 320 322 322 322 321 319 319 319 320 321 322 323 323 323 323
334 333 335 337 339 341 341 336 330 328 324 332 331 331 333 335 335 339 336 330 326 315 316 318 318 318 319 319 320 321 322 321 322 322 322 321 320 321 323 323 323 323 325
335 334 333 332 334 335 338 337 332 327 328 330 333 333 329 334 334 337 338 332 325 317 317 318 319 319 319 319 319 320 321 321 322 322 323 321 321 322 323 324 324 325 324
328 334 333 332 332 332 334 337 333 331 329 333 334 333 333 334 335 334 338 333 325 324 317 318 319 319 319 319 319 319 320 321 321 322 323 323 325 324 325 325 325 325 324
320 328 333 333 332 332 333 334 334 333 331 333 336 333 333 335 336 335 337 334 327 323 318 318 320 320 320 319 318 318 319 320 321 323 325 325 326 327 325 326 324 325 326
315 323 329 332 333 332 334 334 334 333 331 331 331 334 330 334 336 335 335 332 331 324 319 319 320 320 319 318 318 317 318 319 322 322 325 327 327 327 326 327 325 324 323
312 317 326 329 332 332 332 332 332 333 330 331 333 332 331 331 334 334 333 333 333 328 322 321 321 321 319 318 318 319 320 321 323 323 326 327 328 328 326 326 326 325 324
310 313 320 327 328 330 331 331 331 331 329 330 329 329 328 327 331 333 334 332 334 330 326 325 323 322 320 319 319 320 321 321 323 325 327 328 328 328 328 327 327 326 326
308 310 316 323 326 326 328 329 331 331 331 328 327 329 329 326 328 334 332 332 333 331 329 327 324 322 321 319 319 321 320 320 322 327 328 328 328 328 328 328 327 326 326
307 308 312 318 323 325 325 325 326 330 327 325 325 324 324 324 327 333 333 333 333 334 331 329 326 323 322 320 322 323 322 322 324 327 328 328 329 329 328 327 327 327 327
306 308 311 316 320 322 322 323 324 325 325 325 325 325 325 324 326 331 334 333 333 334 332 331 326 324 323 321 324 323 324 326 327 328 329 329 329 329 328 328 328 328 326
307 306 310 316 319 320 322 323 324 324 325 326 326 326 326 325 326 329 332 333 334 334 324 330 330 327 323 323 325 323 325 326 328 328 328 330 330 330 329 328 328 328 323
307 307 310 316 319 319 321 322 324 324 325 325 325 326 326 327 326 328 332 332 331 328 322 323 326 327 324 326 325 326 327 326 325 326 328 330 330 330 329 328 328 326 321
307 307 310 313 317 319 320 322 323 325 325 326 325 327 328 327 326 328 329 329 329 327 322 323 323 326 324 325 325 326 327 326 325 325 327 329 330 329 328 328 328 327 318
308 309 311 314 315 318 321 322 323 323 326 326 325 326 328 326 328 329 326 328 325 322 319 318 319 323 326 326 326 326 327 327 328 328 328 328 328 329 328 328 327 324 318
312 314 311 315 318 322 322 324 324 325 326 325 326 327 328 328 327 328 328 325 326 324 318 319 323 322 324 325 326 326 327 327 327 327 327 327 327 327 325 325 327 326 321
314 316 316 317 322 323 324 325 325 326 326 325 326 325 327 326 327 328 329 325 327 326 324 325 325 325 326 326 327 328 327 328 328 327 326 326 324 323 323 324 325 326 321

GFSSE_850_thetae_117.txt.gz
Theta_e
342 343 339 341 338 334 334 338 338 340 339 338 339 337 335 334 336 324 319 318 322 317 328 335 334 334 329 327 330 330 325 330 331 329 327 330 328 333 333 333 333 334 333
343 343 340 338 339 338 333 332 334 335 334 334 339 335 334 334 335 324 322 318 324 324 322 323 333 332 326 329 321 319 321 327 328 331 331 332 331 330 331 332 333 332 322
343 341 339 337 338 338 337 334 333 333 333 333 335 332 331 334 335 326 328 329 337 338 328 332 333 326 327 322 318 317 318 322 326 327 330 331 333 333 332 330 326 319 316
343 342 341 336 336 337 337 335 334 334 331 330 330 330 331 334 332 330 334 339 340 338 331 331 320 322 319 317 316 317 318 320 325 331 327 324 327 325 322 318 317 316 317
342 341 342 337 335 337 335 334 334 334 333 331 330 330 332 336 331 338 338 338 335 335 325 317 317 317 318 317 317 316 316 317 320 322 320 319 317 317 317 317 318 318 319
342 339 339 336 335 336 335 333 333 334 333 332 333 335 337 337 333 337 338 337 333 323 317 315 317 319 321 320 320 319 317 316 317 317 317 317 317 317 318 318 319 320 319
343 336 334 334 335 335 333 331 331 330 331 331 333 334 334 337 336 337 339 337 329 317 315 317 319 321 321 320 319 318 317 317 317 317 317 317 318 318 319 320 321 320 318
341 339 332 337 333 333 333 330 328 327 327 328 330 333 333 335 337 337 336 336 325 316 316 318 319 320 320 319 319 319 318 317 318 318 318 318 318 319 320 321 321 320 321
338 340 340 336 331 330 327 327 327 327 326 328 328 331 334 334 338 337 336 335 323 316 317 318 318 318 319 320 320 320 318 317 318 318 318 319 319 320 321 321 321 322 322
335 336 340 339 337 329 329 330 330 329 327 329 331 330 332 335 336 338 335 334 328 315 317 317 318 318 319 319 320 321 321 320 319 318 319 319 319 321 322 322 322 323 323
335 334 335 339 338 337 334 335 335 333 328 325 329 331 332 334 335 337 337 332 331 315 316 316 317 318 319 319 320 321 322 321 321 321 320 320 320 321 322 323 323 323 324
334 335 334 335 336 337 337 339 338 334 329 324 331 331 332 332 335 335 338 335 329 322 315 316 317 318 319 319 319 320 320 320 321 322 322 322 321 321 322 323 324 324 324
326 332 334 333 333 332 333 334 335 335 332 330 327 332 332 330 334 334 336 337 334 327 317 316 318 318 319 319 319 319 319 320 320 321 322 322 324 323 324 325 326 325 325
313 324 330 333 333 332 332 332 334 335 333 332 332 332 333 331 333 335 335 336 336 330 324 317 318 318 319 320 319 319 320 320 320 321 323 323 324 325 325 327 327 324 326
310 316 324 329 332 333 332 331 333 334 333 332 332 335 335 332 332 334 335 333 336 334 325 320 318 320 320 320 320 319 318 319 320 321 323 325 326 326 327 325 326 324 322
308 311 316 323 328 332 333 332 333 333 333 332 333 331 333 331 330 331 334 335 335 334 330 326 318 320 321 321 320 319 318 318 320 322 322 324 327 328 326 325 326 325 325
306 308 310 316 325 330 332 332 332 332 332 332 331 331 331 332 331 332 333 333 333 334 333 331 326 322 322 321 319 318 320 320 321 322 323 325 327 328 328 327 327 327 326
308 306 309 312 321 328 331 331 331 332 331 332 330 329 329 329 329 328 331 332 333 334 332 333 328 328 324 322 321 319 320 321 321 321 323 327 328 328 328 328 328 327 326
309 306 307 309 315 325 327 330 331 332 332 331 329 331 326 325 325 325 327 331 334 334 333 333 331 329 327 324 322 320 319 322 321 320 322 327 328 328 329 328 328 327 327
308 307 306 307 310 318 325 326 327 329 329 330 330 330 325 325 325 324 324 327 333 334 333 333 329 321 323 325 324 322 321 323 323 323 325 328 328 328 329 328 328 328 328
308 307 306 306 308 312 318 325 325 324 324 325 326 325 325 325 325 326 326 325 327 332 333 334 332 325 322 326 326 324 323 323 323 323 327 328 328 329 328 329 329 328 328
308 308 307 306 307 309 319 322 322 322 322 322 323 324 325 325 325 326 326 325 328 332 334 332 332 324 323 323 325 325 326 324 322 323 325 327 327 329 330 330 329 328 328
310 309 307 306 306 309 316 320 321 323 323 324 323 324 324 325 325 326 328 327 329 329 329 332 330 325 323 321 323 325 326 326 324 324 323 324 325 327 329 328 328 328 328
310 309 308 307 307 309 315 317 322 321 322 320 322 324 325 325 326 330 327 326 327 329 329 330 327 323 321 319 324 325 325 326 326 326 327 327 327 328 328 328 327 325 326
309 307 307 307 308 310 313 316 321 323 322 323 324 325 325 326 328 326 328 327 329 328 326 327 327 322 322 321 319 320 323 324 326 326 326 326 326 326 326 326 324 323 323
313 312 312 313 310 311 314 317 322 322 323 324 326 325 325 326 326 327 328 328 327 327 322 321 322 321 320 319 318 319 322 323 325 325 325 325 326 325 325 325 323 323 323